     2.11           OBSERVATION DATA    G (GPS)             RINEX VERSION / TYPE
teqc 2010Oct21 OPUS Account 20111027 16:33:18UTC            PGM / RUN BY / DATE
N 1524                                                      MARKER NAME
1217                                                        MARKER NUMBER
CSMIDDLETON NGS                                             OBSERVER / AGENCY
0220390614 TRIMBLE R7 2.32                                  REC # / TYPE / VERS
12611996 TRM41249.00 NONE                                   ANT # / TYPE
  -760046.9014 -5531292.7113  3073249.1125                  APPROX POSITION XYZ
        2.0000        0.0000        0.0000                  ANTENNA: DELTA H/E/N
     1     1                                                WAVELENGTH FACT L1/2
     5    L1    L2    C1    P1    P2                        # / TYPES OF OBSERV
    15                                                      LEAP SECONDS
  2011     8    16     0     0   30.0000000     GPS         TIME OF FIRST OBS
                                                            END OF HEADER
 11  8 16  0  0 30.0000000  0  8G10G28G17G12G05G04G09G02
 -41949647.55158 -32648250.39856  21343092.3914                   21343091.2114
-109750775.74256 -85478325.10553  24109804.7814                   24109806.3444
 -93351320.15657 -72696258.52755  22620241.2274                   22620239.3914
 -24846580.29357 -19189257.20755  22539448.6174                   22539446.9734
 -13557482.93457 -10523383.51255  23507575.3594                   23507576.9454
 -73699042.75458 -57380965.22756  20832053.0864                   20832051.7274
 -41052664.76657 -31946018.64554  22827624.5784                   22827624.1174
 -52498936.59858 -40864173.00856  20891601.4064                   20891597.6684
 11  8 16  0  1  0.0000000  0  8G10G28G17G12G05G04G09G02
 -42094484.78948 -32761110.54746  21315530.9924                   21315529.8014
-109752324.83246 -85479532.34043  24109509.8444                   24109511.8714
 -93407957.42647 -72740391.49245  22609463.7424                   22609462.0314
 -25030780.35947 -19332789.69945  22504396.7894                   22504394.8794
 -13762159.41847 -10682871.47344  23468626.5164                   23468628.4384
 -73738797.21948 -57411942.75046  20824488.2034                   20824486.1254
 -41094533.69947 -31978643.82445  22819657.2584                   22819657.3244
 -52623745.62948 -40961426.77046  20867850.9774                   20867847.3204
 11  8 16  0  1 30.0000000  0  8G10G28G17G12G05G04G09G02
 -42238716.11348 -32873498.55146  21288084.4384                   21288082.9964
-109753580.43046 -85480510.89143  24109270.2114                   24109273.3674
 -93464410.07047 -72784380.59445  22598721.1414                   22598719.4654
 -25214659.13748 -19476071.83645  22469405.7344                   22469403.6374
 -13966679.60947 -10842237.66445  23429707.5554                   23429708.5234
 -73778175.95748 -57442627.50046  20816994.1804                   20816992.5944
 -41135926.81247 -32010898.23444  22811780.1644                   22811780.4844
 -52748128.06648 -41058348.12946  20844181.6334                   20844178.0274
 11  8 16  0  2  0.0000000  0  8G10G28G17G12G05G04G09G02
 -42382353.94548 -32985424.09846  21260750.3364                   21260749.2894
-109754558.90646 -85481273.44943  24109084.7814                   24109086.5314
 -93520692.20347 -72828236.83245  22588010.8364                   22588008.8594
 -25398228.25448 -19619112.68745  22434473.7424                   22434471.6214
 -14171055.52747 -11001491.43044  23390815.6484                   23390816.8054
 -73817195.91448 -57473032.67646  20809569.0634                   20809567.5434
 -41176861.75847 -32042795.61744  22803989.9384                   22803990.3714
 -52872098.85248 -41154948.71146  20820590.7734                   20820587.2154
 11  8 16  0  2 30.0000000  0  8G10G28G17G12G05G04G09G02
 -42525395.49248 -33096885.00046  21233531.1724                   21233529.7274
-109755261.88346 -85481821.34043  24108951.0394                   24108953.6484
 -93576802.82847 -72871959.42645  22577333.4144                   22577331.9884
 -25581485.00848 -19761910.12545  22399600.8674                   22399599.3204
 -14375283.46147 -11160629.87544  23351952.6414                   23351953.4344
 -73855859.12948 -57503159.87546  20802211.7274                   20802210.4924
 -41217341.00447 -32074337.92645  22796287.8054                   22796288.1374
 -52995658.22348 -41251228.72746  20797078.1254                   20797074.7234
 11  8 16  0  3  0.0000000  0  8G10G28G17G12G05G04G09G02
 -42667838.37948 -33207879.41446  21206425.2504                   21206423.5434
-109755691.05546 -85482155.89143  24108869.7194                   24108872.9654
 -93632741.25047 -72915547.84445  22566688.5944                   22566687.2934
 -25764426.74648 -19904462.09845  22364788.6644                   22364786.6414
 -14579360.56247 -11319650.78944  23313117.0084                   23313118.5004
 -73894167.70348 -57533010.71946  20794921.7734                   20794920.4884
 -41257367.54747 -32105527.47745  22788671.2734                   22788671.2504
 -53118806.56248 -41347188.44546  20773644.1564                   20773640.2504
 11  8 16  0  3 30.0000000  0  8G10G28G17G12G05G04G09G02
 -42809678.29348 -33318403.98846  21179433.6804                   21179432.2704
-109755846.26646 -85482276.97342  24108840.7424                   24108842.3204
 -93688504.59847 -72958999.82045  22556076.8524                   22556075.7114
 -25947048.53147 -20046764.76245  22330036.8054                   22330034.8834
 -14783281.78947 -11478550.24644  23274311.9454                   23274313.8164
 -73932121.66048 -57562585.25046  20787699.4534                   20787697.9964
 -41296942.57047 -32136365.19145  22781140.0704                   22781140.5744
 -53241542.30948 -41442826.66446  20750288.4534                   20750284.6254
 11  8 16  0  4  0.0000000  0  8G10G28G17G12G05G04G09G02
 -42950911.58648 -33428455.87146  21152558.0784                   21152556.9494
-109755727.59446 -85482184.68042  24108864.0634                   24108865.1134
 -93744090.40647 -73002313.46945  22545499.3674                   22545498.3014
 -26129345.77047 -20188814.53145  22295346.4224                   22295344.5234
 -14987041.83647 -11637324.11344  23235538.0784                   23235539.1524
 -73969721.71948 -57591884.01646  20780544.3914                   20780542.9224
 -41336067.43047 -32166852.13344  22773694.8834                   22773695.3554
 -53363864.24648 -41538142.43446  20727010.8364                   20727006.9844
 11  8 16  0  4 30.0000000  0  8G10G28G17G12G05G04G09G02
 -43091530.93448 -33538029.34046  21125798.6254                   21125797.6334
-109755332.28146 -85481876.66843  24108938.2274                   24108940.2114
 -93799493.21547 -73045484.50845  22534956.6954                   22534955.4024
 -26311311.08647 -20330605.64845  22260719.9064                   22260717.8444
 -15190633.52047 -11795966.77045  23196796.1024                   23196797.1564
 -74006965.52348 -57620905.16846  20773456.8444                   20773455.7544
 -41374740.69547 -32196987.17245  22766336.1414                   22766336.1174
 -53485768.15248 -41633132.46546  20703813.0784                   20703809.6254
 11  8 16  0  5  0.0000000  0  8G10G28G17G12G05G04G09G02
 -43231538.28548 -33647125.93446  21099156.2424                   21099155.1484
-109754666.35246 -85481357.85243  24109065.4614                   24109067.1134
 -93854716.62547 -73088515.75445  22524448.2114                   22524446.9104
 -26492946.21148 -20472139.48045  22226156.2034                   22226154.0944
 -15394057.56647 -11954478.80945  23158085.1724                   23158086.2544
 -74043859.34448 -57649653.61746  20766436.4224                   20766435.0124
 -41412968.94947 -32226775.46145  22759061.1254                   22759061.6914
 -53607258.50448 -41727800.25046  20680694.5634                   20680690.6684
 11  8 16  0  5 30.0000000  0  8G10G28G17G12G05G04G09G02
 -43370931.25048 -33755743.78546  21072630.8134                   21072629.6414
-109753731.29346 -85480629.31243  24109243.0634                   24109245.3914
 -93909759.31247 -73131406.18045  22513973.9614                   22513973.3094
 -26674247.96948 -20613413.53945  22191655.2814                   22191653.5514
 -15597310.43747 -12112857.46545  23119407.6414                   23119408.5004
 -74080405.03948 -57678130.79746  20759481.9844                   20759480.7734
 -41450755.04747 -32256219.19145  22751870.4064                   22751870.9414
 -53728335.66448 -41822146.05946  20657654.4534                   20657650.8204
 11  8 16  0  6  0.0000000  0  8G10G28G17G12G05G04G09G02
 -43509708.38348 -33863881.76246  21046221.9064                   21046221.0204
-109752529.58646 -85479693.06643  24109472.2114                   24109474.1334
 -93964621.82047 -73174156.19545  22503534.0474                   22503533.1094
 -26855214.55148 -20754426.42245  22157218.1644                   22157216.7624
 -15800390.48047 -12271101.45745  23080762.7814                   23080763.5164
 -74116605.73048 -57706339.15246  20752593.7504                   20752592.1564
 -41488103.12947 -32285321.63344  22744763.6484                   22744764.2974
 -53849001.05948 -41916171.02046  20634692.2114                   20634688.6884
 11  8 16  0  6 30.0000000  0  8G10G28G17G12G05G04G09G02
 -43647866.86748 -33971537.67646  21019931.7664                   21019930.5164
-109751062.66846 -85478550.13343  24109750.9304                   24109753.4534
 -94019302.48847 -73216764.53945  22493128.8834                   22493127.3794
 -27035842.38747 -20895175.34846  22122845.7584                   22122844.1914
 -16003293.30947 -12429207.36345  23042151.1564                   23042152.0354
 -74152462.98048 -57734279.87146  20745769.7734                   20745768.6134
 -41525015.48847 -32314084.53544  22737739.3524                   22737739.4694
 -53969254.34448 -42009874.85546  20611809.0634                   20611804.9494
 11  8 16  0  7  0.0000000  0  8G10G28G17G12G05G04G09G02
 -43785403.87148 -34078709.33646  20993758.8674                   20993757.5164
-109749331.54346 -85477201.28543  24110080.3204                   24110083.4224
 -94073799.88347 -73259230.05545  22482758.1334                   22482757.0474
 -27216128.14848 -21035657.73446  22088538.4614                   22088536.8984
 -16206015.25847 -12587172.32445  23003574.4614                   23003574.8954
 -74187978.39148 -57761954.23846  20739011.6094                   20739010.4414
 -41561494.62547 -32342509.87945  22730797.5474                   22730797.9454
 -54089095.07448 -42103257.21146  20589004.3054                   20589000.2664
 11  8 16  0  7 30.0000000  0  8G10G28G17G12G05G04G09G02
 -43922315.89548 -34185393.99246  20967705.6024                   20967704.0744
-109747336.51646 -85475646.87543  24110461.0394                   24110463.4654
 -94128111.77047 -73301551.02045  22472423.1174                   22472421.9344
 -27396067.20348 -21175869.94545  22054297.2504                   22054295.2894
 -16408551.99247 -12744992.97345  22965032.7504                   22965033.7154
 -74223152.30148 -57789362.49646  20732318.2114                   20732316.4694
 -41597541.87147 -32370598.67644  22723938.4384                   22723938.7234
 -54208522.60248 -42196317.59446  20566277.8984                   20566274.1724
 11  8 16  0  8  0.0000000  0  8G10G28G17G12G05G04G09G02
 -42483178.27348 -33063988.01646  21241564.1724                   21241563.1994
-108169661.99646 -84246290.25443  24410681.3674                   24410684.5784
 -92606817.55147 -72116126.96945  22761915.4144                   22761914.2584
 -26000233.37548 -20088207.18445  22319915.5314                   22319913.7304
 -15035475.59447 -11675063.12545  23226319.9534                   23226320.9304
 -72682568.10548 -56588907.28946  21025481.4064                   21025480.0864
 -40057741.08247 -31170753.94144  23016952.1484                   23016952.8554
 -52752115.49648 -41061454.89146  20843422.9064                   20843418.6414
 11  8 16  0  8 30.0000000  0  8G10G28G17G12G05G04G09G02
 -42618839.82048 -33169698.27046  21215748.7974                   21215747.5394
-108167150.87546 -84244333.62143  24411159.4384                   24411162.0084
 -92660762.03947 -72158161.66445  22751650.0394                   22751648.8984
 -26179477.77047 -20227878.10245  22285806.3674                   22285804.5084
 -15237638.52347 -11832592.51245  23187849.6804                   23187849.9734
 -72717072.08648 -56615793.52346  21018915.5004                   21018914.4614
 -40092939.87147 -31198181.60945  23010254.5234                   23010255.0044
 -52870724.11748 -41153877.17246  20820852.1484                   20820848.3204
 11  8 16  0  9  0.0000000  0  8G10G28G17G12G05G04G09G02
 -42753871.32448 -33274917.59446  21190052.9614                   21190051.9144
-108164382.85546 -84242176.90643  24411687.2424                   24411688.9884
 -92714520.08647 -72200051.07845  22741420.5234                   22741419.4064
 -26358368.75447 -20367273.63345  22251765.0084                   22251763.0204
 -15439607.79747 -11989971.01245  23149416.2034                   23149416.6134
 -72751242.80948 -56642420.07446  21012413.1954                   21012412.0394
 -40127717.35947 -31225280.99244  23003636.5704                   23003636.7344
 -52988922.49248 -41245979.77346  20798360.1024                   20798356.2974
 11  8 16  0  9 30.0000000  0  7G10G17G12G05G04G09G02
 -42888268.00448 -33379642.24646  21164477.7974                   21164476.9414
 -92768088.22747 -72241792.52345  22731226.8054                   22731225.0314
 -26536901.32848 -20506389.88745  22217791.3364                   22217788.9104
 -15641378.00847 -12147194.38345  23111019.9384                   23111021.2624
 -72785079.69148 -56668786.48846  21005974.1724                   21005972.9144
 -40162074.37547 -31252052.73444  22997098.7734                   22997099.4734
 -53106708.57848 -41337761.10946  20775946.0314                   20775942.3954
 11  8 16  0 10  0.0000000  0  7G10G17G12G05G04G09G02
 -43022030.04748 -33483872.37546  21139024.1334                   21139022.8634
 -92821468.23047 -72283387.35545  22721068.7034                   22721067.5864
 -26715074.79348 -20645226.32046  22183885.9144                   22183883.6214
 -15842948.05147 -12304261.79745  23072662.5474                   23072663.4884
 -72818587.28548 -56694896.32046  20999597.9534                   20999596.5784
 -40196015.62947 -31278500.50444  22990639.6644                   22990640.2274
 -53224084.90248 -41429223.15647  20753609.6644                   20753606.3014
 11  8 16  0 10 30.0000000  0  7G10G17G12G05G04G09G02
 -43155152.33248 -33587603.99646  21113691.4224                   21113690.7504
 -92874655.80547 -72324832.25045  22710947.6954                   22710945.7464
 -26892882.83648 -20783778.00445  22150050.3594                   22150047.9494
 -16044311.46547 -12461168.19145  23034344.9534                   23034345.2424
 -72851764.46548 -56720748.68746  20993284.7344                   20993283.3594
 -40229541.37547 -31304624.52044  22984260.1564                   22984260.6914
 -53341048.71148 -41520363.77347  20731352.5004                   20731348.6214
 11  8 16  0 11  0.0000000  0  7G10G17G12G05G04G09G02
 -43287625.55548 -33690829.86346  21088482.7814                   21088481.7194
 -92927643.10547 -72366121.09045  22700864.8914                   22700862.9344
 -27070315.79348 -20922037.41846  22116285.4694                   22116283.4144
 -16245457.94547 -12617905.56245  22996067.2274                   22996067.6524
 -72884605.98048 -56746339.49646  20987035.3134                   20987034.0514
 -40262647.60247 -31330421.61745  22977960.2034                   22977960.6994
 -53457593.90648 -41611178.18446  20709174.5634                   20709170.8134
 11  8 16  0 11 30.0000000  0  7G10G17G12G05G04G09G02
 -43419449.29748 -33793549.62146  21063397.4774                   21063396.2624
 -92980430.47347 -72407254.12945  22690819.2034                   22690818.1214
 -27247372.02348 -21060003.28146  22082592.9454                   22082591.2814
 -16446385.72747 -12774472.51245  22957831.9304                   22957832.4574
 -72917115.27348 -56771671.42646  20980849.0784                   20980847.5944
 -40295338.44547 -31355895.06645  22971739.2114                   22971739.8674
 -53573721.88348 -41701667.50046  20687076.1174                   20687072.2194
 11  8 16  0 12  0.0000000  0  7G10G17G12G05G04G09G02
 -43550618.77048 -33895759.57846  21038436.4144                   21038435.4774
 -93033014.37947 -72448228.62945  22680813.3674                   22680811.1914
 -27424046.18748 -21197671.43446  22048972.5864                   22048970.8094
 -16647089.16047 -12930864.64145  22919639.5234                   22919639.8244
 -72949291.93048 -56796744.15246  20974726.0084                   20974724.6414
 -40327614.35547 -31381045.16844  22965597.9924                   22965598.6024
 -53689430.45748 -41791830.00846  20665057.5234                   20665053.8524
 11  8 16  0 12 30.0000000  0  7G10G17G12G05G04G09G02
 -43681134.91848 -33997460.43746  21013600.2114                   21013599.2894
 -93085397.30547 -72489046.53945  22670845.1564                   22670843.6334
 -27600338.28148 -21335041.86346  22015425.3674                   22015423.7544
 -16847568.09047 -13087081.84845  22881489.2814                   22881489.6134
 -72981141.37148 -56821561.91046  20968665.4454                   20968663.9064
 -40359481.84447 -31405877.03944  22959533.3524                   22959534.6174
 -53804723.52348 -41881668.74246  20643118.0394                   20643114.1254
 11  8 16  0 13  0.0000000  0  7G10G17G12G05G04G09G02
 -43810998.96548 -34098653.16846  20988888.2424                   20988887.3954
 -93137581.25047 -72529709.38345  22660914.8984                   22660913.2854
 -27776248.71547 -21472114.90246  21981951.1414                   21981949.2624
 -17047821.90247 -13243123.64845  22843382.5554                   22843382.7774
 -73012668.04748 -56846128.16446  20962666.1414                   20962664.3954
 -40390946.34447 -31430394.89144  22953545.4614                   22953546.7934
 -53919604.30548 -41971186.21946  20621256.9534                   20621252.9964
 11  8 16  0 13 30.0000000  0  7G10G17G12G05G04G09G02
 -43940202.84848 -34199331.48846  20964301.3444                   20964300.0234
 -93189559.19947 -72570211.71545  22651023.8594                   22651022.1684
 -27951768.65247 -21608883.66446  21948550.8204                   21948548.6724
 -17247841.48047 -13398982.92245  22805319.6724                   22805320.2504
 -73043868.65248 -56870440.33246  20956728.4694                   20956727.3134
 -40422005.21947 -31454596.68045  22947635.9774                   22947636.0984
 -54034067.50848 -42060378.30546  20599475.3134                   20599471.2774
 11  8 16  0 14  0.0000000  0  7G10G17G12G05G04G09G02
 -44068752.27348 -34299499.84446  20939839.1484                   20939837.8324
 -93241337.98847 -72610558.85945  22641169.9534                   22641169.6334
 -28126902.60947 -21745351.64846  21915223.7194                   21915222.0044
 -17447631.05547 -13554662.96945  22767301.1724                   22767301.2344
 -73074752.26648 -56894505.50046  20950851.4844                   20950850.2194
 -40452669.04347 -31478490.64144  22941800.7504                   22941800.9414
 -54148121.16448 -42149251.27046  20577771.5864                   20577767.6334
 11  8 16  0 14 30.0000000  0  7G10G17G12G05G04G09G02
 -44196641.18448 -34399153.50446  20915502.9534                   20915501.7274
 -93292912.65647 -72650746.91845  22631356.6414                   22631354.9964
 -28301643.87947 -21881513.65246  21881971.4144                   21881968.9964
 -17647183.17247 -13710157.97745  22729327.8834                   22729327.8164
 -73105317.19548 -56918322.34846  20945035.3674                   20945034.2304
 -40482936.92647 -31502076.05944  22936041.3204                   22936041.5744
 -54261761.66848 -42237802.29346  20556146.6564                   20556142.5164
 11  8 16  0 15  0.0000000  0  7G10G17G12G05G04G09G02
 -44323868.35248 -34498291.53146  20891291.9384                   20891290.9654
 -93344282.82047 -72690775.64845  22621580.8444                   22621579.6214
 -28475990.04348 -22017367.78546  21848794.5234                   21848792.4224
 -17846495.50047 -13865466.14845  22691399.5554                   22691399.6914
 -73135565.99648 -56941892.85546  20939279.0784                   20939278.1994
 -40512812.36347 -31525355.69144  22930355.7194                   22930356.5984
 -54374990.28948 -42326032.37147  20534599.6174                   20534595.9884
 11  8 16  0 15 30.0000000  0  7G10G17G12G05G04G09G02
 -44450434.62148 -34596914.56246  20867207.2664                   20867206.4844
 -93395450.67647 -72730646.72345  22611843.9304                   22611842.5744
 -28649941.41848 -22152914.28946  21815692.7034                   21815690.7814
 -18045567.51247 -14020587.06645  22653516.7114                   22653517.0274
 -73165503.61748 -56965220.89146  20933582.3834                   20933580.6254
 -40542301.60547 -31548334.39844  22924744.6644                   22924744.9774
 -54487810.46148 -42413944.18046  20513130.5784                   20513126.7234
 11  8 16  0 16  0.0000000  0  7G10G17G12G05G04G09G02
 -43000914.73048 -33467418.52346  21143041.8834                   21143040.3834
 -91870994.11747 -71542758.51645  22901938.4384                   22901937.2194
 -27248069.58248 -21060546.60246  22082460.2974                   22082458.0784
 -16668970.19147 -12947913.68745  22915474.8674                   22915475.1914
 -71619711.63748 -55760707.66846  21227736.6564                   21227735.5274
 -38995987.07047 -30343414.07444  23218997.9924                   23218998.8834
 -53024799.42248 -41273935.55946  20791532.6884                   20791528.9804
 11  8 16  0 16 30.0000000  0  7G10G17G12G05G04G09G02
 -43126151.59848 -33565005.65646  21119210.0944                   21119208.5864
 -91921752.08647 -71582310.20345  22892279.2504                   22892278.2464
 -27421219.73048 -21195468.77346  22049510.8444                   22049508.5274
 -16867549.67247 -13102650.83245  22877686.4774                   22877686.2504
 -71649030.35548 -55783553.43746  21222157.5634                   21222156.5784
 -39024709.95347 -30365795.60544  23213532.7814                   23213533.0984
 -53136801.50448 -41361209.89146  20770219.5944                   20770215.2814
 11  8 16  0 17  0.0000000  0  7G10G17G12G05G04G09G02
 -43250725.04748 -33662075.85546  21095504.2114                   21095502.9734
 -91972307.71947 -71621704.20345  22882659.4384                   22882657.7274
 -27593969.05548 -21330078.62146  22016637.4844                   22016635.4844
 -17065881.78147 -13257195.20345  22839944.6564                   22839945.1294
 -71678046.52048 -55806163.44146  21216636.0084                   21216635.0554
 -39053058.25047 -30387885.27744  23208137.8594                   23208138.7774
 -53248399.47748 -41448169.33646  20748982.8364                   20748979.1254
 11  8 16  0 17 30.0000000  0  7G10G17G12G05G04G09G02
 -43374633.25448 -33758627.67646  21071925.3834                   21071924.1134
 -92022659.87147 -71660939.68445  22873077.9064                   22873076.6844
 -27766314.49648 -21464373.74646  21983841.2344                   21983839.1214
 -17263963.01247 -13411544.08245  22802250.8834                   22802251.0634
 -71706762.19548 -55828539.30146  21211171.6094                   21211170.3914
 -39081034.91447 -30409685.35244  23202814.6024                   23202814.9494
 -53359593.75848 -41534814.21147  20727823.1024                   20727819.4654
 11  8 16  0 18  0.0000000  0  7G10G17G12G05G04G09G02
 -43497868.27348 -33854654.93746  21048474.5084                   21048473.3324
 -92072801.84847 -71700011.36745  22863535.2584                   22863534.8244
 -27938246.97748 -21598347.08246  21951123.4304                   21951121.2034
 -17461784.36347 -13565690.46545  22764606.8364                   22764606.8054
 -71735173.19148 -55850677.76246  21205765.2734                   21205764.1054
 -39108637.22347 -30431193.71544  23197561.6174                   23197562.6684
 -53470378.67648 -41621140.10247  20706741.4454                   20706737.5664
 11  8 16  0 18 30.0000000  0  7G10G17G12G05G04G09G02
 -43620434.71948 -33950161.23046  21025151.0394                   21025149.5664
 -92122738.77747 -71738923.26645  22854033.1954                   22854031.6334
 -28109770.44947 -21732001.71146  21918483.8914                   21918481.5704
 -17659348.37147 -13719636.32445  22727011.8754                   22727011.5274
 -71763287.42648 -55872584.96946  21200415.2114                   21200413.8874
 -39135874.03947 -30452417.27344  23192378.8984                   23192379.4454
 -53580761.34848 -41707152.55146  20685736.4144                   20685732.4924
 11  8 16  0 19  0.0000000  0  7G10G17G12G05G04G09G02
 -43742325.93748 -34045141.37946  21001955.8524                   21001954.2814
 -92172465.04747 -71777671.03145  22844570.6564                   22844569.6054
 -28280876.66048 -21865331.19546  21885923.6954                   21885921.2034
 -17856646.98047 -13873375.37945  22689466.5314                   22689466.7154
 -71791102.29348 -55894258.90246  21195122.2664                   21195120.8914
 -39162743.85247 -30473354.85544  23187265.6334                   23187266.8054
 -53690737.23048 -41792848.02346  20664808.7194                   20664804.7074
 11  8 16  0 19 30.0000000  0  7G10G17G12G05G04G09G02
 -43863540.56648 -34139594.31246  20978889.5944                   20978887.9304
 -92221979.92247 -71816254.06645  22835148.6414                   22835146.6454
 -28451562.82848 -21998333.37146  21853442.8134                   21853440.5234
 -18053677.05147 -14026905.18045  22651972.9694                   22651973.4534
 -71818619.94148 -55915701.23846  21189885.9064                   21189885.1764
 -39189249.93047 -30494009.01644  23182221.9064                   23182222.5594
 -53800307.40648 -41878227.35546  20643958.1884                   20643954.0634
 11  8 16  0 20  0.0000000  0  7G10G17G12G05G04G09G02
 -43984080.12148 -34233521.21546  20955951.7344                   20955950.1644
 -92271285.74247 -71854674.20345  22825765.6024                   22825764.7894
 -28621830.05548 -22131009.10546  21821042.1644                   21821039.9184
 -18250439.13747 -14180226.15645  22614530.9144                   22614530.0474
 -71845845.69148 -55936916.11746  21184704.7814                   21184703.6334
 -39215398.75847 -30514384.79344  23177245.9694                   23177246.6644
 -53909475.11748 -41963293.07446  20623184.2504                   20623180.2974
 11  8 16  0 20 30.0000000  0  7G10G17G12G05G04G09G02
 -44103939.82048 -34326918.36346  20933143.0474                   20933141.9964
 -92320378.13347 -71892928.04345  22816423.4144                   22816422.7544
 -28791671.89848 -22263353.36346  21788722.0944                   21788719.9694
 -18446926.29347 -14333332.92245  22577140.5084                   22577140.3204
 -71872778.29348 -55957902.56646  21179579.7814                   21179578.7114
 -39241190.14147 -30534482.03544  23172338.2424                   23172338.6454
 -54018238.34848 -42048043.62946  20602487.3134                   20602483.2704
 11  8 16  0 21  0.0000000  0  7G10G17G12G05G04G09G02
 -44223121.71948 -34419787.35246  20910463.3984                   20910461.9454
 -92369260.24647 -71931018.04745  22807122.1564                   22807120.8914
 -28961089.18447 -22395366.80146  21756483.2424                   21756480.7584
 -18643139.00847 -14486225.82045  22539802.3364                   22539802.1214
 -71899423.22748 -55978664.85946  21174509.2034                   21174508.4614
 -39266630.70347 -30554305.92644  23167497.0004                   23167498.1134
 -54126601.28548 -42132482.26246  20581866.6094                   20581862.6054
 11  8 16  0 21 30.0000000  0  7G10G17G12G05G04G09G02
 -44341624.98848 -34512127.53546  20887913.0554                   20887911.7584
 -92417932.05947 -71968944.15645  22797859.9924                   22797858.9574
 -29130079.95348 -22527047.88746  21724325.3984                   21724323.2464
 -18839074.13347 -14638902.42245  22502516.8134                   22502515.9224
 -71925783.22748 -55999205.12146  21169493.1884                   21169492.0944
 -39291724.16447 -30573859.34844  23162722.1334                   23162723.1294
 -54234565.09848 -42216609.89546  20561321.5554                   20561317.4494
 11  8 16  0 22  0.0000000  0  7G10G17G12G05G04G09G02
 -44459447.39848 -34603937.18746  20865492.1174                   20865490.6484
 -92466391.41047 -72006704.71145  22788637.7584                   22788637.4614
 -29298640.54348 -22658393.77046  21692249.2034                   21692246.8954
 -19034728.53147 -14791360.27745  22465284.6414                   22465284.8794
 -71951859.55948 -56019524.35946  21164531.3524                   21164529.6604
 -39316473.17647 -30593144.34844  23158012.4694                   23158013.7464
 -54342129.85548 -42300426.56646  20540852.4614                   20540848.8054
 11  8 16  0 22 30.0000000  0  7G10G17G12G05G04G09G02
 -44576586.89548 -34695214.69946  20843201.6484                   20843199.9574
 -92514636.61347 -72044298.40645  22779457.5004                   22779456.9454
 -29466767.14847 -22789401.47746  21660255.8204                   21660253.5704
 -19230097.66847 -14943595.85245  22428107.6414                   22428107.1684
 -71977653.18748 -56039623.30146  21159622.6804                   21159621.6214
 -39340879.78946 -30612162.55544  23153367.6884                   23153368.8594
 -54449295.24648 -42383932.05146  20520459.7814                   20520455.5554
 11  8 16  0 23  0.0000000  0  8G10G25G17G12G05G04G09G02
 -44693040.39148 -34785957.65246  20821040.9384                   20821039.2624
   2856716.38356   2350029.95753  24514955.1174                   24514957.2584
 -92562665.89147 -72081723.85245  22770317.9384                   22770317.0084
 -29634455.61347 -22920067.77746  21628345.5704                   21628343.1804
 -19425176.80947 -15095605.44545  22390984.6174                   22390984.9494
 -72003164.57448 -56059502.30546  21154767.8754                   21154766.8714
 -39364945.81247 -30630915.36344  23148788.5474                   23148789.2934
 -54556060.36348 -42467125.62147  20500142.9064                   20500139.3134
 11  8 16  0 23 30.0000000  0  8G10G25G17G12G05G04G09G02
 -44808811.80548 -34876169.12546  20799010.3284                   20799008.4344
   2656380.96546   2193924.50843  24476832.5234                   24476834.8094
 -92610483.53547 -72118984.39845  22761218.6644                   22761217.3984
 -29801708.50448 -23050394.67246  21596518.5004                   21596516.3404
 -19619968.55147 -15247391.09445  22353916.7274                   22353916.7704
 -72028401.07448 -56079167.13346  21149965.6564                   21149964.2854
 -39388679.65247 -30649409.32044  23144271.9924                   23144273.1214
 -54662431.29748 -42550012.05147  20479901.3834                   20479897.8404
 11  8 16  0 24  0.0000000  0  8G10G25G17G12G05G04G09G02
 -43348482.46548 -33738250.13346  21076901.7114                   21076900.7384
   4031643.90646   3265558.05143  24738536.1174                   24738538.8324
 -91082673.56647 -70928483.16045  23051950.9924                   23051950.7194
 -28393104.31648 -21952780.99246  21864566.6024                   21864564.6254
 -18239049.67647 -14171350.28945  22616696.8364                   22616696.9734
 -70477950.85548 -54871024.10546  21445006.2584                   21445004.9654
 -37836670.56246 -29440051.64844  23439609.6094                   23439610.1604
 -53192992.05548 -41404994.43746  20759526.1174                   20759522.2664
 11  8 16  0 24 30.0000000  0  8G10G25G17G12G05G04G09G02
 -43462900.21148 -33827406.79746  21055128.7274                   21055127.1524
   3831653.57446   3109721.46543  24700478.9614                   24700481.4924
 -91130079.93047 -70965423.20345  23042930.0474                   23042929.2974
 -28559492.53548 -22082434.12546  21832904.6174                   21832901.9734
 -18433270.69947 -14322691.21945  22579738.1484                   22579737.7544
 -70502658.56648 -54890276.88346  21440304.7734                   21440303.8364
 -37859764.27747 -29458046.81644  23435214.4614                   23435216.2974
 -53298591.55148 -41487279.73846  20739431.2664                   20739427.5474
 11  8 16  0 25  0.0000000  0  8G10G25G17G12G05G04G09G02
 -43576640.89548 -33916035.87146  21033484.7274                   21033483.2974
   3631838.30146   2954021.32843  24662455.6334                   24662458.4264
 -91177280.69947 -71002203.06244  23033948.1024                   23033947.1994
 -28725446.08247 -22211748.53946  21801324.1804                   21801321.9494
 -18627203.19947 -14473807.34045  22542834.1414                   22542833.6484
 -70527106.35948 -54909327.13346  21435652.9694                   21435651.3054
 -37882544.49247 -29475797.70344  23430880.0394                   23430880.9144
 -53403808.15648 -41569266.68746  20719408.9844                   20719405.3094
 11  8 16  0 25 30.0000000  0  8G10G25G17G12G05G04G09G02
 -43689697.82048 -34004132.14846  21011970.4694                   21011968.8954
   3432206.09446   2798463.78543  24624466.8364                   24624469.0124
 -91224270.13347 -71038818.23045  23025006.4614                   23025006.3284
 -28890956.80548 -22340717.91846  21769828.8364                   21769826.3524
 -18820838.87547 -14624692.16845  22505985.7664                   22505985.9574
 -70551290.79348 -54928172.16446  21431050.3594                   21431049.1644
 -37905008.54747 -29493302.22744  23426605.5864                   23426606.6914
 -53508637.23048 -41650951.66446  20699461.0704                   20699457.0274
 11  8 16  0 26  0.0000000  0  8G10G25G17G12G05G04G09G02
 -43802069.80148 -34091694.71546  20990586.7894                   20990585.6134
   3232759.43046   2643050.87143  24586513.5394                   24586515.4024
 -91271047.65247 -71075268.29344  23016104.8284                   23016104.6844
 -29056022.03548 -22469340.15246  21738417.9224                   21738415.8324
 -19014174.51247 -14775343.19945  22469195.7344                   22469195.1414
 -70575214.24648 -54946813.83246  21426497.9614                   21426496.8054
 -37927160.36347 -29510563.43744  23422390.3284                   23422391.3134
 -53613079.67248 -41732335.37146  20679586.3754                   20679582.0784
 11  8 16  0 26 30.0000000  0  8G10G25G17G12G05G04G09G02
 -43913754.60548 -34178721.80546  20969333.7504                   20969332.5394
   3033502.39846   2487785.71944  24548595.7274                   24548598.9964
 -91317611.14847 -71111551.55945  23007243.9774                   23007242.2424
 -29220637.74248 -22597612.10946  21707092.2734                   21707090.0984
 -19207205.93447 -14925757.18045  22432462.8754                   22432462.6954
 -70598877.10948 -54965252.44146  21421995.1644                   21421993.8674
 -37949001.65247 -29527582.68044  23418234.3524                   23418235.1644
 -53717134.73448 -41813417.22346  20659785.1414                   20659781.3714
 11  8 16  0 27  0.0000000  0  8G10G25G17G12G05G04G09G02
 -44024751.90248 -34265213.18446  20948211.7274                   20948210.1884
   2834436.85946   2332669.78144  24510715.4064                   24510717.3364
 -91363960.41047 -71147667.90244  22998424.4454                   22998422.3674
 -29384802.19948 -22725532.44146  21675852.7344                   21675850.8594
 -19399930.48847 -15075932.04745  22395788.4144                   22395788.2114
 -70622282.41047 -54983490.35546  21417541.2194                   21417540.2274
 -37970536.44546 -29544363.12944  23414136.3444                   23414137.3984
 -53820804.44548 -41894198.80146  20640057.3444                   20640053.6024
 11  8 16  0 27 30.0000000  0  8G10G25G17G12G05G04G09G02
 -44135055.46548 -34351163.98846  20927221.8134                   20927220.2074
   2635570.52046   2177709.04344  24472872.5554                   24472874.3364
 -91410089.90647 -71183613.00045  22989646.3444                   22989644.5944
 -29548507.89548 -22853095.29346  21644701.0164                   21644698.7114
 -19592339.81247 -15225861.28145  22359173.7034                   22359172.9304
 -70645426.79748 -55001524.96545  21413136.8674                   21413135.8324
 -37991762.93047 -29560903.28944  23410096.6644                   23410097.6804
 -53924084.16848 -41974676.50046  20620403.6254                   20620399.8364
 11  8 16  0 28  0.0000000  0  8G10G25G17G12G05G04G09G02
 -44244670.53548 -34436578.30946  20906362.6024                   20906361.2464
   2436900.05147   2022900.94944  24435066.4844                   24435068.5204
 -91456004.87547 -71219390.91044  22980909.0394                   22980907.2854
 -29711758.14548 -22980303.25846  21613635.4454                   21613632.9844
 -19784437.22347 -15375547.47345  22322619.0394                   22322618.4534
 -70668318.48848 -55019362.66046  21408780.8834                   21408779.9924
 -38012690.21947 -29577210.35544  23406114.6334                   23406115.6884
 -54026981.17248 -42054855.96546  20600823.1954                   20600819.6174
 11  8 16  0 28 30.0000000  0  8G10G25G17G12G05G04G09G02
 -44353595.40248 -34521454.80146  20885634.9614                   20885633.3794
   2238428.56647   1868247.92244  24397298.6094                   24397300.7854
 -91501703.63747 -71255000.36345  22972212.9924                   22972211.7114
 -29874549.39548 -23107153.55946  21582656.9844                   21582654.8164
 -19976218.83647 -15524987.58645  22286123.9924                   22286123.5274
 -70690958.94148 -55037004.59446  21404472.8984                   21404471.1414
 -38033321.12546 -29593286.43444  23402188.8674                   23402189.7854
 -54129495.61348 -42134737.34046  20581315.3204                   20581311.3094
 11  8 16  0 29  0.0000000  0  8G10G25G17G12G05G04G09G02
 -44461828.38748 -34605792.17246  20865038.9454                   20865037.2544
   2040159.38747   1713752.51644  24359569.0004                   24359571.3714
 -91547185.21947 -71290440.55945  22963557.3134                   22963556.4774
 -30036878.75048 -23233643.94146  21551766.7584                   21551764.4104
 -20167681.12547 -15674178.87545  22249690.0004                   22249689.1054
 -70713349.60948 -55054451.87146  21400211.7034                   21400210.7304
 -38053658.56647 -29609133.85244  23398319.3364                   23398320.0704
 -54231627.52748 -42214320.63746  20561880.2584                   20561877.0044
 11  8 16  0 29 30.0000000  0  8G10G25G17G12G05G04G09G02
 -44569368.70348 -34689589.80146  20844574.6724                   20844573.0664
   1842094.82447   1559416.57844  24321878.6254                   24321880.9024
 -91592449.28947 -71325711.30545  22954943.9774                   22954943.3284
 -30198743.87148 -23359772.57846  21520964.6804                   21520962.6254
 -20358821.09047 -15823118.98845  22213317.2194                   22213316.8014
 -70735492.77748 -55071706.31246  21395997.8914                   21395996.9574
 -38073706.11347 -29624755.38744  23394503.8594                   23394505.1684
 -54333378.42648 -42293607.03546  20542517.7034                   20542514.0824
 11  8 16  0 30  0.0000000  0  8G10G25G17G12G05G04G09G02
 -44676209.93748 -34772842.68746  20824243.2504                   20824241.6954
   1644243.10247   1405246.49244  24284228.5704                   24284230.8284
 -91637489.46947 -71360807.56645  22946373.5784                   22946372.8204
 -30360136.89848 -23485533.35546  21490252.7274                   21490250.2854
 -20549630.14147 -15971801.27346  22177007.4844                   22177006.7704
 -70757384.90248 -55088765.12945  21391832.2344                   21391831.4344
 -38093461.36347 -29640149.15644  23390745.0784                   23390746.2234
 -54434743.60248 -42372592.87146  20523228.7114                   20523225.1414
 11  8 16  0 30 30.0000000  0  8G10G25G17G12G05G04G09G02
 -44782358.29748 -34855555.66446  20804043.8984                   20804042.1604
   1446600.09846   1251239.02344  24246618.3594                   24246620.4804
 -91682311.77047 -71395734.04745  22937844.3834                   22937843.3244
 -30521062.12548 -23610929.60246  21459629.5084                   21459627.0864
 -20740112.02347 -16120228.60945  22140759.7424                   22140759.5314
 -70779034.75048 -55105635.15645  21387712.7194                   21387711.7234
 -38112934.30946 -29655322.93744  23387038.7734                   23387040.2934
 -54535730.47348 -42451283.93046  20504011.4304                   20504007.7704
 11  8 16  0 31  0.0000000  0  8G10G25G17G12G05G04G09G02
 -44887809.86748 -34937725.69546  20783977.2034                   20783976.0594
   1249171.47746   1097398.59043  24209048.6484                   24209049.9964
 -91726912.58647 -71430487.92245  22929357.1024                   22929356.0944
 -30681513.64148 -23735956.73046  21429096.6484                   21429094.5904
 -20930260.83247 -16268396.40245  22104575.3524                   22104574.8834
 -70800441.28148 -55122315.58246  21383638.8914                   21383637.9694
 -38132125.32447 -29670277.05144  23383387.1564                   23383388.3874
 -54636337.18448 -42529678.75447  20484866.4694                   20484862.9614
 11  8 16  0 31 30.0000000  0  8G10G25G17G12G05G04G09G02
 -44992566.52348 -35019354.24246  20764042.9384                   20764040.9184
   1051957.28546    943725.23843  24171519.8524                   24171522.2114
 -91771294.08247 -71465070.92245  22920910.8524                   22920909.5044
 -30841491.48048 -23860614.75846  21398653.9384                   21398651.8984
 -21120075.98447 -16416304.22345  22068454.6254                   22068454.1884
 -70821609.10248 -55138810.00445  21379611.0084                   21379610.2034
 -38151040.30147 -29685016.07444  23379788.2734                   23379788.9774
 -54736567.18448 -42607780.03946  20465793.6644                   20465789.7774
 11  8 16  0 32  0.0000000  0  8G10G25G17G12G05G04G09G02
 -43521204.80148 -33872838.59846  21044033.3444                   21044031.8164
   2430385.87546   2017825.46943  24433826.2424                   24433827.7504
 -90240034.71547 -70271881.83645  23212300.8364                   23212298.9844
 -29425568.59848 -22757298.19546  21668094.8054                   21668092.7234
 -19734129.06247 -15336345.46946  22332192.0704                   22332191.4574
 -69267120.48048 -53927520.19145  21675420.2274                   21675418.8914
 -36594262.81646 -28471942.75044  23676032.9304                   23676033.9494
 -53260998.87148 -41457986.53147  20746584.5314                   20746580.8524
 11  8 16  0 32 30.0000000  0  8G10G25G17G12G05G04G09G02
 -43624570.93748 -33953383.61746  21024363.2894                   21024361.9774
   2233606.85546   1864491.24643  24396380.7814                   24396381.5824
 -90283976.53947 -70306122.23845  23203938.8364                   23203937.1454
 -29584593.41848 -22881213.60946  21637833.3984                   21637831.4344
 -19923269.35547 -15483727.41045  22296199.4384                   22296198.9144
 -69287818.57448 -53943648.59845  21671481.4614                   21671480.1724
 -36612637.43747 -28486260.71544  23672536.5784                   23672537.6524
 -53360480.10248 -41535504.34846  20727654.1254                   20727650.0314
 11  8 16  0 33  0.0000000  0  8G10G25G17G12G05G04G09G02
 -43727239.39848 -34033385.00046  21004826.4384                   21004824.9064
   2037050.81646   1711330.72343  24358977.0474                   24358978.6884
 -90327696.38747 -70340189.67645  23195618.8524                   23195617.9344
 -29743136.44548 -23004753.60246  21607663.7664                   21607661.8794
 -20112066.62547 -15630842.05545  22260271.8984                   22260271.5274
 -69308283.50448 -53959595.30945  21667586.8674                   21667586.3444
 -36630745.64847 -28500371.08244  23669090.8524                   23669091.8054
 -53459587.16848 -41612730.62546  20708794.7424                   20708790.9494
 11  8 16  0 33 30.0000000  0  8G10G25G17G12G05G04G09G02
 -43829210.37948 -34112842.89146  20985422.0084                   20985420.4264
   1840719.25446   1558345.14543  24321617.0474                   24321617.7464
 -90371194.60547 -70374084.42645  23187341.6804                   23187340.7384
 -29901196.40648 -23127917.18046  21577585.8834                   21577583.9884
 -20300518.55147 -15777687.61346  22224410.9064                   22224410.7734
 -69328518.15248 -53975362.59045  21663736.5704                   21663735.6484
 -36648591.48047 -28514276.99644  23665694.6804                   23665695.9414
 -53558321.87948 -41689666.73446  20690005.6334                   20690002.3954
 11  8 16  0 34  0.0000000  0  8G10G25G17G12G05G04G09G02
 -43930482.49648 -34191756.20746  20966150.4224                   20966149.3594
   1644615.86346   1405537.38343  24284299.2894                   24284300.6414
 -90414469.65647 -70407805.26244  23179106.8754                   23179105.6334
 -30058770.11748 -23250701.86746  21547600.6334                   21547598.6604
 -20488621.13347 -15924260.94146  22188616.0784                   22188615.4574
 -69348523.53148 -53990951.21545  21659930.0164                   21659928.5904
 -36666177.41047 -28527980.39844  23662347.8594                   23662349.0204
 -53656684.21948 -41766312.69546  20671288.3204                   20671284.2974
 11  8 16  0 34 30.0000000  0  8G10G25G17G12G05G04G09G02
 -44031056.05947 -34270125.20346  20947011.7814                   20947010.4614
   1448742.35546   1252908.74244  24247025.5164                   24247027.6254
 -90457521.51247 -70441352.18045  23170913.9384                   23170913.2154
 -30215855.89848 -23373106.34446  21517708.2114                   21517706.2114
 -20676372.57447 -16070560.67246  22152888.2194                   22152887.7274
 -69368302.80948 -54006363.66045  21656166.2504                   21656164.9964
 -36683508.01647 -28541484.84844  23659050.4064                   23659051.4024
 -53754675.96948 -41842669.89147  20652641.2194                   20652637.2234
 11  8 16  0 35  0.0000000  0  8G10G25G17G12G05G04G09G02
 -44130933.29348 -34347951.59846  20928005.8054                   20928004.1134
   1253098.65247   1100459.16444  24209795.4844                   24209797.5704
 -90500352.44547 -70474726.95744  23162763.5864                   23162762.3404
 -30372454.25847 -23495131.02046  21487908.7034                   21487906.3524
 -20863772.53147 -16216586.50846  22117226.8914                   22117226.4964
 -69387860.28548 -54021603.27345  21652444.2194                   21652443.0164
 -36700589.02047 -28554794.77344  23655799.4924                   23655800.8324
 -53852301.27048 -41918741.53146  20634063.5784                   20634059.7344
 11  8 16  0 35 30.0000000  0  8G10G25G17G12G05G04G09G02
 -44230112.33647 -34425233.94546  20909132.9304                   20909131.0124
   1057688.55947    948191.64544  24172610.3984                   24172612.1094
 -90542960.93747 -70507928.40645  23154655.4304                   23154654.4104
 -30528561.37948 -23616772.91846  21458202.5084                   21458200.1024
 -21050816.97347 -16362335.31646  22081633.4534                   22081633.2584
 -69407197.18448 -54036671.01245  21648764.6724                   21648763.8954
 -36717422.66047 -28567911.96544  23652596.5864                   23652598.3914
 -53949559.98048 -41994527.52346  20615556.0704                   20615551.7734
 11  8 16  0 36  0.0000000  0  8G10G25G17G12G05G04G09G02
 -44328593.86748 -34501972.78546  20890392.7584                   20890390.7074
    862513.67247    796107.40244  24135469.5554                   24135471.9614
 -90585347.08247 -70540956.59044  23146589.5474                   23146588.6644
 -30684175.69948 -23738030.82046  21428589.8754                   21428587.6684
 -21237503.69147 -16507805.39546  22046108.3444                   22046107.5354
 -69426316.37948 -54051569.10545  21645126.4694                   21645125.0274
 -36734013.58647 -28580840.03544  23649438.9454                   23649440.9614
 -54046453.94548 -42070029.28947  20597117.6954                   20597113.4654
 11  8 16  0 36 30.0000000  0  8G10G25G17G12G05G04G09G02
 -44426379.37148 -34578169.25046  20871784.2734                   20871782.4104
    667574.97347    644207.18844  24098374.1334                   24098376.0904
 -90627512.10947 -70573812.48844  23138566.0554                   23138564.9654
 -30839296.66448 -23858904.28946  21399071.3984                   21399069.3404
 -21423831.71547 -16652995.96546  22010651.2194                   22010650.4884
 -69445221.58248 -54066300.45745  21641528.8594                   21641527.7934
 -36750366.73047 -28593582.84044  23646327.7194                   23646328.6724
 -54142985.82448 -42145248.91847  20578747.7974                   20578744.2384
 11  8 16  0 37  0.0000000  0  8G10G25G17G12G05G04G09G02
 -44523468.46148 -34653823.05946  20853309.0164                   20853307.3444
    472874.78947    492492.85544  24061324.2274                   24061325.6334
 -90669455.87947 -70606495.95344  23130583.8754                   23130583.6884
 -30993922.42647 -23979391.88346  21369647.1724                   21369644.8834
 -21609798.21547 -16797904.83246  21975263.4774                   21975262.1134
 -69463915.03148 -54080866.79345  21637971.5164                   21637970.4454
 -36766485.56247 -28606143.05144  23643260.7584                   23643262.0784
 -54239157.11748 -42220187.57846  20560447.3444                   20560443.2624
 11  8 16  0 37 30.0000000  0  8G10G25G17G12G05G04G09G02
 -44619861.51648 -34728934.50446  20834965.6954                   20834964.2384
    278415.11747    340965.91044  24024319.5554                   24024321.4344
 -90711178.31647 -70639006.96944  23122644.7814                   23122643.7114
 -31148051.13748 -24099492.15646  21340317.3444                   21340315.1644
 -21795400.93447 -16942530.23846  21939943.4694                   21939942.9844
 -69482399.39548 -54095270.21145  21634454.2344                   21634453.0044
 -36782374.28147 -28618523.96944  23640237.6174                   23640238.4144
 -54334969.42648 -42294846.50446  20542214.9614                   20542210.8134
 11  8 16  0 38  0.0000000  0  8G10G25G17G12G05G04G09G02
 -44715557.85948 -34803503.05146  20816755.4224                   20816754.2234
     84198.89547    189628.65244  23987361.4304                   23987363.0004
 -90752678.16447 -70671344.53944  23114747.7664                   23114745.8754
 -31301680.02747 -24219202.97346  21311082.6414                   21311080.5234
 -21980636.47347 -17086869.53146  21904694.6804                   21904694.1954
 -69500676.38348 -54109512.03545  21630976.3134                   21630975.1294
 -36798035.86747 -28630727.84443  23637256.5234                   23637257.4924
 -54430423.29748 -42369226.12946  20524050.3444                   20524046.6134
 11  8 16  0 38 30.0000000  0  8G10G25G17G12G05G04G09G02
 -44810561.55148 -34877531.86346  20798676.5314                   20798674.9924
   -109775.57447     38479.77044  23950448.8914                   23950450.7274
 -90793959.59447 -70703511.91444  23106892.1024                   23106890.9304
 -31454811.19948 -24338525.95346  21281942.6024                   21281940.5554
 -22165506.64147 -17230924.11346  21869515.0474                   21869514.0984
 -69518752.07448 -54123597.00445  21627536.5554                   21627535.8594
 -36813478.25847 -28642760.96144  23634318.5944                   23634319.9534
 -54525524.66848 -42443331.09047  20505953.3134                   20505949.5904
 11  8 16  0 39  0.0000000  0  8G10G25G17G12G05G04G09G02
 -44904874.25048 -34951022.25846  20780729.6174                   20780727.6374
   -303507.48047   -112480.10544  23913583.2194                   23913585.1454
 -90835023.94947 -70735510.09845  23099078.3594                   23099076.7194
 -31607444.35547 -24457460.86346  21252897.6094                   21252895.6764
 -22350010.25047 -17374693.07846  21834405.0234                   21834404.3594
 -69536630.31648 -54137528.12945  21624134.1094                   21624132.9304
 -36828706.42646 -28654627.16044  23631420.3834                   23631421.7854
 -54620276.37148 -42517163.57446  20487922.9614                   20487918.8834
 11  8 16  0 39 30.0000000  0  8G10G25G17G12G05G04G09G02
 -44998494.50448 -35023973.08246  20762914.5944                   20762912.9614
   -496992.81647   -263247.86344  23876764.2974                   23876765.7234
 -90875869.18747 -70767337.58244  23091305.1954                   23091304.3754
 -31759575.69948 -24576004.75846  21223948.2274                   21223945.5944
 -22534143.11347 -17518173.13746  21799365.4064                   21799364.5394
 -69554311.90648 -54151306.01245  21620769.6174                   21620768.6994
 -36843722.54747 -28666328.11744  23628563.4144                   23628564.7424
 -54714678.12948 -42590723.36346  20469958.8444                   20469954.5634
 11  8 16  0 40  0.0000000  0  8G10G25G17G12G05G04G09G02
 -45091423.11748 -35096384.95746  20745230.6484                   20745228.8714
   -690230.39147   -413822.55544  23839991.9694                   23839994.0704
 -90916496.44547 -70798995.18444  23083574.2344                   23083572.9804
 -31911204.41847 -24694156.99246  21195094.1954                   21195091.8984
 -22717903.62547 -17661363.05946  21764397.0234                   21764395.9454
 -69571800.16048 -54164933.23845  21617441.6024                   21617440.8794
 -36858531.28546 -28677867.48844  23625744.9774                   23625747.3874
 -54808732.11348 -42664012.18047  20452061.0944                   20452056.7384
 11  8 16  0 40 30.0000000  0  8G10G25G17G12G05G04G09G02
 -43608234.14848 -33940653.26646  21027472.1254                   21027470.3954
    692211.93847    663405.25444  24103062.3754                   24103063.5744
 -89381480.51247 -69602878.88745  23375678.3674                   23375677.4384
 -30486900.21548 -23584309.54346  21466129.9924                   21466127.9574
 -21325859.91047 -16576653.58646  22029294.1094                   22029293.2234
 -68013673.38348 -52950808.50045  21913943.3754                   21913942.4844
 -35297712.46147 -27461645.10944  23922758.6884                   23922760.4924
 -53327013.35248 -41509426.11746  20734022.5474                   20734018.1374
 11  8 16  0 41  0.0000000  0  8G10G25G17G12G05G04G09G02
 -43699777.39547 -34011985.63746  21010052.0314                   21010050.3954
    499480.01647    513224.56644  24066386.3444                   24066388.1524
 -89421667.35247 -69634193.31644  23368030.4614                   23368030.2234
 -30637514.64147 -23701671.41446  21437469.0234                   21437466.6134
 -21508865.07847 -16719254.91846  21994469.1564                   21994468.1684
 -68030778.53548 -52964137.21145  21910688.5704                   21910687.8164
 -35312114.52347 -27472867.59844  23920018.6644                   23920020.1764
 -53420373.46548 -41582174.24246  20716256.9694                   20716252.5394
 11  8 16  0 41 30.0000000  0  8G10G25G17G12G05G04G09G02
 -43790630.27748 -34082780.05946  20992763.0234                   20992761.6454
    307002.25847    363241.91444  24029758.8984                   24029760.6334
 -89461636.17647 -69665337.86744  23360425.5084                   23360424.4614
 -30787621.22748 -23818637.56646  21408905.0554                   21408902.6994
 -21691490.81647 -16861560.60546  21959716.7194                   21959715.2664
 -68047697.46948 -52977320.81645  21907469.1564                   21907468.0784
 -35326321.05547 -27483937.73044  23917315.3134                   23917317.2154
 -53513391.09848 -41654655.51247  20698556.0864                   20698552.1334
 11  8 16  0 42  0.0000000  0  8G10G25G17G12G05G04G09G02
 -43880791.75048 -34153035.73046  20975605.9694                   20975604.4614
    114782.32046    213460.19944  23993180.5394                   23993182.5204
 -89501385.18747 -69696311.11744  23352861.4774                   23352859.5274
 -30937216.79748 -23935205.51646  21380437.6564                   21380435.1994
 -21873733.48447 -17003567.79746  21925036.9304                   21925035.7854
 -68064431.36348 -52990360.23045  21904284.4774                   21904283.3954
 -35340334.35247 -27494857.27044  23914648.5634                   23914650.6414
 -53606066.03948 -41726869.74246  20680920.4384                   20680916.5394
 11  8 16  0 42 30.0000000  0  8G10G25G17G12G05G04G09G02
 -43970262.97348 -34222753.53946  20958580.5784                   20958578.5044
    -77178.35947     63880.49244  23956652.1564                   23956653.6724
 -89540915.39547 -69727113.88745  23345338.5704                   23345338.4614
 -31086299.95348 -24051374.17646  21352068.4844                   21352065.9884
 -22055591.39547 -17145275.17646  21890430.7034                   21890429.2584
 -68080983.56248 -53003258.07045  21901134.7194                   21901133.6024
 -35354158.84847 -27505629.69944  23912017.6804                   23912019.8284
 -53698400.86348 -41798818.94146  20663349.6564                   20663345.6884
 11  8 16  0 43  0.0000000  0  8G10G25G17G12G05G04G09G02
 -44059045.89548 -34291935.02046  20941685.6414                   20941683.7894
   -268878.98847    -85496.56644  23920172.7894                   23920173.4304
 -89580227.79347 -69757746.94945  23337858.3444                   23337856.6684
 -31234870.91848 -24167143.73446  21323796.0164                   21323794.0004
 -22237063.50447 -17286681.92246  21855897.7664                   21855897.0394
 -68097357.41848 -53016016.93445  21898018.9774                   21898017.9304
 -35367799.75847 -27516259.06644  23909422.3444                   23909423.9494
 -53790398.34448 -41870505.28146  20645843.2664                   20645839.0704
 11  8 16  0 43 30.0000000  0  8G10G25G17G12G05G04G09G02
 -44147137.94548 -34360578.15646  20924922.1644                   20924920.5204
   -460314.06247   -234666.68744  23883743.3054                   23883745.2774
 -89619319.07047 -69788207.71544  23330419.6024                   23330418.3284
 -31382924.49648 -24282510.12546  21295622.3284                   21295620.1804
 -22418144.29347 -17427783.75446  21821439.0314                   21821437.6884
 -68113552.09048 -53028636.17245  21894937.4064                   21894936.0664
 -35381257.66847 -27526745.84044  23906861.6644                   23906863.0314
 -53882056.93748 -41941927.55146  20628401.0234                   20628396.7974
 11  8 16  0 44  0.0000000  0  8G10G25G17G12G05G04G09G02
 -44234543.28148 -34428686.19546  20908289.3754                   20908287.4494
   -651485.36347   -383631.29344  23847364.4924                   23847365.8714
 -89658193.21547 -69818499.25845  23323021.6884                   23323020.4224
 -31530462.80548 -24397475.01646  21267546.7664                   21267544.3244
 -22598835.49647 -17568582.01246  21787054.7274                   21787053.2814
 -68129574.01648 -53041120.81245  21891888.3984                   21891887.2664
 -35394540.29746 -27537096.01644  23904334.0944                   23904335.1644
 -53973382.26648 -42013090.13346  20611022.6174                   20611018.4534
 11  8 16  0 44 30.0000000  0  8G10G25G17G12G05G04G09G02
 -44321262.33248 -34496259.46546  20891787.3834                   20891785.7624
   -842390.36347   -532388.37544  23811036.8054                   23811038.7154
 -89696850.10547 -69848621.55544  23315665.6334                   23315664.9144
 -31677483.91848 -24512036.89846  21239569.5634                   21239567.4024
 -22779134.18447 -17709074.40246  21752744.7114                   21752743.5634
 -68145425.12548 -53053472.35245  21888872.5474                   21888870.9184
 -35407651.30547 -27547312.43744  23901838.8984                   23901841.0984
 -54064375.38348 -42083993.84846  20593707.0004                   20593703.1724
 11  8 16  0 45  0.0000000  0  8G10G25G17G12G05G04G09G02
 -44407294.59848 -34563297.57846  20875415.8364                   20875414.0664
  -1033026.16847   -680935.69544  23774760.0944                   23774761.4024
 -89735288.85547 -69878573.83244  23308350.7504                   23308349.9024
 -31823985.16448 -24626193.68446  21211691.1414                   21211688.9454
 -22959037.23447 -17849258.53146  21718510.6024                   21718509.5354
 -68161107.19148 -53065692.16445  21885888.1094                   21885886.7734
 -35420593.81647 -27557397.62944  23899376.0234                   23899378.4574
 -54155037.10248 -42154639.33246  20576454.8054                   20576450.6564
 11  8 16  0 45 30.0000000  0  8G10G25G17G12G05G04G09G02
 -44492642.87148 -34629802.72346  20859174.7274                   20859173.0664
  -1223392.29747   -829272.87944  23738534.3284                   23738536.2544
 -89773510.62947 -69908357.05944  23301076.5474                   23301076.0704
 -31969967.18448 -24739945.88346  21183911.4844                   21183909.3404
 -23138544.12547 -17989133.95346  21684351.3284                   21684349.4844
 -68176624.18748 -53077783.34045  21882935.2424                   21882934.1254
 -35433373.11747 -27567355.62144  23896944.3204                   23896946.6564
 -54245371.26248 -42225029.57046  20559264.7274                   20559260.6954
 11  8 16  0 46  0.0000000  0  8G10G25G17G12G05G04G09G02
 -44577305.06248 -34695773.24646  20843063.5314                   20843061.5634
  -1413484.14147   -977396.34044  23702361.4144                   23702362.3444
 -89811513.51247 -69937969.72344  23293845.6484                   23293844.6334
 -32115425.50448 -24853290.00846  21156231.7274                   21156229.9144
 -23317650.26647 -18128697.10246  21650268.2814                   21650267.3554
 -68191975.78948 -53089745.66045  21880013.9064                   21880012.9384
 -35445990.58647 -27577187.52344  23894543.2344                   23894545.3714
 -54335376.98848 -42295163.89846  20542137.5164                   20542133.3284
 11  8 16  0 46 30.0000000  0  8G10G25G17G12G05G04G09G02
 -44661283.16048 -34761210.71146  20827083.5474                   20827081.8554
  -1603300.70347  -1125305.28944  23666240.6414                   23666241.7234
 -89849298.84846 -69967412.83644  23286655.5084                   23286654.9734
 -32260359.55948 -24966225.61746  21128651.7504                   21128649.4494
 -23496354.48048 -18267947.05546  21616261.9694                   21616260.7074
 -68207165.87947 -53101582.11745  21877123.1334                   21877122.2974
 -35458451.63346 -27586897.51644  23892172.2034                   23892174.5704
 -54425056.79348 -42365044.24646  20525071.6254                   20525067.6484
 11  8 16  0 47  0.0000000  0  8G10G25G17G12G05G04G09G02
 -44744582.57048 -34826119.33646  20811232.0474                   20811230.3134
  -1792844.78147  -1273001.91444  23630171.4694                   23630172.6374
 -89886871.40647 -69996690.15644  23279505.7114                   23279504.9104
 -32404773.19148 -25078755.69946  21101170.8204                   21101168.2424
 -23674659.52348 -18406885.98046  21582331.6884                   21582330.1844
 -68222201.61748 -53113298.28945  21874262.3134                   21874260.7504
 -35470764.94547 -27596492.39144  23889829.0554                   23889831.2584
 -54514417.34848 -42434675.82847  20508066.9304                   20508062.5164
 11  8 16  0 47 30.0000000  0  8G10G25G17G12G05G04G09G02
 -44827203.03948 -34890498.90246  20795509.7974                   20795508.6414
  -1982112.89147  -1420483.48444  23594154.8754                   23594155.7234
 -89924229.85947 -70025800.66044  23272396.6094                   23272395.7464
 -32548663.18748 -25190877.75846  21073789.6174                   21073786.7304
 -23852561.77748 -18545511.03946  21548477.8364                   21548476.5474
 -68237083.84847 -53124894.86345  21871430.2274                   21871429.1454
 -35482932.87146 -27605973.96144  23887513.4924                   23887515.8484
 -54603459.04348 -42504058.94946  20491123.1724                   20491118.9884
 11  8 16  0 48  0.0000000  0  8G10G25G17G12G05G04G09G02
 -44909144.90648 -34954349.69546  20779917.0474                   20779914.9774
  -2171102.53947  -1567748.07844  23558191.0784                   23558192.3594
 -89961373.86346 -70054744.06644  23265327.7974                   23265327.5124
 -32692027.73848 -25302590.37546  21046507.8134                   21046505.7194
 -24030058.84848 -18683820.37146  21514701.1724                   21514699.8164
 -68251814.68448 -53136373.46945  21868627.0004                   21868625.9414
 -35494958.78546 -27615344.90244  23885224.9144                   23885227.5594
 -54692183.37548 -42573194.77346  20474239.2664                   20474235.1914
 11  8 16  0 48 30.0000000  0  8G10G25G17G12G05G04G09G02
 -43414982.65248 -33790067.40246  21064246.5784                   21064244.5164
   -784381.44947   -487186.12145  23822075.2274                   23822076.4024
 -88422878.53946 -68855916.53944  23558094.0864                   23558093.5234
 -31259436.94948 -24186285.85246  21319120.7274                   21319118.5044
 -22631718.85248 -17594204.71546  21780796.3984                   21780795.4064
 -66690972.25447 -51920132.63345  22165645.2274                   22165644.6024
 -33931422.70746 -26397005.16044  24182756.8914                   24182759.0864
 -53205165.14848 -41414479.25846  20757209.5474                   20757205.2304
 11  8 16  0 49  0.0000000  0  8G10G25G17G12G05G04G09G02
 -43495566.36348 -33852859.89146  21048911.9064                   21048910.1764
   -972804.06247   -634008.87144  23786219.5474                   23786221.2504
 -88459590.45746 -68884523.24244  23551107.5864                   23551107.5594
 -31401742.41848 -24297173.22346  21292041.0944                   21292038.6214
 -22808395.16048 -17731874.50046  21747175.9614                   21747174.4734
 -66705403.66848 -51931377.90645  22162898.9384                   22162898.4924
 -33943172.96546 -26406161.27043  24180519.9304                   24180522.2934
 -53293255.88748 -41483121.37546  20740446.3524                   20740442.2504
 11  8 16  0 49 30.0000000  0  8G10G25G17G12G05G04G09G02
 -43575471.81248 -33915123.85946  21033706.3524                   21033704.2814
  -1160939.39547   -780607.77044  23750418.3914                   23750419.9144
 -88496085.66847 -68912961.07444  23544163.3054                   23544162.1134
 -31543515.32048 -24407645.59846  21265062.6644                   21265060.2894
 -22984657.10948 -17869221.40246  21713634.6094                   21713633.7274
 -66719688.46948 -51942508.94145  22160180.8054                   22160179.6454
 -33954790.49646 -26415213.96143  24178309.6334                   24178311.6884
 -53381031.81248 -41551518.18446  20723743.0234                   20723738.8134
 11  8 16  0 50  0.0000000  0  8G10G25G17G12G05G04G09G02
 -43654697.55948 -33976858.19146  21018630.3914                   21018628.5234
  -1348782.90647   -926979.26244  23714672.6024                   23714674.3364
 -88532362.05147 -68941228.37144  23537260.0394                   23537259.1844
 -31684751.69948 -24517699.90246  21238186.1484                   21238183.8794
 -23160500.14548 -18006241.87146  21680172.5634                   21680171.0664
 -66733826.46948 -51953525.59045  22157490.2584                   22157489.8094
 -33966276.69947 -26424164.32443  24176124.3834                   24176126.2624
 -53468492.31648 -41619669.21146  20707099.6484                   20707095.7154
 11  8 16  0 50 30.0000000  0  8G10G25G17G12G05G04G09G02
 -43733247.15648 -34038065.64846  21003682.4454                   21003681.1334
  -1536335.03547  -1073123.69144  23678982.4924                   23678984.2424
 -88568422.39147 -68969327.32444  23530397.9924                   23530397.5044
 -31825453.32448 -24627337.52346  21211411.7584                   21211409.5554
 -23335924.72348 -18142936.28546  21646790.4224                   21646789.1954
 -66747822.53547 -51964431.63345  22154827.3594                   22154826.4344
 -33977638.18746 -26433017.51243  24173962.0864                   24173964.8404
 -53555641.65648 -41687577.77346  20690515.6804                   20690511.9884
 11  8 16  0 51  0.0000000  0  8G10G25G17G12G05G04G09G02
 -43811125.62148 -34098750.15246  20988862.8914                   20988861.3204
  -1723597.53947  -1219042.46544  23643348.2424                   23643349.3714
 -88604270.46147 -68997260.87944  23523576.2504                   23523574.9344
 -31965622.23448 -24736560.02746  21184738.3444                   21184736.2544
 -23510932.50848 -18279305.90646  21613487.2344                   21613486.2664
 -66761682.80547 -51975231.86345  22152189.4614                   22152188.9734
 -33988882.48846 -26441779.38743  24171823.1484                   24171824.8984
 -53642485.50048 -41755248.28946  20673989.9454                   20673985.6644
 11  8 16  0 51 30.0000000  0  8G10G25G17G12G05G04G09G02
 -43888331.34848 -34158910.44146  20974170.9224                   20974169.4414
  -1910565.72747  -1364731.89844  23607769.0704                   23607770.6524
 -88639903.98047 -69025027.26644  23516795.0784                   23516794.5124
 -32105254.65248 -24845364.50046  21158167.2344                   21158164.9774
 -23685519.06248 -18415347.31246  21580264.8914                   21580263.5554
 -66775406.98847 -51985926.05545  22149578.2504                   22149577.4884
 -34000010.91846 -26450450.96143  24169704.9694                   24169707.1214
 -53729022.70348 -41822679.86746  20657522.8594                   20657518.5164
 11  8 16  0 52  0.0000000  0  8G10G25G17G12G05G04G09G02
 -43964863.08648 -34218545.54746  20959607.7344                   20959605.7344
  -2097235.28147  -1510188.62544  23572247.1564                   23572248.2234
 -88675320.77347 -69052624.76244  23510055.9064                   23510054.7234
 -32244346.68748 -24953747.89146  21131698.9844                   21131696.2384
 -23859679.67648 -18551056.81646  21547122.9224                   21547121.6524
 -66788995.30547 -51996514.37145  22146992.7274                   22146991.7504
 -34011025.12546 -26459033.53543  24167608.8674                   24167611.2854
 -53815253.16848 -41889872.42646  20641113.2734                   20641109.1374
 11  8 16  0 52 30.0000000  0  8G10G25G17G12G05G04G09G02
 -44040720.78948 -34277655.43046  20945172.4534                   20945170.6524
  -2283602.77347  -1655409.99644  23536782.5394                   23536783.6524
 -88710519.74247 -69080052.52044  23503358.0084                   23503356.6254
 -32382895.83648 -25061708.25046  21105333.8984                   21105331.7504
 -24033411.27748 -18686432.02046  21514062.9064                   21514061.3674
 -66802448.77747 -52006997.61345  22144432.5944                   22144431.3284
 -34021927.82046 -26467529.19143  24165533.7034                   24165536.6844
 -53901177.19148 -41956826.18746  20624762.5314                   20624758.2274
 11  8 16  0 53  0.0000000  0  8G10G25G17G12G05G04G09G02
 -44115912.07848 -34336246.02746  20930863.8444                   20930862.1564
  -2469672.85547  -1800399.60944  23501374.2664                   23501375.5864
 -88745507.79747 -69107315.93044  23496700.6334                   23496698.5904
 -32520907.64548 -25169249.89546  21079071.1484                   21079068.8244
 -24206718.73448 -18821476.73046  21481083.5944                   21481081.8054
 -66815776.39847 -52017382.80145  22141895.7584                   22141894.8524
 -34032729.46546 -26475946.17643  24163479.2664                   24163480.9264
 -53986803.16848 -42023547.71546  20608468.6334                   20608464.3914
 11  8 16  0 53 30.0000000  0  8G10G25G17G12G05G04G09G02
 -44190432.21548 -34394313.65246  20916683.0784                   20916681.5434
  -2655437.19947  -1945150.98844  23466025.0394                   23466026.5004
 -88780278.87947 -69134410.25844  23490082.9924                   23490082.6804
 -32658374.36748 -25276366.80546  21052912.0474                   21052909.6844
 -24379593.40648 -18956184.19546  21448186.7664                   21448185.0904
 -66828974.15247 -52027666.79345  22139384.5004                   22139383.7464
 -34043427.50846 -26484282.42243  24161443.7664                   24161445.6684
 -54072126.77348 -42090033.63346  20592232.0164                   20592227.8054
 11  8 16  0 54  0.0000000  0  8G10G25G17G12G05G04G09G02
 -44264286.14848 -34451862.16046  20902629.1564                   20902627.2034
  -2840897.26647  -2089665.30144  23430732.8284                   23430734.0434
 -88814836.48847 -69161338.26644  23483507.4224                   23483506.3834
 -32795298.41848 -25383060.85246  21026856.2734                   21026853.5354
 -24552036.95748 -19090555.73446  21415371.6094                   21415370.0864
 -66842048.21147 -52037854.39145  22136897.0704                   22136895.9224
 -34054029.58647 -26492543.83643  24159425.8984                   24159427.8634
 -54157153.31248 -42156288.06646  20576051.8984                   20576047.7814
 11  8 16  0 54 30.0000000  0  8G10G25G17G12G05G04G09G02
 -44337472.53548 -34508890.49246  20888702.3364                   20888700.4024
  -3026048.65647  -2233939.07044  23395499.6564                   23395501.0554
 -88849178.80147 -69188098.52344  23476971.7584                   23476970.8634
 -32931675.84848 -25489328.96546  21000904.5784                   21000901.9734
 -24724045.04748 -19224587.96146  21382639.2734                   21382637.8134
 -66854997.98047 -52047945.14845  22134431.9144                   22134431.5354
 -34064537.24247 -26500731.71143  24157426.7034                   24157428.5664
 -54241882.17648 -42222310.55146  20559928.7034                   20559924.5944
 11  8 16  0 55  0.0000000  0  8G10G25G17G12G05G04G09G02
 -44409990.94548 -34565398.33246  20874902.3914                   20874900.4064
  -3210887.45747  -2377969.27744  23360325.5394                   23360326.8794
 -88883304.38347 -69214689.87944  23470478.1334                   23470476.9534
 -33067503.93048 -25595169.00846  20975057.2194                   20975055.0704
 -24895613.77348 -19358277.80546  21349990.8834                   21349989.3554
 -66867824.27747 -52057939.68045  22131991.6174                   22131990.6024
 -34074952.38346 -26508847.50044  24155444.9774                   24155447.1484
 -54326313.48048 -42288101.16446  20543861.4534                   20543857.8014
 11  8 16  0 55 30.0000000  0  8G10G25G17G12G05G04G09G02
 -44481843.68748 -34621387.47346  20861229.7194                   20861227.8244
  -3395412.80547  -2521755.22344  23325211.9924                   23325213.0354
 -88917214.07047 -69241113.03944  23464025.7734                   23464023.2074
 -33202782.63748 -25700580.97746  20949314.8984                   20949312.3014
 -25066742.46148 -19491624.77746  21317426.2274                   21317424.7894
 -66880530.56247 -52067840.70745  22129573.9614                   22129573.3364
 -34085280.26246 -26516895.29743  24153479.4144                   24153481.6884
 -54410450.22348 -42353662.25846  20527851.3284                   20527847.0434
 11  8 16  0 56  0.0000000  0  8G10G25G17G12G05G04G09G02
 -44553033.60548 -34676860.11746  20847682.0394                   20847680.6134
  -3579623.91047  -2665296.32044  23290157.8834                   23290159.1604
 -88950909.61347 -69267369.33244  23457613.3054                   23457612.2544
 -33337512.14848 -25805564.99646  20923676.5554                   20923673.8364
 -25237430.58248 -19624628.44546  21284945.2114                   21284943.5664
 -66893120.54747 -52077651.09845  22127178.1954                   22127177.3674
 -34095526.01646 -26524879.10543  24151529.5474                   24151531.4654
 -54494295.56648 -42418996.27746  20511895.5634                   20511891.5124
 11  8 16  0 56 30.0000000  0  8G10G25G17G12G05G04G09G02
 -44623565.84448 -34731820.28946  20834260.5474                   20834258.8204
  -3763522.14847  -2808593.59844  23255163.2424                   23255164.2664
 -88984394.85547 -69293461.73444  23451241.3524                   23451240.6294
 -33471694.35248 -25910122.52746  20898142.2424                   20898139.8094
 -25407679.25048 -19757289.68446  21252547.8594                   21252546.4024
 -66905599.84447 -52087375.25445  22124803.4384                   22124802.9804
 -34105696.71147 -26532804.46143  24149594.1804                   24149596.6334
 -54577854.53948 -42484107.14846  20495995.0004                   20495991.1764
 11  8 16  0 57  0.0000000  0  8G10G25G17G12G05G04G09G02
 -43118018.19548 -33558666.26646  21120756.7344                   21120754.8954
  -2371678.36747  -1724039.95744  23520021.6254                   23520023.1414
 -87442247.62147 -68091788.58644  23744701.9454                   23744700.9774
 -32029902.37148 -24786648.23846  21172506.0704                   21172503.4064
 -24002060.10548 -18662001.97746  21520027.9924                   21520026.7424
 -65342548.97747 -50869413.54345  22422242.4224                   22422241.2544
 -32540374.95346 -25313073.30543  24447464.4614                   24447467.5864
 -53085705.28548 -41321393.44147  20779941.9534                   20779937.5664
 11  8 16  0 57 30.0000000  0  8G10G25G17G12G05G04G09G02
 -43187234.19548 -33612600.80546  21107585.2584                   21107583.1604
  -2554940.02047  -1866841.19944  23485148.8834                   23485149.5474
 -87475308.16047 -68117550.06244  23738410.6644                   23738409.7624
 -32162982.51248 -24890347.02346  21147181.9774                   21147179.9414
 -24171419.84848 -18793970.53946  21487800.1174                   21487798.9184
 -65354808.75447 -50878966.62945  22419909.2194                   22419908.2934
 -32550402.31646 -25320886.95743  24445557.1024                   24445559.4964
 -53168692.48848 -41386058.78946  20764149.2424                   20764145.2704
 11  8 16  0 58  0.0000000  0  8G10G25G17G12G05G04G09G02
 -43255789.89148 -33666020.80946  21094539.6884                   21094538.0124
  -2737875.99647  -2009388.65644  23450336.8594                   23450338.1294
 -87508152.40647 -68143143.00444  23732160.7424                   23732160.0784
 -32295505.64548 -24993611.77746  21121963.6564                   21121961.1884
 -24340327.80548 -18925587.06246  21455657.8364                   21455656.4844
 -65366957.88347 -50888433.47745  22417597.4064                   22417596.3674
 -32560359.66046 -25328646.02343  24443662.1954                   24443664.6094
 -53251392.14148 -41450500.07046  20748412.4844                   20748408.4774
 11  8 16  0 58 30.0000000  0  8G10G25G17G12G05G04G09G02
 -43323689.67648 -33718929.71946  21081618.7114                   21081616.8364
  -2920487.20747  -2151683.05144  23415586.8444                   23415588.4414
 -87540783.34446 -68168569.73444  23725951.7584                   23725950.2384
 -32427473.22348 -25096443.64146  21096851.1724                   21096848.5354
 -24508785.32448 -19056852.60546  21423601.3134                   21423600.0634
 -65379001.53547 -50897818.15245  22415304.8834                   22415304.7034
 -32570253.70746 -25336355.76244  24441780.1414                   24441782.1094
 -53333808.86348 -41514720.89546  20732729.1804                   20732725.4804
 11  8 16  0 59  0.0000000  0  8G10G25G17G12G05G04G09G02
 -43390936.97748 -33771330.19546  21068821.9304                   21068820.0824
  -3102773.19147  -2293724.00844  23380899.2504                   23380900.0514
 -87573203.14546 -68193831.93444  23719782.1724                   23719781.8794
 -32558885.77348 -25198843.00046  21071844.1024                   21071841.4304
 -24676791.99248 -19187766.82446  21391631.0554                   21391629.3984
 -65390943.65247 -50907123.69545  22413032.9384                   22413032.2584
 -32580089.71546 -25344020.32843  24439908.4924                   24439910.4064
 -53415946.29348 -41578724.08246  20717098.9144                   20717094.8754
 11  8 16  0 59 30.0000000  0  8G10G25G17G12G05G04G09G02
 -43457529.84848 -33823220.73446  21056149.5944                   21056147.9534
  -3284728.51247  -2435507.32044  23346274.3134                   23346275.3954
 -87605408.46947 -68218927.03144  23713653.6564                   23713652.9804
 -32689739.15248 -25300806.65246  21046943.1724                   21046940.8484
 -24844342.77048 -19318325.81246  21359746.9614                   21359745.6374
 -65402783.12147 -50916349.26645  22410779.9454                   22410779.3554
 -32589868.41046 -25351640.21943  24438047.6954                   24438050.3794
 -53497802.91448 -41642508.45746  20701521.8204                   20701517.9414
 11  8 16  1  0  0.0000000  0  8G10G25G17G12G05G04G09G02
 -43523470.46548 -33874603.02046  21043601.6804                   21043600.1024
  -3466351.85547  -2577031.94945  23311712.3444                   23311713.5904
 -87637400.46146 -68243855.84044  23707565.4844                   23707565.2854
 -32820033.23848 -25402334.48446  21022149.1174                   21022146.7734
 -25011436.27048 -19448528.47346  21327950.3524                   21327948.7384
 -65414522.53947 -50925496.85945  22408545.7274                   22408544.6684
 -32599594.03946 -25359218.73443  24436196.5234                   24436199.5434
 -53579381.16048 -41706075.92646  20685998.2584                   20685994.2114
 11  8 16  1  0 30.0000000  0  8G10G25G17G12G05G04G09G02
 -43588759.61747 -33925477.66846  21031177.5394                   21031175.7584
  -3647640.30547  -2718295.61744  23277213.9614                   23277214.9924
 -87669178.65246 -68268618.10244  23701518.8754                   23701518.1454
 -32949765.89848 -25503424.84446  20997461.6884                   20997459.5434
 -25178069.61748 -19578372.57446  21296240.6644                   21296239.1214
 -65426163.53147 -50934567.77045  22406330.9774                   22406329.9144
 -32609269.64847 -25366758.26243  24434355.3834                   24434357.9304
 -53660681.77748 -41769427.04746  20670527.2814                   20670523.4734
 11  8 16  1  1  0.0000000  0  8G10G25G17G12G05G04G09G02
 -43653400.69948 -33975847.32046  21018876.7274                   21018874.8634
  -3828593.27347  -2859297.87544  23242779.8134                   23242781.0904
 -87700744.67646 -68293215.00844  23695511.5634                   23695510.6884
 -33078937.36348 -25604077.91046  20972881.1724                   20972878.6254
 -25344243.03148 -19707858.28946  21264619.2424                   21264617.6884
 -65437709.69547 -50943564.78545  22404133.6564                   22404133.2304
 -32618900.52346 -25374262.96943  24432523.3984                   24432525.3364
 -53741708.43048 -41832564.69146  20655108.2034                   20655104.1334
 11  8 16  1  1 30.0000000  0  8G10G25G17G12G05G04G09G02
 -43717393.54748 -34025711.86346  21006699.5864                   21006697.6524
  -4009207.01247  -3000035.80545  23208409.8364                   23208411.5664
 -87732097.05946 -68317645.44944  23689546.4304                   23689544.8094
 -33207545.22348 -25704291.80946  20948408.1254                   20948406.0124
 -25509952.32048 -19836982.34846  21233085.6174                   21233084.0864
 -65449161.42647 -50952488.21545  22401954.8674                   22401954.1764
 -32628488.66046 -25381734.35943  24430698.6094                   24430700.8834
 -53822461.25048 -41895488.96547  20639741.5314                   20639737.5314
 11  8 16  1  2  0.0000000  0  8G10G25G17G12G05G04G09G02
 -43780738.71148 -34075071.71546  20994645.3754                   20994643.2854
  -4189478.37547  -3140506.94545  23174105.8834                   23174106.9224
 -87763234.93446 -68341908.72744  23683620.0554                   23683619.2034
 -33335587.34848 -25804064.87146  20924042.2274                   20924039.8014
 -25675194.93048 -19965742.76246  21201641.0554                   21201639.1524
 -65460519.87947 -50961338.95345  22399792.6484                   22399791.9884
 -32638036.71946 -25389174.52743  24428882.0474                   24428884.5004
 -53902940.69948 -41958200.21546  20624426.6644                   20624422.6374
 11  8 16  1  2 30.0000000  0  8G10G25G17G12G05G04G09G02
 -43843437.99248 -34123928.28146  20982713.8524                   20982712.0354
  -4369405.38347  -3280709.77345  23139867.0234                   23139867.7664
 -87794158.94947 -68366005.38344  23677736.2504                   23677734.9024
 -33463062.73048 -25903396.32046  20899784.7734                   20899782.2774
 -25839969.11748 -20094138.16846  21170285.3674                   21170283.7544
 -65471787.29747 -50970118.78545  22397649.1334                   22397647.9494
 -32647548.44146 -25396586.36744  24427071.5944                   24427074.0904
 -53983148.59848 -42020699.87146  20609163.5084                   20609160.2344
 11  8 16  1  3  0.0000000  0  8G10G25G17G12G05G04G09G02
 -43905495.37148 -34172284.66846  20970904.6884                   20970903.1724
  -4548988.41847  -3420644.57044  23105693.5704                   23105694.4344
 -87824871.66447 -68389937.37944  23671891.5084                   23671890.0634
 -33589972.91048 -26002287.35546  20875634.4304                   20875632.0554
 -26004275.51648 -20222169.05946  21139018.9534                   21139017.3244
 -65482968.07447 -50978831.07444  22395521.1644                   22395520.3444
 -32657030.10946 -25403974.79343  24425268.2344                   24425270.5274
 -54063089.30548 -42082991.31246  20593951.5234                   20593947.5234
 11  8 16  1  3 30.0000000  0  8G10G25G17G12G05G04G09G02
 -43966908.54747 -34220139.07046  20959217.9064                   20959216.0434
  -4728220.98447  -3560306.27345  23071586.1724                   23071587.3834
 -87855368.69947 -68413701.30944  23666088.3054                   23666087.1054
 -33716312.52048 -26100733.79346  20851592.8914                   20851590.4924
 -26168107.94948 -20349830.63346  21107842.7504                   21107841.2034
 -65494059.98047 -50987474.11345  22393410.2974                   22393409.9414
 -32666481.13746 -25411339.34844  24423469.5784                   24423471.5474
 -54142760.12148 -42145072.45346  20578790.5474                   20578786.6604
 11  8 16  1  4  0.0000000  0  8G10G25G17G12G05G04G09G02
 -44027682.83248 -34267495.63746  20947653.0314                   20947650.9924
  -4907104.66847  -3699696.12544  23037546.0394                   23037546.6804
 -87885654.26247 -68437300.44944  23660324.7114                   23660324.0274
 -33842084.34048 -26198737.79346  20827659.1804                   20827656.8094
 -26331468.11348 -20477124.20746  21076756.0784                   21076754.1604
 -65505068.82047 -50996052.43744  22391315.6564                   22391314.8094
 -32675908.89146 -25418685.78143  24421675.5084                   24421678.2384
 -54222166.49248 -42206947.54746  20563680.3054                   20563676.1844
 11  8 16  1  4 30.0000000  0  8G10G25G17G12G05G04G09G02
 -44087816.81647 -34314353.27046  20936209.7734                   20936207.9694
  -5085634.19947  -3838810.02745  23003572.4694                   23003573.5704
 -87915725.51247 -68460732.62544  23654602.8834                   23654601.8594
 -33967283.87548 -26296295.85946  20803834.7974                   20803832.1024
 -26494351.26248 -20604046.07846  21045760.3754                   21045758.6254
 -65515993.48047 -51004565.15244  22389236.9454                   22389235.7074
 -32685313.68446 -25426014.36343  24419885.6414                   24419888.8134
 -54301306.87548 -42268615.36746  20548620.0784                   20548616.1914
 11  8 16  1  5  0.0000000  0  8G10G25G17G12G05G04G09G02
 -44147315.60548 -34360715.94946  20924887.6094                   20924885.6024
  -5263810.89147  -3977648.98045  22969667.2504                   22969667.2854
 -87945586.09846 -68484000.62144  23648919.8054                   23648918.8674
 -34091914.16448 -26393410.35946  20780118.2034                   20780115.4654
 -26656758.71548 -20730597.28146  21014854.9614                   21014853.5744
 -65526839.24247 -51013016.41844  22387173.2194                   22387171.5514
 -32694702.63346 -25433330.52343  24418098.4614                   24418101.7664
 -54380186.52748 -42330080.01646  20533609.8914                   20533605.4884
 11  8 16  1  5 30.0000000  0  8G10G25G17G12G05G04G09G02
 -42630758.24248 -33178982.93046  21213478.5234                   21213477.1054
  -3866206.01647  -2888606.17244  23235622.1334                   23235623.1484
 -86399814.63346 -67279503.37544  23943070.7194                   23943070.2424
 -32640549.39148 -25262476.76246  21056303.5704                   21056301.0634
 -25243262.94548 -19629171.94946  21283834.4774                   21283833.1844
 -63962187.17247 -49793807.02045  22684916.3984                   22684915.6214
 -31128658.38346 -24213036.46143  24716108.1954                   24716110.3364
 -52883383.90248 -41163740.29346  20818441.8834                   20818437.7544
 11  8 16  1  6  0.0000000  0  8G10G25G17G12G05G04G09G02
 -42688990.55948 -33224358.74646  21202397.4064                   21202395.8284
  -4043669.20747  -3026889.15245  23201852.3284                   23201852.8954
 -86429253.14146 -67302442.46144  23937468.7504                   23937468.4884
 -32764036.59848 -25358700.55146  21032804.9774                   21032802.1134
 -25404712.64848 -19754976.85246  21253111.4614                   21253109.7034
 -63972879.78547 -49802138.92645  22682881.6024                   22682880.8524
 -31138025.07846 -24220335.31243  24714324.6884                   24714327.8524
 -52961745.72748 -41224801.43746  20803530.1954                   20803525.9104
 11  8 16  1  6 30.0000000  0  8G10G25G17G12G05G04G09G02
 -42746590.58248 -33269241.86746  21191436.5164                   21191435.1764
  -4220770.66447  -3164890.24645  23168150.7034                   23168151.7234
 -86458478.89846 -67325215.77744  23931907.1254                   23931906.4534
 -32886949.02048 -25454476.45746  21009415.3204                   21009412.8204
 -25565678.92648 -19880405.06646  21222480.9064                   21222479.1054
 -63983496.93047 -49810412.03144  22680860.9064                   22680860.5594
 -31147384.12146 -24227628.19543  24712544.2504                   24712546.9964
 -53039849.35548 -41285661.39146  20788667.3054                   20788663.3054
 11  8 16  1  7  0.0000000  0  8G10G25G17G12G05G04G09G02
 -42803560.48448 -33313633.98046  21180595.7034                   21180594.0824
  -4397508.34447  -3302607.89844  23134518.2194                   23134519.2114
 -86487492.62546 -67347823.83244  23926386.3204                   23926384.8244
 -33009285.84048 -25549803.83246  20986135.3984                   20986132.7894
 -25726160.33648 -20005455.45346  21191942.2424                   21191940.4384
 -63994040.70747 -49818627.96544  22678854.7344                   22678854.1374
 -31156739.35546 -24234918.15643  24710763.8914                   24710767.1134
 -53117696.92248 -41346321.82046  20773853.5944                   20773849.3634
 11  8 16  1  7 30.0000000  0  8G10G25G17G12G05G04G09G02
 -42859903.13748 -33357537.32846  21169874.2344                   21169872.2154
  -4573881.50447  -3440041.50045  23100955.7034                   23100956.2154
 -86516295.71946 -67370267.80144  23920905.4454                   23920904.1724
 -33131047.47348 -25644683.01646  20962964.8834                   20962962.3914
 -25886156.34448 -20130127.60946  21161495.5234                   21161494.2154
 -64004514.55547 -49826789.42645  22676861.6334                   22676861.0084
 -31166095.69946 -24242208.94543  24708984.3444                   24708986.9574
 -53195291.07048 -41406784.77346  20759088.1564                   20759083.9414
 11  8 16  1  8  0.0000000  0  8G10G25G17G12G05G04G09G02
 -42915616.75048 -33400950.52346  21159272.1804                   21159270.4184
  -4749884.09847  -3577186.33245  23067463.6094                   23067464.7934
 -86544884.81246 -67392544.96544  23915464.3444                   23915463.3364
 -33252229.59848 -25739110.63746  20939904.6254                   20939902.4184
 -26045661.10948 -20254416.98046  21131142.9614                   21131141.3594
 -64014916.34447 -49834894.71944  22674882.0234                   22674881.6414
 -31175452.68746 -24249500.24243  24707202.5004                   24707206.4654
 -53272629.74648 -41467048.67246  20744370.7114                   20744366.7384
 11  8 16  1  8 30.0000000  0  8G10G25G17G12G05G04G09G02
 -42970707.28548 -33443878.19546  21148788.7034                   21148787.1484
  -4925517.82447  -3714043.73845  23034041.6724                   23034042.6764
 -86573263.44946 -67414658.22344  23910064.4924                   23910064.3444
 -33372834.80948 -25833088.70346  20916954.5004                   20916952.1684
 -26204676.66848 -20378325.14546  21100883.2814                   21100881.6914
 -64025251.77047 -49842948.32044  22672915.6174                   22672914.5864
 -31184817.57846 -24256797.71543  24705421.3284                   24705424.7344
 -53349718.21948 -41527117.59046  20729701.3524                   20729697.5864
 11  8 16  1  9  0.0000000  0  8G10G25G17G12G05G04G09G02
 -43025174.46148 -33486320.14146  21138423.8984                   21138422.1414
  -5100778.48847  -3850610.44945  23000690.7974                   23000691.4654
 -86601430.26246 -67436606.34043  23904704.2814                   23904703.5164
 -33492860.30948 -25926615.05546  20894114.3834                   20894111.6644
 -26363199.60948 -20501849.45746  21070717.0554                   21070715.4654
 -64035520.78547 -49850950.15645  22670961.4144                   22670960.9734
 -31194191.94146 -24264102.54343  24703636.7504                   24703640.8364
 -53426556.37148 -41586991.46546  20715079.6174                   20715075.7074
 11  8 16  1  9 30.0000000  0  8G10G25G17G12G05G04G09G02
 -43079021.16448 -33528278.59846  21128177.4694                   21128175.5354
  -5275665.33247  -3986885.85945  22967410.8834                   22967411.4064
 -86629386.78546 -67458390.64843  23899384.3204                   23899383.9654
 -33612306.60248 -26019690.07046  20871384.4144                   20871382.1214
 -26521229.49248 -20624989.56646  21040645.1174                   21040643.4884
 -64045726.33647 -49858902.55145  22669019.6804                   22669018.6054
 -31203580.48446 -24271418.43043  24701850.9454                   24701854.4654
 -53503147.15648 -41646672.58246  20700504.7894                   20700500.8284
 11  8 16  1 10  0.0000000  0  8G10G25G17G12G05G04G09G02
 -43132247.19948 -33569753.41446  21118049.0704                   21118046.8524
  -5450173.73047  -4122866.39145  22934202.8204                   22934203.8014
 -86657130.77046 -67480009.36744  23894105.4694                   23894104.0044
 -33731169.98848 -26112310.87946  20848765.5704                   20848762.7584
 -26678762.17248 -20747742.24246  21010667.5474                   21010665.7734
 -64055868.00847 -49866805.15245  22667089.1644                   22667088.5744
 -31212984.49246 -24278746.37943  24700061.9454                   24700065.1214
 -53579489.54748 -41706160.14846  20685977.5864                   20685973.4494
 11  8 16  1 10 30.0000000  0  8G10G25G17G12G05G04G09G02
 -43184855.41448 -33610746.81246  21108037.8524                   21108036.0274
  -5624302.52047  -4258551.11345  22901067.2894                   22901068.0314
 -86684663.43046 -67501463.35943  23888865.7194                   23888864.5944
 -33849451.39548 -26204478.18046  20826256.8444                   20826254.8674
 -26835796.58248 -20870106.66446  20980785.1564                   20980783.1644
 -64065948.45747 -49874660.05545  22665171.1724                   22665170.9774
 -31222408.41845 -24286089.89543  24698268.3284                   24698271.1174
 -53655586.28548 -41765456.30146  20671496.7664                   20671492.5234
 11  8 16  1 11  0.0000000  0  8G10G25G17G12G05G04G09G02
 -43236846.93048 -33651259.66446  21098144.2974                   21098142.2854
  -5798048.75447  -4393937.73845  22868004.2974                   22868005.4304
 -86711984.05146 -67522752.13743  23883666.7194                   23883665.7584
 -33967149.09848 -26296190.65646  20803860.3054                   20803857.9844
 -26992330.62948 -20992081.19146  20950997.4774                   20950995.6724
 -64075968.81647 -49882468.14545  22663264.6804                   22663263.8554
 -31231854.62146 -24293450.69543  24696469.9694                   24696473.6804
 -53731438.17248 -41824561.65246  20657062.4694                   20657058.4574
 11  8 16  1 11 30.0000000  0  8G10G25G17G12G05G04G09G02
 -43288224.73848 -33691294.30946  21088367.3524                   21088365.2934
  -5971411.16047  -4529025.28145  22835014.3754                   22835015.5234
 -86739094.10547 -67543876.82444  23878507.9694                   23878507.2544
 -34084263.05548 -26387448.26246  20781573.7894                   20781571.4614
 -27148363.06648 -21113664.84846  20921305.7814                   20921303.6054
 -64085931.87547 -49890231.54744  22661368.7584                   22661367.6604
 -31241327.79346 -24300832.52743  24694668.8594                   24694671.4534
 -53807047.82048 -41883478.25046  20642674.4384                   20642670.4574
 11  8 16  1 12  0.0000000  0  8G10G25G17G12G05G04G09G02
 -43338989.51648 -33730851.26646  21078706.9144                   21078705.3164
  -6144385.88747  -4663810.73045  22802098.3284                   22802099.4024
 -86765991.86146 -67564836.08743  23873389.2274                   23873387.9654
 -34200790.73048 -26478249.02046  20759399.3444                   20759397.0164
 -27303890.91848 -21234855.33246  20891709.5784                   20891707.7304
 -64095837.56247 -49897950.25844  22659483.2814                   22659482.5164
 -31250829.50846 -24308236.59843  24692860.3444                   24692863.1414
 -53882414.83248 -41942205.78146  20628332.6724                   20628328.2624
 11  8 16  1 12 30.0000000  0  8G10G25G17G12G05G04G09G02
 -43389145.78548 -33769934.05946  21069162.6174                   21069160.8324
  -6316973.59047  -4798294.60945  22769256.0864                   22769256.8164
 -86792680.36346 -67585632.32444  23868310.8914                   23868310.3364
 -34316734.48848 -26568594.78546  20737336.2274                   20737333.7774
 -27458915.21148 -21355653.44546  20862209.3444                   20862207.5274
 -64105690.46547 -49905627.85544  22657608.7974                   22657607.2624
 -31260365.98446 -24315667.73443  24691045.8594                   24691048.7034
 -53957544.02048 -42000748.00446  20614035.9774                   20614032.0704
 11  8 16  1 13  0.0000000  0  8G10G25G17G12G05G04G09G02
 -43438693.82048 -33808542.91446  21059733.8444                   21059731.7034
  -6489170.48447  -4932473.95745  22736488.1334                   22736489.4574
 -86819158.11346 -67606264.34844  23863272.2424                   23863271.4774
 -34432091.68448 -26658483.48846  20715384.4534                   20715381.9774
 -27613432.58248 -21476056.53146  20832805.9144                   20832803.9264
 -64115490.57047 -49913264.27744  22655743.9924                   22655742.5784
 -31269939.03947 -24323127.34043  24689224.1884                   24689226.9024
 -54032434.96148 -42059104.56246  20599784.9384                   20599780.7734
 11  8 16  1 13 30.0000000  0  8G10G25G17G12G05G04G09G02
 -43487638.59448 -33846681.69546  21050419.8054                   21050418.0044
  -6660977.18047  -5066349.25445  22703794.8754                   22703795.4924
 -86845428.23846 -67626734.53944  23858273.3204                   23858271.7664
 -34546864.23448 -26747916.62146  20693543.7504                   20693541.4734
 -27767444.15648 -21596065.50046  20803498.1094                   20803496.0514
 -64125242.61347 -49920863.26644  22653888.1954                   22653887.1724
 -31279554.56647 -24330620.13343  24687394.9144                   24687397.1954
 -54107092.05948 -42117278.91046  20585578.2114                   20585573.8874
 11  8 16  1 14  0.0000000  0  8G10G25G17G12G05G04G09G02
 -41960558.74248 -32656749.32846  21341013.5944                   21341011.8634
  -5256963.79347  -3972312.80545  22970969.2344                   22970970.4384
 -85296068.30946 -66419441.04744  24153106.0314                   24153105.0124
 -33085625.98048 -25609289.39146  20971607.9614                   20971605.8524
 -26345521.29348 -20488073.61346  21074081.0944                   21074078.9144
 -62559525.67647 -48700824.10544  22951834.0784                   22951833.1914
 -29713793.61346 -23110546.77043  24985349.1484                   24985351.7704
 -52606092.28148 -40947668.68446  20871208.7034                   20871204.7344
 11  8 16  1 14 30.0000000  0  8G10G25G17G12G05G04G09G02
 -42008295.14848 -32693946.51246  21331929.3134                   21331927.9774
  -5427975.24247  -4105568.43745  22938426.9534                   22938427.8094
 -85321915.74246 -66439581.88344  24148187.3674                   24148187.3134
 -33199219.59448 -25697803.87546  20949992.2274                   20949989.6134
 -26498508.07448 -20607284.03546  21044968.5554                   21044966.5474
 -62569177.83647 -48708345.26644  22949997.3524                   22949996.3364
 -29723495.84046 -23118107.05943  24983503.8054                   24983506.3484
 -52680278.12148 -41005475.82846  20857091.8284                   20857087.3594
 11  8 16  1 15  0.0000000  0  7G10G25G17G12G05G04G02
 -42055432.66848 -32730677.04346  21322959.5004                   21322957.7424
  -5598588.15247  -4238513.52345  22905960.4534                   22905961.0204
 -85347554.59046 -66459560.21944  24143308.7814                   24143308.3834
 -33312224.96148 -25785859.99246  20928487.8834                   20928485.3554
 -26650982.34448 -20726095.10946  21015953.6564                   21015951.5904
 -62578785.04347 -48715831.40644  22948169.0944                   22948168.1134
 -52754233.08248 -41063103.05546  20843018.1884                   20843014.0164
 11  8 16  1 15 30.0000000  0  7G10G25G17G12G05G04G02
 -42101967.62547 -32766938.03945  21314104.1254                   21314102.7774
  -5768794.48447  -4371141.80545  22873570.9064                   22873571.5554
 -85372978.95746 -66479371.35544  24138469.9694                   24138469.3754
 -33424635.49248 -25873452.59046  20907096.7034                   20907094.4414
 -26802936.60548 -20844500.96946  20987037.6024                   20987035.9024
 -62588342.98847 -48723279.16444  22946350.0394                   22946349.6884
 -52827952.56648 -41120546.79346  20828990.1414                   20828985.9844
 11  8 16  1 16  0.0000000  0  7G10G25G17G12G05G04G02
 -42147905.84448 -32802734.04346  21305362.1954                   21305360.6414
  -5938595.87947  -4503454.53145  22841258.8364                   22841259.6374
 -85398192.84846 -66499018.49244  24133672.4064                   24133671.9804
 -33536454.44948 -25960584.22746  20885818.1954                   20885815.7974
 -26954373.18448 -20962503.44146  20958220.1024                   20958217.9734
 -62597856.93747 -48730692.62544  22944539.9384                   22944538.8984
 -52901441.94548 -41177811.23846  20815005.4454                   20815001.2464
 11  8 16  1 16 30.0000000  0  7G10G25G17G12G05G04G02
 -42193244.90648 -32838063.17245  21296734.8134                   21296732.7704
  -6107985.66447  -4635446.53145  22809024.7274                   22809025.5784
 -85423192.31247 -66518498.56244  24128915.5554                   24128914.3054
 -33647676.48448 -26047250.73046  20864653.6954                   20864651.1564
 -27105285.90648 -21080097.72746  20929502.3754                   20929500.3674
 -62607324.06247 -48738069.61744  22942738.4924                   22942737.4264
 -52974698.69548 -41234894.40646  20801065.1024                   20801061.2624
 11  8 16  1 17  0.0000000  0  7G10G25G17G12G05G04G02
 -42237985.03548 -32872925.60245  21288220.6884                   21288218.9924
  -6276959.47348  -4767114.39845  22776870.4534                   22776870.7854
 -85447975.03547 -66537809.75044  24124199.6334                   24124198.4884
 -33758299.05148 -26133450.12146  20843602.7274                   20843600.3834
 -27255670.94548 -21197280.81246  20900885.0554                   20900883.0434
 -62616743.78147 -48745409.66044  22940946.0234                   22940944.3484
 -53047721.35948 -41291795.18046  20787169.6174                   20787165.5234
 11  8 16  1 17 30.0000000  0  7G10G25G17G12G05G04G02
 -42282129.64148 -32907323.98046  21279820.5554                   21279818.7774
  -6445516.27748  -4898457.33245  22744795.0704                   22744796.1024
 -85472542.73447 -66556953.37544  24119524.7894                   24119523.6254
 -33868322.76248 -26219182.87146  20822665.8204                   20822663.3324
 -27405527.92248 -21314052.43046  20872368.1484                   20872366.1214
 -62626118.97747 -48752715.00844  22939162.0784                   22939161.3164
 -53120512.84848 -41348515.80146  20773317.6174                   20773313.5514
 11  8 16  1 18  0.0000000  0  7G10G25G17G12G05G04G02
 -42325685.20748 -32941263.37146  21271531.9694                   21271530.5004
  -6613658.54747  -5029477.25845  22712798.8134                   22712799.2624
 -85496900.03547 -66575933.02744  24114889.8834                   24114888.4734
 -33977751.57448 -26304452.06246  20801842.2114                   20801840.1564
 -27554859.93448 -21430414.98846  20843951.3284                   20843949.2774
 -62635455.78547 -48759990.44944  22937385.4144                   22937384.3014
 -53193079.50448 -41405061.23846  20759508.3984                   20759504.4024
 11  8 16  1 18 30.0000000  0  7G10G25G17G12G05G04G02
 -42368651.33648 -32974743.45345  21263356.1724                   21263354.1414
  -6781381.33247  -5160170.30145  22680881.8284                   22680882.3444
 -85521044.43446 -66594746.82044  24110294.5704                   24110294.0434
 -34086582.21948 -26389255.15646  20781132.7894                   20781129.8364
 -27703662.55148 -21546365.02746  20815634.9694                   20815632.9884
 -62644752.79347 -48767234.85544  22935616.2274                   22935614.7854
 -53265419.91848 -41461430.38346  20745742.6334                   20745738.6484
 11  8 16  1 19  0.0000000  0  7G10G25G17G12G05G04G02
 -42411031.55548 -33007766.99246  21255291.2664                   21255289.7734
  -6948683.85548  -5290535.87545  22649045.3984                   22649045.7384
 -85544977.60947 -66613396.02044  24105739.8834                   24105739.1564
 -34194815.39548 -26473592.68046  20760536.2344                   20760533.4064
 -27851935.27048 -21661902.15246  20787419.6644                   20787417.5164
 -62654012.93047 -48774450.53544  22933853.7814                   22933853.1174
 -53337536.84848 -41517625.39146  20732019.3834                   20732015.1994
 11  8 16  1 19 30.0000000  0  7G10G25G17G12G05G04G02
 -42452830.16048 -33040337.32445  21247337.0394                   21247335.4064
  -7115565.75848  -5420573.68745  22617288.8364                   22617289.0784
 -85568701.41446 -66631882.06644  24101225.8524                   24101224.1724
 -34302452.47348 -26557465.71546  20740054.0164                   20740050.8484
 -27999679.32848 -21777027.34446  20759304.5234                   20759302.7304
 -62663239.51247 -48781640.07444  22932098.0234                   22932097.0394
 -53409433.49248 -41573648.73446  20718337.7424                   20718333.7774
 11  8 16  1 20  0.0000000  0  7G10G25G17G12G05G04G02
 -42494047.73448 -33072454.90246  21239494.0474                   21239491.8794
  -7282023.40648  -5550280.91045  22585613.1884                   22585613.6134
 -85592214.92646 -66650204.27043  24096751.3914                   24096749.8834
 -34409491.71148 -26640872.90246  20719684.4844                   20719681.9844
 -28146891.27748 -21891737.91046  20731291.1334                   20731289.5434
 -62672432.54347 -48788803.47744  22930348.6564                   22930347.2624
 -53481110.05548 -41629500.59846  20704698.4144                   20704694.0704
 11  8 16  1 20 30.0000000  0  7G10G25G17G12G05G04G02
 -42534686.76248 -33104121.66445  21231760.4614                   21231758.6644
  -7448055.11348  -5679656.23845  22554017.9844                   22554019.2154
 -85615518.67146 -66668362.99343  24092317.5234                   24092315.4344
 -34515932.72748 -26723813.95346  20699429.5554                   20699427.2544
 -28293570.03548 -22006032.99247  20703379.2894                   20703377.2384
 -62681593.88747 -48795942.18744  22928605.0314                   22928604.4734
 -53552568.18748 -41685182.25046  20691100.0314                   20691096.1094
 11  8 16  1 21  0.0000000  0  7G10G25G17G12G05G04G02
 -42574752.00448 -33135341.32845  21224136.2274                   21224134.4574
  -7613660.99647  -5808699.75045  22522504.4064                   22522505.0704
 -85638615.16046 -66686360.24643  24087921.7344                   24087920.7074
 -34621777.67648 -26806290.50846  20679288.2734                   20679285.5944
 -28439716.30548 -22119913.15646  20675568.6884                   20675566.4344
 -62690727.43447 -48803059.23844  22926867.1804                   22926866.2274
 -53623811.61748 -41740696.59446  20677542.6254                   20677539.1094
 11  8 16  1 21 30.0000000  0  7G10G25G17G12G05G04G02
 -42614246.30148 -33166116.09846  21216620.7894                   21216619.0474
  -7778839.48048  -5937410.21945  22491071.6254                   22491072.8054
 -85661505.49646 -66704196.84843  24083565.2894                   24083564.5004
 -34727026.22348 -26888302.34846  20659259.7814                   20659257.4614
 -28585329.26248 -22233377.74246  20647859.2114                   20647856.9064
 -62699834.97347 -48810156.00444  22925134.3054                   22925132.7274
 -53694842.67648 -41796045.45746  20664026.3914                   20664022.5904
 11  8 16  1 22  0.0000000  0  7G10G25G17G12G05G04G02
 -42653169.48048 -33196445.83646  21209213.9774                   21209211.8554
  -7943585.61347  -6065783.80545  22459721.2504                   22459722.2664
 -85684186.70346 -66721870.49643  24079249.6724                   24079248.3524
 -34831675.26648 -26969847.04746  20639345.6484                   20639343.0744
 -28730404.88748 -22346423.64146  20620252.1564                   20620249.8244
 -62708915.21147 -48817231.51644  22923405.9144                   22923405.3244
 -53765659.44548 -41851227.34846  20650550.2274                   20650546.2114
 11  8 16  1 22 30.0000000  0  7G10G25G17G12G05G04G02
 -41116104.50447 -31998732.85946  21501707.6644                   21501705.8754
  -6532473.81648  -4966216.13345  22728247.5314                   22728248.1054
 -84131240.27046 -65511782.31643  24374764.4224                   24374764.3594
 -33360303.30548 -25823323.42246  20919338.7814                   20919336.2894
 -27299518.68448 -21231447.32846  20892540.6804                   20892538.6604
 -61142551.41847 -47596688.29744  23221474.8054                   23221474.0044
 -52260843.21948 -40678643.25846  20936907.2034                   20936903.2304
 11  8 16  1 23  0.0000000  0  7G10G25G17G12G05G04G02
 -41153896.91048 -32028181.47745  21494515.9694                   21494514.2154
  -6696353.70347  -5093914.71145  22697062.0784                   22697062.6804
 -84153509.02746 -65529134.56643  24370527.9224                   24370526.2274
 -33463757.53948 -25903937.09846  20899652.2114                   20899649.2544
 -27443519.68748 -21343655.85946  20865138.1484                   20865136.4494
 -61151586.38747 -47603728.53144  23219756.2034                   23219755.0434
 -52331240.84048 -40733498.52346  20923510.8914                   20923507.1024
 11  8 16  1 23 30.0000000  0  7G10G25G17G12G05G04G02
 -41191124.98848 -32057190.35945  21487431.6954                   21487429.8204
  -6859795.04347  -5221271.57845  22665959.8284                   22665960.8134
 -84175569.68046 -65546324.65643  24366330.1024                   24366329.2034
 -33566611.39148 -25984082.93746  20880079.6484                   20880077.2734
 -27586979.21548 -21455442.45746  20837838.7424                   20837836.6484
 -61160598.43747 -47610750.90244  23218040.5784                   23218040.1884
 -52401428.61748 -40788190.28546  20910154.6954                   20910150.5204
 11  8 16  1 24  0.0000000  0  7G10G25G17G12G05G04G02
 -41227793.44947 -32085763.18045  21480454.0164                   21480452.2274
  -7022797.79747  -5348286.66845  22634942.1024                   22634942.5164
 -84197424.58246 -65563354.46943  24362170.8444                   24362170.0314
 -33668866.89148 -26063762.52346  20860621.0704                   20860618.2894
 -27729898.06648 -21566807.75046  20810642.0084                   20810639.8674
 -61169590.93447 -47617758.01644  23216329.4384                   23216329.2034
 -52471410.13748 -40842721.32446  20896837.7344                   20896833.4144
 11  8 16  1 24 30.0000000  0  7G10G25G17G12G05G04G02
 -41263906.37148 -32113903.10245  21473581.8054                   21473579.9184
  -7185361.48447  -5474959.63745  22604006.7034                   22604007.6054
 -84219075.82046 -65580225.51643  24358050.3834                   24358049.4264
 -33770525.18048 -26142976.75446  20841276.1174                   20841272.9614
 -27872276.44148 -21677751.90246  20783548.0864                   20783545.9304
 -61178567.04347 -47624752.40244  23214621.9064                   23214621.2774
 -52541188.42248 -40897093.98846  20883559.2194                   20883555.0474
 11  8 16  1 25  0.0000000  0  8G10G25G17G12G05G04G29G02
 -41299463.37548 -32141609.84445  21466815.4454                   21466813.8914
  -7347481.50847  -5601286.89545  22573156.4384                   22573157.2034
 -84240521.10546 -65596936.09843  24353969.9064                   24353969.4804
 -33871583.36748 -26221723.37146  20822045.1644                   20822042.6134
 -28014110.32448 -21788271.77046  20756558.4384                   20756556.1334
 -61187525.50847 -47631733.00444  23212916.7504                   23212915.8674
  15502763.11756  12112971.33253  24699023.8984                   24699023.6804
 -52610762.20348 -40951307.31646  20870319.6174                   20870315.8164
 11  8 16  1 25 30.0000000  0  8G10G25G17G12G05G04G29G02
 -41334472.53547 -32168889.71145  21460153.5164                   21460151.8754
  -7509161.05947  -5727270.93745  22542389.6094                   22542390.7774
 -84261765.85247 -65613490.42243  24349927.6954                   24349926.5944
 -33972046.73048 -26300006.49646  20802927.5314                   20802924.9144
 -28155403.92248 -21898370.62546  20729670.5704                   20729668.7584
 -61196472.87147 -47638704.96544  23211214.4534                   23211213.9304
  15331509.68847  11979527.13743  24666435.2664                   24666435.9574
 -52680138.43048 -41005366.69946  20857118.1254                   20857113.5204
 11  8 16  1 26  0.0000000  0  8G10G25G17G12G05G04G29G02
 -41368937.08247 -32195745.19545  21453594.8204                   21453593.3284
  -7670399.05547  -5852910.89845  22511707.1414                   22511707.5664
 -84282811.35246 -65629889.44143  24345921.5474                   24345920.4924
 -34071915.78148 -26377826.51246  20783923.1954                   20783920.8554
 -28296156.52748 -22008047.94146  20702886.3204                   20702884.9104
 -61205411.75047 -47645670.34844  23209513.1804                   23209512.4614
  15160195.65647  11846035.71943  24633835.2734                   24633835.0434
 -52749318.96148 -41059273.59046  20843953.1724                   20843948.9534
 11  8 16  1 26 30.0000000  0  8G10G25G17G12G05G04G29G02
 -41402858.60948 -32222177.55145  21447139.9534                   21447138.6414
  -7831192.72747  -5978204.63345  22481109.7034                   22481109.8284
 -84303657.44146 -65646133.14543  24341955.4614                   24341954.3164
 -34171189.68748 -26455182.78946  20765032.1174                   20765029.7194
 -28436366.64848 -22117302.53946  20676205.4224                   20676203.3834
 -61214342.52347 -47652629.39144  23207813.7114                   23207813.1764
  14988821.85246  11712497.77743  24601224.1564                   24601223.6374
 -52818304.75848 -41113028.73846  20830825.8134                   20830821.2384
 11  8 16  1 27  0.0000000  0  8G10G25G17G12G05G04G29G02
 -41436241.90648 -32248190.49245  21440787.4064                   21440785.6764
  -7991542.21547  -6103152.24645  22450595.9144                   22450596.6844
 -84324306.77747 -65662223.45743  24338026.6334                   24338024.7894
 -34269870.78548 -26532077.12546  20746253.7194                   20746250.8874
 -28576035.27748 -22226135.19546  20649627.2584                   20649625.0164
 -61223268.69147 -47659584.84444  23206115.5784                   23206114.3594
  14817386.76246  11578912.06643  24568601.4224                   24568600.7384
 -52887099.63748 -41166635.12546  20817734.5164                   20817730.2734
 11  8 16  1 27 30.0000000  0  8G10G25G17G12G05G04G29G02
 -41469087.21548 -32273784.22745  21434537.1174                   21434535.2074
  -8151443.16047  -6227750.35945  22420167.3204                   22420168.1414
 -84344756.75846 -65678158.50043  24334133.5084                   24334132.6484
 -34367956.19548 -26608507.30146  20727588.6414                   20727586.0474
 -28715158.34448 -22334542.74246  20623152.8594                   20623151.0164
 -61232189.12547 -47666535.83244  23204417.4144                   23204416.8324
  14645892.93046  11445280.60243  24535966.3134                   24535966.6254
 -52955702.03148 -41220091.52346  20804679.8674                   20804675.6954
 11  8 16  1 28  0.0000000  0  8G10G25G17G12G05G04G29G02
 -41501396.24648 -32298960.09845  21428389.1174                   21428387.1564
  -8310892.63747  -6351996.66445  22389825.0784                   22389825.2814
 -84365007.09847 -65693937.91444  24330281.4534                   24330279.1334
 -34465444.83248 -26684472.45346  20709037.2114                   20709034.4454
 -28853734.23848 -22442523.91446  20596782.8054                   20596780.4734
 -61241104.41447 -47673482.82044  23202720.9844                   23202720.7384
  14474341.32446  11311604.14543  24503320.9304                   24503321.4534
 -53024112.78948 -41273398.59046  20791661.7034                   20791657.2424
 11  8 16  1 28 30.0000000  0  8G10G25G17G12G05G04G29G02
 -41533171.02047 -32323719.64845  21422341.9144                   21422340.4344
  -8469888.23848  -6475889.30545  22359569.6334                   22359570.0904
 -84385057.66046 -65709561.64844  24326465.6254                   24326464.0354
 -34562336.44548 -26759972.39846  20690599.3284                   20690596.4734
 -28991761.32048 -22550077.44546  20570517.3754                   20570515.5004
 -61250015.36746 -47680426.44144  23201025.7194                   23201024.8594
  14302732.55146  11177883.11743  24470664.9534                   24470664.2894
 -53092332.89548 -41326557.11346  20778680.0864                   20778675.4574
 11  8 16  1 29  0.0000000  0  8G10G25G17G12G05G04G29G02
 -41564412.88748 -32348063.95745  21416397.1954                   21416395.4774
  -8628426.77747  -6599425.78945  22329400.6024                   22329400.8204
 -84404907.96146 -65725029.38344  24322688.1254                   24322686.7974
 -34658629.39148 -26835005.84046  20672275.1564                   20672272.6254
 -29129237.16848 -22657201.44546  20544356.4064                   20544354.2584
 -61258922.18046 -47687366.79344  23199330.2274                   23199329.8714
  14131068.23046  11044118.82043  24437997.8834                   24437998.0944
 -53160362.31648 -41379567.04346  20765734.2034                   20765729.8594
 11  8 16  1 29 30.0000000  0  8G10G25G17G12G05G04G29G02
 -41595123.54748 -32371994.32445  21410553.2344                   21410551.4344
  -8786505.43048  -6722603.92645  22299319.0084                   22299319.4924
 -84424557.45746 -65740340.65243  24318948.0634                   24318947.5434
 -34754323.58248 -26909572.72746  20654065.3754                   20654062.6954
 -29266159.81248 -22763894.37147  20518300.8444                   20518298.8164
 -61267825.11346 -47694304.14844  23197636.0944                   23197635.1334
  13959349.47746  10910312.10543  24405320.6174                   24405321.2034
 -53228201.55548 -41432428.77746  20752825.2344                   20752820.8634
 11  8 16  1 30  0.0000000  0  8G10G25G17G12G05G04G29G02
 -41625304.97747 -32395512.31245  21404809.9144                   21404807.6054
  -8944121.66047  -6845421.73045  22269325.5704                   22269326.1844
 -84444005.75846 -65755495.14544  24315247.8914                   24315246.8594
 -34849417.92648 -26983672.19546  20635969.6724                   20635966.4774
 -29402527.48848 -22870154.85547  20492351.0704                   20492348.5864
 -61276724.73446 -47701238.94143  23195942.4224                   23195942.5474
  13787577.10946  10776463.64143  24372633.7664                   24372633.8484
 -53295851.50448 -41485143.01646  20739951.7114                   20739947.5084
 11  8 16  1 30 30.0000000  0  8G10G25G17G12G05G04G29G02
 -41654961.08648 -32418620.95745  21399166.4924                   21399164.9224
  -9101274.58247  -6967878.50445  22239420.2894                   22239421.2274
 -84463254.35246 -65770494.00043  24311584.9144                   24311584.1174
 -34943913.60248 -27057305.16446  20617987.4304                   20617984.7974
 -29538340.24248 -22975982.93746  20466506.4454                   20466504.6684
 -61285623.73046 -47708173.20344  23194249.6174                   23194248.8914
  13615750.24646  10642572.67643  24339935.9774                   24339936.2814
 -53363314.41448 -41537711.49646  20727113.9384                   20727109.3404
 11  8 16  1 31  0.0000000  0  8G10G25G17G12G05G04G29G02
 -40108671.17647 -31213719.73045  21693415.7814                   21693413.8834
  -7682534.84847  -5862366.97745  22509397.4694                   22509398.1054
 -82906880.84446 -64557735.41444  24607752.7584                   24607752.2774
 -33462385.29348 -25902867.50446  20899913.0634                   20899910.4184
 -28098170.51648 -21853772.72746  20740561.8054                   20740559.3874
 -59719100.95346 -46487506.09444  23492348.8754                   23492347.8204
  15019297.19546  11736245.74243  24607022.3754                   24607021.8054
 -51855167.35548 -40362531.96146  21014104.5084                   21014100.4574
 11  8 16  1 31 30.0000000  0  8G10G25G17G12G05G04G29G02
 -40137280.98847 -31236013.08645  21687971.6024                   21687969.4804
  -7838751.93047  -5984094.53545  22479670.2194                   22479670.9614
 -82925727.77346 -64572421.31643  24604166.4924                   24604165.3634
 -33555680.12148 -25975564.76247  20882159.5554                   20882156.8164
 -28232867.10248 -21958731.06246  20714929.8364                   20714928.0234
 -59727998.66446 -46494439.38344  23490655.3754                   23490654.4344
  14847365.97746  11602273.44943  24574304.4844                   24574304.4304
 -51922256.90648 -40414809.52046  21001337.7734                   21001333.7304
 11  8 16  1 32  0.0000000  0  8G10G25G17G12G05G04G29G02
 -40165371.40647 -31257901.71945  21682626.0314                   21682623.9734
  -7994497.98047  -6105455.05145  22450032.8134                   22450033.2424
 -82944374.31246 -64586951.05143  24600618.3984                   24600617.3444
 -33648374.24248 -26047793.92646  20864520.4304                   20864517.5704
 -28367003.97348 -22063253.27046  20689404.2734                   20689402.2344
 -59736897.34447 -46501373.39844  23488962.2114                   23488961.3364
  14675383.27046  11468261.02343  24541577.6024                   24541577.6804
 -51989161.67648 -40466943.09046  20988606.3754                   20988602.0274
 11  8 16  1 32 30.0000000  0  8G10G25G17G12G05G04G29G02
 -40192944.14147 -31279386.95745  21677378.7344                   21677377.2974
  -8149770.20747  -6226446.35945  22420485.4384                   22420486.3364
 -82962819.91445 -64601324.22343  24597108.8054                   24597106.3404
 -33740467.23048 -26119554.67646  20846995.7894                   20846992.9884
 -28500579.03548 -22167337.68446  20663985.6024                   20663983.2774
 -59745797.34047 -46508308.42644  23487269.3674                   23487267.1644
  14503350.09846  11334209.30543  24508840.7344                   24508840.9104
 -52055881.85248 -40518932.82046  20975910.0784                   20975905.8244
 11  8 16  1 33  0.0000000  0  7G10G25G12G05G04G29G02
 -40220004.52047 -31300472.96545  21672229.6414                   21672227.6374
  -8304569.28547  -6347068.97345  22391028.5164                   22391029.1454
 -33831962.01648 -26190849.28946  20829584.7194                   20829582.1954
 -28633593.98848 -22270985.66046  20638673.9924                   20638671.7194
 -59754702.22346 -46515247.30544  23485574.3204                   23485573.8094
  14331264.53946  11200116.71543  24476093.5164                   24476093.6214
 -52122421.56248 -40570781.93746  20963247.4694                   20963243.4574
 11  8 16  1 33 30.0000000  0  7G10G25G12G05G04G29G02
 -40246554.21547 -31321161.03145  21667177.4304                   21667175.8954
  -8458892.15647  -6467320.52345  22361661.5394                   22361662.2074
 -33922856.50448 -26261676.14846  20812288.3284                   20812285.3914
 -28766046.65248 -22374195.49647  20613468.8754                   20613466.9384
 -59763612.16047 -46522190.09044  23483878.7344                   23483878.2704
  14159128.32447  11065984.65644  24443337.4774                   24443337.6804
 -52188780.63348 -40622490.28946  20950619.9454                   20950616.0944
 11  8 16  1 34  0.0000000  0  7G10G25G12G05G04G29G02
 -40272592.24647 -31341450.40645  21662222.3284                   21662220.4924
  -8612733.62547  -6587196.95345  22332386.5944                   22332387.3134
 -34013148.85548 -26332033.80546  20795106.0554                   20795103.2154
 -28897932.82448 -22476963.90647  20588371.8204                   20588369.7544
 -59772525.07846 -46529135.23444  23482182.8914                   23482181.9024
  13986944.88747  10931815.77744  24410572.0784                   24410571.9574
 -52254957.39148 -40674056.57446  20938026.9304                   20938022.9024
 11  8 16  1 34 30.0000000  0  7G10G25G12G05G04G29G02
 -40298117.56247 -31361340.26245  21657365.1644                   21657363.5904
  -8766087.80148  -6706693.67645  22303204.0784                   22303204.7154
 -34102834.92248 -26401919.04346  20778039.2424                   20778036.4964
 -29029247.28548 -22579286.82046  20563383.3914                   20563381.0044
 -59781438.02747 -46536080.37144  23480486.4384                   23480485.9774
  13814718.61747  10797613.53144  24377798.5864                   24377798.3594
 -52320948.87948 -40725478.50446  20925469.2894                   20925464.6604
 11  8 16  1 35  0.0000000  0  7G10G25G12G05G04G29G02
 -40323133.93447 -31380833.53945  21652604.6174                   21652602.7304
  -8918953.95348  -6825810.12145  22274114.5554                   22274115.1844
 -34191916.00848 -26471332.85546  20761087.7734                   20761085.2344
 -29159990.63748 -22681164.72747  20538503.8204                   20538501.6374
 -59790353.30146 -46543027.32044  23478789.8594                   23478788.8714
  13642448.60946  10663377.19144  24345015.9924                   24345016.7114
 -52386757.60248 -40776758.00846  20912946.1644                   20912942.0474
 11  8 16  1 35 30.0000000  0  7G10G25G12G05G04G29G02
 -40347641.82447 -31399930.59045  21647940.7814                   21647939.0664
  -9071327.77748  -6944542.93745  22245118.8204                   22245119.3794
 -34280389.49648 -26540273.22346  20744251.9614                   20744249.0664
 -29290159.65648 -22782595.09047  20513733.4144                   20513731.0784
 -59799269.38346 -46549974.92244  23477093.4614                   23477092.4774
  13470138.10946  10529109.30544  24312226.6954                   24312226.5044
 -52452382.06648 -40827893.93046  20900458.6884                   20900454.2274
 11  8 16  1 36  0.0000000  0  7G10G25G12G05G04G29G02
 -40371647.75447 -31418636.50845  21643372.6414                   21643370.7034
  -9223211.52348  -7062893.87145  22216216.3364                   22216216.6914
 -34368259.65248 -26608743.46546  20727530.7664                   20727527.9804
 -29419757.53548 -22883580.41447  20489071.8914                   20489069.3714
 -59808191.69546 -46556927.37544  23475395.4774                   23475394.5864
  13297783.52747  10394807.07844  24279428.7974                   24279428.5984
 -52517827.94948 -40878890.70746  20888004.0704                   20888000.0864
 11  8 16  1 36 30.0000000  0  7G10G25G12G05G04G29G02
 -40395155.77047 -31436954.44945  21638899.9144                   21638897.8634
  -9374604.43748  -7180862.34445  22187407.3204                   22187407.5164
 -34455528.59848 -26676745.23846  20710924.2344                   20710920.8244
 -29548784.22748 -22984120.65647  20464518.5394                   20464516.4304
 -59817122.30947 -46563886.32844  23473695.9924                   23473695.2274
  13125384.21147  10260469.96944  24246622.3594                   24246621.8834
 -52583097.41848 -40929750.00446  20875583.9534                   20875579.9654
 11  8 16  1 37  0.0000000  0  7G10G25G12G05G04G29G02
 -40418169.14847 -31454886.94945  21634520.0004                   21634518.1994
  -9525505.22348  -7298447.33645  22158691.6644                   22158691.9534
 -34542196.62948 -26744278.76246  20694431.5554                   20694428.7344
 -29677239.65648 -23084215.75447  20440074.6804                   20440072.3954
 -59826062.74247 -46570852.89144  23471994.8524                   23471993.5704
  12952939.83247  10126097.78544  24213806.9534                   24213807.2194
 -52648192.10248 -40980473.11346  20863197.0234                   20863192.8094
 11  8 16  1 37 30.0000000  0  7G10G25G12G05G04G29G02
 -40440689.17647 -31472435.02045  21630234.8594                   21630232.9694
  -9675910.85948  -7415646.50045  22130070.4924                   22130070.3554
 -34628263.01248 -26811343.46546  20678053.6804                   20678050.6454
 -29805121.77348 -23183864.11746  20415739.3594                   20415736.9304
 -59835013.00846 -46577827.12144  23470291.5634                   23470291.2504
  12780452.21147   9991691.91044  24180983.8834                   24180983.6914
 -52713112.12948 -41031060.12946  20850843.2584                   20850838.8634
 11  8 16  1 38  0.0000000  0  7G10G25G12G05G04G29G02
 -40462721.89147 -31489603.36745  21626042.5084                   21626040.1604
  -9825822.38748  -7532460.64545  22101542.7274                   22101543.6334
 -34713731.05948 -26877941.93746  20661789.4064                   20661786.9104
 -29932432.66448 -23283067.37147  20391512.8134                   20391510.5204
 -59843976.88346 -46584811.95344  23468585.7734                   23468585.2424
  12607919.10946   9857250.55544  24148151.9454                   24148151.2344
 -52777861.66048 -41081514.29346  20838521.6804                   20838517.3404
 11  8 16  1 38 30.0000000  0  7G10G25G12G05G04G29G02
 -40484267.03947 -31506391.79745  21621942.2814                   21621940.4844
  -9975235.53148  -7648886.44546  22073110.5164                   22073110.9654
 -34798598.22348 -26944072.19546  20645639.9844                   20645636.9304
 -30059168.76648 -23381822.73847  20367395.6884                   20367393.3794
 -59852953.06646 -46591806.39144  23466877.6884                   23466876.9734
  12435343.39846   9722776.03943  24115311.5084                   24115311.7504
 -52842439.36348 -41131834.56246  20826232.9694                   20826228.3204
 11  8 16  1 39  0.0000000  0  7G10G25G12G05G04G29G02
 -40505328.58247 -31522803.38345  21617934.4304                   21617932.8164
 -10124149.41848  -7764923.21146  22044773.6094                   22044773.7934
 -34882866.37948 -27009735.69546  20629604.1724                   20629601.3914
 -30185330.71948 -23480130.71147  20343387.9454                   20343385.5904
 -59861943.21547 -46598811.70744  23465167.1254                   23465166.3794
  12262724.75446   9588268.09043  24082463.7814                   24082463.0824
 -52906847.25048 -41182022.51246  20813976.3364                   20813972.1644
 11  8 16  1 39 30.0000000  0  7G10G25G12G05G04G29G02
 -40525910.72347 -31538841.41445  21614017.6094                   21614015.9454
 -10272563.65648  -7880570.63746  22016531.1024                   22016531.4614
 -34966536.99648 -27074933.56646  20613682.1484                   20613679.8284
 -30310919.03948 -23577991.69947  20319488.9384                   20319487.0864
 -59870949.89847 -46605829.89143  23463452.3754                   23463451.8324
  12090062.29746   9453725.97343  24049606.5004                   24049606.6294
 -52971087.91848 -41232080.15646  20801751.9144                   20801747.5704
 11  8 16  1 40  0.0000000  0  7G10G25G12G05G04G29G02
 -38970595.17647 -30326907.21145  21909984.2734                   21909982.2664
  -8845050.90248  -6768223.00846  22288177.7424                   22288178.4884
 -33474187.00448 -25912063.43746  20897667.0164                   20897664.2734
 -28860508.32848 -22447801.49647  20595493.1804                   20595490.8244
 -58304553.02747 -45385260.85244  23761528.1954                   23761527.0514
  13492783.16446  10546755.29343  24316535.7504                   24316535.3524
 -51459739.84448 -40054406.30546  21089351.9064                   21089347.9494
 11  8 16  1 40 30.0000000  0  7G10G25G12G05G04G29G02
 -38990224.65647 -30342202.90245  21906249.0634                   21906247.2034
  -8992458.16848  -6883085.78546  22260127.1644                   22260127.5434
 -33556661.31248 -25976329.12946  20881972.7894                   20881969.9574
 -28984944.91848 -22544765.03947  20571813.8594                   20571811.8914
 -58313593.19147 -45392305.12143  23759808.6094                   23759806.5274
  13320037.41046  10412148.29743  24283663.4614                   24283662.9614
 -51523647.23848 -40104204.26246  21077190.5314                   21077186.5634
 11  8 16  1 41  0.0000000  0  7G10G25G12G05G04G29G02
 -39009381.30147 -30357130.16045  21902603.7894                   21902601.7584
  -9139358.59848  -6997553.62146  22232172.5084                   22232172.8634
 -33638537.61748 -26040128.84446  20866392.0164                   20866389.2154
 -29108803.63348 -22641278.28147  20548244.1644                   20548241.5164
 -58322650.82847 -45399363.00844  23758084.7664                   23758083.6414
  13147251.68046  10277510.14143  24250783.3134                   24250782.8754
 -51587388.95348 -40153873.11346  21065060.9924                   21065056.6724
 11  8 16  1 41 30.0000000  0  7G10G25G12G05G04G29G02
 -39028071.07447 -30371693.60545  21899047.5164                   21899045.3634
  -9285753.43448  -7111627.49646  22204314.8914                   22204315.0234
 -33719819.32448 -26103465.23046  20850924.6644                   20850921.4924
 -29232087.11348 -22737343.30547  20524783.9454                   20524781.7424
 -58331729.92647 -45406437.59044  23756356.8134                   23756355.8364
  12974423.45346  10142838.85543  24217894.8984                   24217894.3954
 -51650968.95348 -40203415.94946  21052961.8054                   21052957.5204
 11  8 16  1 42  0.0000000  0  7G10G25G12G05G04G29G02
 -39046295.18447 -30385894.21545  21895579.0164                   21895576.9414
  -9431639.37148  -7225304.82446  22176553.3594                   22176553.8914
 -33800505.12948 -26166337.27746  20835570.7584                   20835567.9414
 -29354792.99648 -22832958.24247  20501433.8134                   20501431.6764
 -58340829.65247 -45413528.29744  23754625.2114                   23754624.6254
  12801554.95346  10008136.22743  24184999.2584                   24184998.4184
 -51714386.76648 -40252832.40646  21040894.3284                   21040889.7114
 11  8 16  1 42 30.0000000  0  7G10G25G12G05G04G29G02
 -39064056.32847 -30399734.04345  21892199.1804                   21892197.3984
  -9577014.92648  -7338584.44546  22148889.4384                   22148889.9614
 -33880596.18448 -26228745.88746  20820329.8284                   20820327.1024
 -29476921.23448 -22928123.06647  20478193.5004                   20478191.5664
 -58349951.35547 -45420636.09043  23752889.6024                   23752888.6524
  12628646.52746   9873402.43044  24152095.5314                   24152095.3954
 -51777643.85248 -40302123.62946  21028856.6174                   21028852.1174
 11  8 16  1 43  0.0000000  0  7G10G25G12G05G04G29G02
 -39081356.27047 -30413214.52745  21888907.1564                   21888905.8674
  -9721877.50448  -7451464.34046  22121322.9614                   22121323.1644
 -33960092.04348 -26290690.69946  20805202.4224                   20805199.6294
 -29598470.00048 -23022836.35547  20455063.6804                   20455060.8714
 -58359094.73447 -45427760.77044  23751149.2814                   23751148.5354
  12455699.85946   9738638.89544  24119184.2974                   24119184.6414
 -51840740.53148 -40351289.85946  21016849.6564                   21016844.9804
 11  8 16  1 43 30.0000000  0  7G10G25G12G05G04G29G02
 -39098196.93047 -30426337.10545  21885702.5944                   21885700.6484
  -9866224.40248  -7563942.41446  22093854.8204                   22093854.8834
 -34038992.23848 -26352171.36746  20790188.1024                   20790185.3094
 -29719437.77748 -23117096.92647  20432044.1564                   20432042.0984
 -58368259.85946 -45434902.41043  23749405.2344                   23749404.8754
  12282716.50847   9603846.73844  24086266.8754                   24086266.7464
 -51903676.80548 -40400331.09846  21004873.4224                   21004868.9654
 11  8 16  1 44  0.0000000  0  7G10G25G12G05G04G29G02
 -39114582.78547 -30439105.31245  21882584.2734                   21882582.8444
 -10010055.23448  -7676018.35946  22066484.5864                   22066485.1454
 -34117298.80148 -26413189.45346  20775286.9304                   20775283.9534
 -29839825.27748 -23210905.34847  20409134.9454                   20409132.6254
 -58377448.67247 -45442062.52743  23747656.6884                   23747656.4964
  12109696.07047   9469025.66444  24053342.7734                   24053342.3594
 -51966454.98048 -40449249.14846  20992927.1024                   20992923.0944
 11  8 16  1 44 30.0000000  0  7G10G25G12G05G04G29G02
 -39130513.42647 -30451518.78545  21879552.8444                   21879551.0394
 -10153365.19948  -7787688.40646  22039213.4224                   22039214.0434
 -34195009.04348 -26473742.87546  20760499.0704                   20760495.9884
 -29959628.57048 -23304258.53147  20386337.1174                   20386334.6914
 -58386659.07046 -45449239.47743  23745903.6414                   23745903.2584
  11936642.26647   9334178.62544  24020411.8284                   24020411.0164
 -52029072.82048 -40498042.24246  20981010.9614                   20981006.9574
 11  8 16  1 45  0.0000000  0  7G10G25G12G05G04G29G02
 -39145992.09847 -30463580.08645  21876607.3754                   21876605.7774
 -10296153.27748  -7898951.80946  22012041.7034                   22012042.1604
 -34272123.77348 -26533832.25846  20745824.8364                   20745822.0394
 -30078848.38348 -23397157.05547  20363650.5164                   20363648.3634
 -58395892.57446 -45456434.39843  23744146.4774                   23744146.6844
  11763555.43047   9199305.81344  23987473.4694                   23987473.6454
 -52091532.19948 -40546711.87546  20969125.2424                   20969121.4964
 11  8 16  1 45 30.0000000  0  7G10G25G12G05G04G29G02
 -39161025.59047 -30475294.48045  21873746.8134                   21873744.7734
 -10438421.43448  -8009810.07846  21984969.1094                   21984969.3794
 -34348647.60948 -26593461.21546  20731262.3674                   20731259.8914
 -30197487.52048 -23489603.10547  20341074.1884                   20341071.7464
 -58405153.41446 -45463650.66443  23742383.8914                   23742384.2814
  11590432.38347   9064404.78944  23954529.5784                   23954528.9024
 -52153837.46148 -40595261.41846  20957269.1174                   20957264.9344
 11  8 16  1 46  0.0000000  0  7G10G25G12G05G04G29G02
 -39175616.53147 -30486664.04345  21870970.4454                   21870968.0204
 -10580168.03148  -8120261.93446  21957995.5554                   21957995.9614
 -34424581.54748 -26652630.49646  20716812.5944                   20716810.1564
 -30315545.12948 -23581596.01647  20318608.6484                   20318606.5164
 -58414442.55546 -45470888.92243  23740616.5084                   23740616.0354
  11417274.02747   8929476.24644  23921578.5784                   23921578.5904
 -52215989.81648 -40643691.80946  20945442.2504                   20945437.6804
 11  8 16  1 46 30.0000000  0  7G10G25G12G05G04G29G02
 -39189765.80947 -30497689.44145  21868277.3754                   21868275.7344
 -10721389.48048  -8230304.57446  21931121.7584                   21931121.9264
 -34499924.30948 -26711339.12546  20702475.3364                   20702472.8134
 -30433019.21548 -23673134.23047  20296253.7664                   20296251.7504
 -58423758.66447 -45478148.24244  23738844.3364                   23738843.7734
  11244083.06646   8794522.30944  23888621.7344                   23888621.1684
 -52277988.37548 -40692002.35946  20933644.1414                   20933639.6484
 11  8 16  1 47  0.0000000  0  7G10G25G12G05G04G29G02
 -39203476.66447 -30508373.22345  21865668.6024                   21865666.5904
 -10862084.44548  -8339936.97746  21904348.3914                   21904348.9884
 -34574676.74648 -26769587.76646  20688250.3364                   20688247.9104
 -30549909.61348 -23764217.62547  20274010.4224                   20274007.6134
 -58433102.83647 -45485429.39844  23737065.4774                   23737064.9224
  11070859.80546   8659543.19144  23855658.5234                   23855657.9024
 -52339834.35248 -40740194.01246  20921875.3594                   20921870.7074
 11  8 16  1 47 30.0000000  0  7G10G25G12G05G04G29G02
 -39216753.52347 -30518718.82845  21863141.5864                   21863139.7704
 -11002252.94148  -8449159.13746  21877675.7274                   21877675.6174
 -34648840.89548 -26827378.00046  20674137.6724                   20674135.1174
 -30666217.33248 -23854846.98847  20251877.5554                   20251875.2734
 -58442477.48847 -45492734.34843  23735281.8204                   23735281.8094
  10897603.93847   8524538.68044  23822688.3754                   23822688.6134
 -52401530.38748 -40788268.83646  20910135.1254                   20910130.4454
 11  8 16  1 48  0.0000000  0  7G10G25G12G05G04G29G02
 -39229597.93447 -30528727.44145  21860697.3984                   21860695.7074
 -11141892.06248  -8557968.80546  21851102.6954                   21851103.4224
 -34722416.39848 -26884709.55546  20660136.7584                   20660133.7854
 -30781940.53548 -23945020.88347  20229856.4224                   20229853.8324
 -58451881.81646 -45500062.36744  23733492.7344                   23733491.4384
  10724317.28547   8389510.14844  23789713.4694                   23789713.0664
 -52463075.85548 -40836226.31646  20898423.2504                   20898418.8324
 11  8 16  1 48 30.0000000  0  7G10G25G12G05G04G29G02
 -37666593.12947 -29310801.61345  22158127.4304                   22158125.8324
  -9705576.72748  -7438762.02046  22124424.3364                   22124424.9064
 -33219982.29748 -25713981.67246  20946040.2114                   20946037.7504
 -29321656.47348 -22807137.17247  20507739.0004                   20507736.6484
 -56885897.54347 -44279814.86744  24031488.8444                   24031488.7974
  12126425.25046   9482061.86744  24056524.6884                   24056525.2274
 -50949051.11348 -39656466.77046  21186532.6254                   21186527.8674
 11  8 16  1 49  0.0000000  0  7G10G25G12G05G04G29G02
 -37678581.28148 -29320143.02745  22155846.4614                   22155844.2344
  -9844152.95748  -7546743.45346  22098054.4844                   22098054.7074
 -33292382.95348 -25770397.76646  20932263.1334                   20932260.5354
 -29436210.46548 -22896399.98847  20485940.0944                   20485937.8204
 -56895364.27047 -44287191.54343  24029688.2894                   24029687.5044
  11953079.20747   9346987.05144  24023539.3754                   24023538.4614
 -51010299.44948 -39704192.73046  21174877.5084                   21174872.8524
 11  8 16  1 49 30.0000000  0  7G10G25G12G05G04G29G02
 -37690144.89847 -29329153.62545  22153645.9304                   22153643.9804
  -9982194.36748  -7654308.15246  22071786.0234                   22071785.9964
 -33364196.95748 -25826356.72746  20918597.2034                   20918594.3714
 -29550178.30548 -22985206.06247  20464252.8284                   20464250.5314
 -56904862.16447 -44294592.48843  24027880.5704                   24027879.8204
  11779705.74247   9211890.90244  23990546.8674                   23990546.5864
 -51071399.39148 -39751803.06246  21163250.3524                   21163245.9844
 11  8 16  1 50  0.0000000  0  7G10G25G12G05G04G29G02
 -37701286.93747 -29337835.73845  22151525.8754                   22151523.1954
 -10119699.63748  -7761455.07846  22045619.5394                   22045620.0784
 -33435424.87148 -25881858.98846  20905043.0394                   20905040.5204
 -29663559.81248 -23073555.26247  20442676.9844                   20442674.7894
 -56914392.04746 -44302018.35243  24026066.4694                   24026066.6994
  11606305.73446   9076774.07044  23957549.7734                   23957549.7034
 -51132352.34048 -39799298.84446  21151651.2504                   21151646.9654
 11  8 16  1 50 30.0000000  0  7G10G25G12G05G04G29G02
 -37712010.67247 -29346191.87945  22149485.1174                   22149482.8834
 -10256667.60248  -7868183.32046  22019555.5164                   22019555.6954
 -33506067.94948 -25936905.54346  20891600.2424                   20891596.9804
 -29776355.11348 -23161447.66847  20421212.7114                   20421210.1764
 -56923954.89846 -44309469.87543  24024247.1174                   24024246.0004
  11432879.54346   8941636.82844  23924548.3054                   23924547.6414
 -51193159.18748 -39846680.78546  21140080.2974                   21140075.5744
 11  8 16  1 51  0.0000000  0  7G10G25G12G05G04G29G02
 -37722318.18447 -29354223.69945  22147523.5784                   22147521.6884
 -10393096.21148  -7974491.28546  21993593.8914                   21993594.3364
 -33576126.48848 -25991496.59846  20878268.5554                   20878265.5124
 -29888563.37148 -23248882.65247  20399860.0554                   20399857.4304
 -56933550.96147 -44316947.32843  24022421.5864                   24022419.8914
  11259428.73446   8806480.43044  23891541.3444                   23891541.0314
 -51253820.39548 -39893949.24246  21128536.6334                   21128532.1914
 11  8 16  1 51 30.0000000  0  7G10G25G12G05G04G29G02
 -37732214.09047 -29361934.79345  22145640.1484                   22145638.2464
 -10528985.60248  -8080379.08246  21967735.0084                   21967735.2154
 -33645602.78548 -26045633.96946  20865047.7274                   20865044.7504
 -30000185.62948 -23335861.00047  20378619.1094                   20378616.9884
 -56943182.24646 -44324452.22343  24020588.8134                   24020587.7194
  11085952.50446   8671304.21543  23858529.8364                   23858529.1454
 -51314338.34848 -39941106.06646  21117020.4064                   21117016.0634
 11  8 16  1 52  0.0000000  0  7G10G25G12G05G04G29G02
 -37741704.46547 -29369329.88345  22143834.3284                   22143832.2384
 -10664337.47348  -8185848.03546  21941978.1484                   21941978.8874
 -33714501.28148 -26099321.10546  20851936.6804                   20851933.7344
 -30111225.25448 -23422385.35247  20357489.2814                   20357486.6374
 -56952852.80946 -44331987.64843  24018747.4144                   24018747.1414
  10912448.77346   8536106.53543  23825513.4064                   23825512.3594
 -51374717.26648 -39988154.55946  21105530.6024                   21105526.1684
 11  8 16  1 52 30.0000000  0  7G10G25G12G05G04G29G02
 -37750787.81247 -29376407.81645  22142105.8984                   22142103.7814
 -10799145.88348  -8290893.51646  21916325.1024                   21916325.4804
 -33782818.58648 -26152555.36746  20838935.9454                   20838933.6484
 -30221677.29748 -23508451.84847  20336470.5864                   20336468.0474
 -56962558.54346 -44339550.55943  24016900.2194                   24016900.1844
  10738922.93446   8400891.66044  23792492.4534                   23792491.0664
 -51434953.67248 -40035092.00446  21094068.2814                   21094063.7934
 11  8 16  1 53  0.0000000  0  7G10G25G12G05G04G29G02
 -37759467.27047 -29383171.02745  22140453.6024                   22140452.4964
 -10933409.93448  -8395514.81646  21890775.5394                   21890775.6054
 -33850555.82848 -26205337.62946  20826046.3914                   20826043.6564
 -30331542.01248 -23594060.69147  20315564.1414                   20315561.8484
 -56972300.74646 -44347141.86343  24015047.0164                   24015045.5984
  10565375.17647   8265659.69144  23759467.1174                   23759466.3674
 -51495048.65648 -40081919.25046  21082632.2114                   21082627.9804
 11  8 16  1 53 30.0000000  0  7G10G25G12G05G04G29G02
 -37767744.59847 -29389620.87545  22138878.8914                   22138877.0664
 -11067127.12948  -8499709.98846  21865329.8594                   21865330.0084
 -33917712.74248 -26257667.69146  20813266.8204                   20813264.0274
 -30440818.21548 -23679210.95347  20294769.4844                   20294767.1374
 -56982078.75446 -44354761.12543  24013186.4924                   24013186.1024
  10391807.78147   8130412.43444  23726438.2114                   23726437.6564
 -51555002.17648 -40128636.26246  21071223.3364                   21071219.1564
 11  8 16  1 54  0.0000000  0  7G10G25G12G05G04G29G02
 -37775627.30547 -29395763.25045  22137379.0864                   22137377.6684
 -11200300.43448  -8603481.35946  21839988.0314                   21839988.0594
 -33984294.97748 -26309549.94146  20800596.7664                   20800593.5944
 -30549510.30148 -23763906.04747  20274085.9384                   20274083.4884
 -56991897.76246 -44362412.25843  24011317.6094                   24011317.7854
  10218217.41847   7995147.26644  23693405.1644                   23693403.6334
 -51614819.30148 -40175246.99246  21059840.7344                   21059836.4734
 11  8 16  1 54 30.0000000  0  7G10G25G12G05G04G29G02
 -37783116.15247 -29401598.71145  22135954.0784                   22135952.2774
 -11332926.48848  -8706826.30146  21814749.8914                   21814750.1174
 -34050301.52748 -26360983.61346  20788035.7584                   20788033.2154
 -30657615.62148 -23848143.93747  20253514.1954                   20253511.5394
 -57001756.21946 -44370094.14143  24009441.4694                   24009441.3834
  10044607.24647   7859866.66844  23660368.2274                   23660368.0864
 -51674498.87148 -40221750.53546  21048484.0234                   21048479.8594
 11  8 16  1 55  0.0000000  0  7G10G25G12G05G04G29G02
 -37790211.47347 -29407127.53145  22134603.4614                   22134601.8674
 -11465001.32448  -8809741.72346  21789617.1024                   21789617.0594
 -34115730.86348 -26411967.50846  20775585.3204                   20775582.4144
 -30765132.00048 -23931922.89847  20233054.8364                   20233051.9844
 -57011651.98046 -44377805.14843  24007558.7814                   24007558.3714
   9870980.72747   7724573.32844  23627328.8444                   23627327.6914
 -51734039.18048 -40268145.56246  21037153.8754                   21037149.7384
 11  8 16  1 55 30.0000000  0  7G10G25G12G05G04G29G02
 -37796919.60547 -29412354.64845  22133327.4694                   22133325.5314
 -11596526.95348  -8912229.18446  21764588.3444                   21764588.5904
 -34180587.52748 -26462505.16846  20763243.1564                   20763240.8594
 -30872062.56248 -24015245.38747  20212706.3134                   20212703.7854
 -57021588.97346 -44385548.21143  24005667.6254                   24005666.9924
   9697335.17647   7589265.14844  23594284.0234                   23594283.7624
 -51793444.37948 -40314435.30946  21025849.2584                   21025845.1644
 11  8 16  1 56  0.0000000  0  7G10G25G12G05G04G29G02
 -37803243.34447 -29417282.23445  22132124.1804                   22132121.9384
 -11727502.05948  -9014287.66846  21739664.3594                   21739664.6054
 -34244872.64548 -26512597.45746  20751010.0314                   20751007.4224
 -30978407.13748 -24098111.25447  20192469.5704                   20192467.3244
 -57031567.77746 -44393323.92243  24003768.4454                   24003768.6724
   9523672.17247   7453943.39144  23561237.8984                   23561236.9844
 -51852715.18448 -40360620.33246  21014570.5944                   21014566.0594
 11  8 16  1 56 30.0000000  0  7G10G25G12G05G04G29G02
 -37809181.88347 -29421909.65245  22130993.6724                   22130992.0474
 -11857921.86748  -9115913.46146  21714846.4384                   21714846.6134
 -34308583.61748 -26562242.36346  20738886.2344                   20738883.8714
 -31084162.35948 -24180517.89847  20172345.3524                   20172342.7894
 -57041585.26546 -44401129.75443  24001862.1804                   24001862.7504
   9349996.16847   7318611.48844  23528188.0164                   23528187.2814
 -51911849.39148 -40406698.91846  21003317.7274                   21003313.3204
 11  8 16  1 57  0.0000000  0  7G10G25G12G05G04G29G02
 -36239320.20747 -28198640.82045  22429728.5234                   22429726.8984
 -10412362.66848  -7989503.66846  21989927.3134                   21989927.4964
 -32796301.03948 -25383840.35246  21026664.0164                   21026661.5164
 -29613906.64548 -23034864.06247  20452125.1564                   20452122.9264
 -55476223.74346 -43181367.51543  24299741.2814                   24299741.2734
  10751731.90647   8410873.16044  23794929.4844                   23794928.8204
 -50395427.09048 -39225071.13346  21291883.2584                   21291878.9494
 11  8 16  1 57 30.0000000  0  7G10G25G12G05G04G29G02
 -36244500.93447 -28202677.75045  22428742.8444                   22428740.7464
 -10541671.50048  -8090263.76246  21965320.3914                   21965320.5474
 -32858870.75448 -25432595.96946  21014757.4924                   21014754.8984
 -29718486.54748 -23116354.86347  20432224.3984                   20432221.9064
 -55486323.94946 -43189237.80143  24297819.1564                   24297818.1374
  10578029.32847   8275520.56344  23761874.4844                   23761874.2154
 -50454292.65648 -39270940.38746  21280681.6414                   21280676.9654
 11  8 16  1 58  0.0000000  0  7G10G25G12G05G04G29G02
 -36249310.03947 -28206425.09845  22427827.3134                   22427826.0554
 -10670425.98848  -8190591.90646  21940819.7584                   21940819.5164
 -32920874.71548 -25480910.73446  21002958.3054                   21002955.8054
 -29822481.65248 -23197389.98847  20412434.6724                   20412432.1294
 -55496469.22346 -43197143.18043  24295888.6954                   24295887.6644
  10404312.12947   8140156.56344  23728818.0084                   23728817.2114
 -50513028.14148 -39316708.27346  21269504.2034                   21269500.0824
 11  8 16  1 58 30.0000000  0  7G10G25G12G05G04G29G02
 -36253746.07847 -28209881.75445  22426983.5944                   22426981.4924
 -10798620.55548  -8290483.74646  21916424.8134                   21916424.7544
 -32982309.51248 -25528782.00446  20991267.7344                   20991265.6334
 -29925887.82048 -23277966.19947  20392757.3674                   20392755.0044
 -55506655.64146 -43205080.64543  24293950.3134                   24293949.9804
  10230585.97747   8004785.59444  23695758.3914                   23695757.7074
 -50571630.23048 -39362372.22746  21258353.1094                   21258348.1214
 11  8 16  1 59  0.0000000  0  7G10G25G12G05G04G29G02
 -36257815.31247 -28213052.57445  22426209.3284                   22426206.9184
 -10926257.05548  -8389940.72746  21892135.9534                   21892136.5314
 -33043179.92248 -25576213.48046  20979684.8524                   20979681.7934
 -30028708.25048 -23358085.98847  20373191.2034                   20373188.5354
 -55516886.50046 -43213052.74643  24292003.0164                   24292003.2034
  10056848.82447   7869406.03144  23662697.7424                   23662696.6724
 -50630102.43448 -39407934.95346  21247226.0394                   21247221.3754
 11  8 16  1 59 30.0000000  0  7G10G25G12G05G04G29G02
 -36261518.06247 -28215937.83245  22425504.2424                   22425503.0004
 -11053331.91848  -8488960.07446  21867954.4454                   21867954.8284
 -33103484.47748 -25623204.03146  20968208.9064                   20968206.3444
 -30130940.64148 -23437747.56247  20353737.0784                   20353734.6174
 -55527160.45346 -43221058.44143  24290048.6954                   24290048.1294
   9883103.72347   7734020.28144  23629634.7664                   23629634.2304
 -50688443.35548 -39453395.38746  21236123.9844                   21236119.7774
 11  8 16  2  0  0.0000000  0  7G10G25G12G05G04G29G02
 -36264857.84047 -28218540.26245  22424869.0314                   22424866.9654
 -11179844.64848  -8587541.39146  21843880.1884                   21843880.2974
 -33163224.96548 -25669755.06246  20956840.6804                   20956837.9104
 -30232585.66048 -23516951.44947  20334394.8674                   20334392.5474
 -55537478.13746 -43229098.16043  24288085.1414                   24288084.0944
   9709351.71947   7598629.14544  23596570.8674                   23596570.0434
 -50746654.36348 -39498754.59446  21225047.0784                   21225042.5234
 11  8 16  2  0 30.0000000  0  7G10G25G12G05G04G29G02
 -36267840.54347 -28220864.44944  22424300.5554                   22424299.4884
 -11305796.91848  -8685685.98846  21819912.0164                   21819912.2424
 -33222405.76648 -25715869.95346  20945579.0704                   20945576.7194
 -30333646.28948 -23595699.97347  20315163.1724                   20315160.8284
 -55547842.85246 -43237174.58244  24286112.7114                   24286112.1094
   9535591.35547   7463231.51244  23563505.5784                   23563504.5864
 -50804738.75047 -39544015.12546  21213993.9774                   21213989.4884
 11  8 16  2  1  0.0000000  0  7G10G25G12G05G04G29G02
 -36270464.75447 -28222909.27744  22423802.2424                   22423800.3094
 -11431183.17648  -8783389.52746  21796052.1804                   21796052.1254
 -33281023.40248 -25761546.03946  20934424.6024                   20934421.3674
 -30434118.41048 -23673989.90647  20296044.3134                   20296041.5204
 -55558250.78146 -43245284.64843  24284131.6024                   24284131.3714
   9361827.63747   7327831.24644  23530439.4534                   23530437.9844
 -50862693.08648 -39589174.32846  21202965.3984                   21202961.1254
 11  8 16  2  1 30.0000000  0  7G10G25G12G05G04G29G02
 -36272736.19547 -28224679.23444  22423369.6954                   22423367.6024
 -11556005.44548  -8880653.60946  21772298.9304                   21772299.0944
 -33339082.94948 -25806787.23846  20923375.8134                   20923373.4964
 -30534005.26648 -23751823.79347  20277036.0864                   20277034.0474
 -55568705.18446 -43253430.89143  24282141.7114                   24282141.6254
   9188058.82047   7192427.02044  23497372.0004                   23497370.8954
 -50920520.82848 -39634234.87146  21191961.5554                   21191957.1884
 11  8 16  2  2  0.0000000  0  7G10G25G12G05G04G29G02
 -36274658.75047 -28226177.33244  22423003.9224                   22423002.1294
 -11680263.57048  -8977478.10246  21748653.1884                   21748653.5394
 -33396586.44148 -25851595.15246  20912433.6174                   20912430.8554
 -30633308.06648 -23829202.57447  20258139.6564                   20258137.1604
 -55579207.66046 -43261614.64143  24280143.5164                   24280142.6174
   9014285.39147   7057019.18444  23464303.9144                   23464302.6684
 -50978224.03948 -39679198.39546  21180980.6334                   21180976.7034
 11  8 16  2  2 30.0000000  0  8G10G25G26G12G05G04G29G02
 -36276233.52747 -28227404.43044  22422704.2894                   22422701.6954
 -11803954.71548  -9073860.78546  21725115.6564                   21725116.0084
  21786627.68456  17013759.10253  24765440.1644                   24765440.9654
 -33453533.35948 -25895969.36746  20901596.9384                   20901594.0514
 -30732025.20748 -23906125.00047  20239354.2114                   20239352.2584
 -55589756.55546 -43269834.53943  24278136.5314                   24278135.4454
   8840509.94547   6921609.80144  23431235.3594                   23431234.6054
 -51035801.43048 -39724063.85946  21170023.6884                   21170019.7774
 11  8 16  2  3  0.0000000  0  8G10G25G26G12G05G04G29G02
 -36277467.96147 -28228366.32044  22422469.0084                   22422467.6414
 -11927082.38348  -9169804.39146  21701685.2274                   21701685.7074
  21602978.96946  16870656.28543  24730493.5234                   24730493.7934
 -33509929.67248 -25939914.54746  20890865.1884                   20890862.1414
 -30830161.42648 -23982594.75447  20220679.6484                   20220676.9104
 -55600357.01446 -43278094.64743  24276119.7584                   24276118.3484
   8666729.58247   6786196.59444  23398166.5234                   23398165.1914
 -51093257.94548 -39768835.14846  21159090.3364                   21159085.6024
 11  8 16  2  3 30.0000000  0  8G10G25G26G12G05G04G29G02
 -36278369.07447 -28229068.48444  22422297.5314                   22422295.6174
 -12049649.62948  -9265311.30946  21678361.5084                   21678361.5864
  21419203.83646  16727454.97743  24695522.1724                   24695522.7734
 -33565780.92248 -25983435.00046  20880236.9384                   20880234.6214
 -30927720.94548 -24058615.13747  20202114.4144                   20202112.2384
 -55611013.40246 -43286398.34443  24274091.3754                   24274090.5124
   8492941.27347   6650777.21544  23365096.0004                   23365094.2074
 -51150598.61748 -39813516.17246  21148178.7114                   21148174.3794
 11  8 16  2  4  0.0000000  0  8G10G25G26G12G05G04G29G02
 -36278939.31647 -28229512.81644  22422189.4694                   22422187.2194
 -12171654.84448  -9360380.28146  21655144.8834                   21655144.8834
  21235305.93446  16584157.97743  24660527.5394                   24660527.6524
 -33621087.92248 -26026531.36346  20869712.1414                   20869709.7894
 -31024703.72348 -24134186.10547  20183659.5634                   20183656.9454
 -55621725.46546 -43294745.37143  24272052.1564                   24272052.4104
   8319146.83247   6515353.03944  23332024.1254                   23332022.4574
 -51207823.36748 -39858106.86746  21137288.8984                   21137284.8794
 11  8 16  2  4 30.0000000  0  8G10G25G26G12G05G04G29G02
 -36279178.54747 -28229699.23044  22422143.5944                   22422141.8484
 -12293094.16048  -9455008.29746  21632035.4144                   21632035.5904
  21051290.56646  16440769.49243  24625510.6174                   24625509.9734
 -33675849.31248 -26069202.58646  20859291.3674                   20859289.1724
 -31121107.33648 -24209305.77347  20165314.3674                   20165311.8714
 -55632490.57846 -43303133.71143  24270004.4144                   24270003.0704
   8145350.50047   6379927.39844  23298951.1644                   23298950.0744
 -51264929.90248 -39902605.44946  21126421.9534                   21126417.8554
 11  8 16  2  5  0.0000000  0  8G10G25G26G12G05G04G29G02
 -36279089.66047 -28229629.95744  22422160.4384                   22422158.5744
 -12413966.44948  -9549194.47746  21609034.1414                   21609034.3444
  20867161.04346  16297292.05143  24590471.4924                   24590471.4494
 -33730066.42648 -26111449.69546  20848974.5704                   20848971.7504
 -31216931.75448 -24283974.12547  20147079.5004                   20147076.9064
 -55643309.05946 -43311563.70742  24267945.9694                   24267944.7774
   7971553.76247   6244501.44544  23265878.8204                   23265877.1764
 -51321918.89148 -39947012.43446  21115577.6174                   21115573.5514
 11  8 16  2  5 30.0000000  0  8G10G25G26G12G05G04G29G02
 -36278670.97747 -28229303.72744  22422240.6644                   22422238.3834
 -12534266.29748  -9642934.60546  21586142.0084                   21586142.2894
  20682924.86346  16153731.48043  24555413.0864                   24555412.7034
 -33783735.84448 -26153270.03546  20838761.6334                   20838758.8134
 -31312172.91048 -24358187.98447  20128955.7034                   20128953.2504
 -55654176.60946 -43320031.90642  24265877.2194                   24265877.3554
   7797762.09447   6109079.45344  23232807.0084                   23232806.1844
 -51378786.49248 -39991324.83246  21104755.9924                   21104751.5474
 11  8 16  2  6  0.0000000  0  8G10G25G26G12G05G04G29G02
 -34702509.46547 -27001125.92244  22722173.8444                   22722171.9804
 -11078572.79348  -8508627.94946  21863151.3054   21863151.2894   22074006.77046
  17237691.50443                  24820126.4924                   24820126.3324
 -32261442.13348 -24967067.14146  21128444.5944                   21128441.9104
 -29831411.93448 -23204348.24247  20410735.1254                   20410732.9024
 -54089677.24646 -42100941.48442  24563591.4534                   24563591.9804
   9199398.86747   7201264.04344  23499528.9454                   23499527.6994
 -49860115.25448 -38807944.64146  21393749.6174                   21393745.3014
 11  8 16  2  6 30.0000000  0  8G10G25G26G12G05G04G29G02
 -34701447.04747 -27000298.08244  22722376.1724                   22722374.5514
 -11197732.13748  -8601479.37146  21840475.7034   21840476.0474   21889558.44146
  17093965.67243                  24785027.2034                   24785027.6294
 -32314028.90248 -25008043.85246  21118437.8054                   21118434.8364
 -29925494.62148 -23277659.39847  20392831.4774                   20392829.6054
 -54100651.06646 -42109492.48843  24561504.1254                   24561502.5204
   9025614.37947   7065847.63344  23466459.3674                   23466457.7504
 -49916748.50848 -38852074.43046  21382972.4924                   21382968.4224
 11  8 16  2  7  0.0000000  0  8G10G25G26G12G05G04G29G02
 -34700064.40647 -26999220.69544  22722639.3054                   22722637.4454
 -11316317.24648  -8693883.32846  21817909.8984   21817909.6804   21705011.16046
  16950162.73042                  24749909.2504                   24749909.2894
 -32366073.75448 -25048598.28146  21108533.2664                   21108531.3484
 -30018995.87548 -23350517.50047  20375039.1414                   20375036.9024
 -54111675.80947 -42118083.12943  24559406.1254                   24559405.2774
   8851838.46947   6930437.93044  23433390.3834                   23433389.8404
 -49973263.09048 -38896111.74646  21372218.3444                   21372213.8014
 11  8 16  2  7 30.0000000  0  8G10G25G26G12G05G04G29G02
 -34698364.66847 -26997896.23844  22722962.5314                   22722961.1454
 -11434327.40648  -8785839.27746  21795453.2814   21795453.5274   21520367.88346
  16806284.94543                  24714772.9844                   24714772.8674
 -32417578.78148 -25088732.07846  21098732.5234                   21098729.7464
 -30111916.87948 -23422923.45747  20357356.9304                   20357354.4344
 -54122751.96946 -42126713.89143  24557298.2584                   24557297.7774
   8678072.25047   6795035.78544  23400323.9614                   23400323.1374
 -50029659.56648 -38940057.05146  21361486.1484                   21361481.9224
 11  8 16  2  8  0.0000000  0  8G10G25G26G12G05G04G29G02
 -34696351.89847 -26996327.85944  22723345.4694                   22723344.5084
 -11551763.03948  -8877347.54346  21773106.2424   21773106.5354   21335629.94146
  16662333.38342                  24679617.8674                   24679617.4454
 -32468546.54348 -25128447.22346  21089033.5234                   21089031.2894
 -30204258.98448 -23494878.32447  20339784.8754                   20339782.1994
 -54133880.83646 -42135385.69543  24555180.4694                   24555178.9534
   8504315.61747   6659641.09444  23367258.7344                   23367257.8714
 -50085939.57848 -38983911.58646  21350776.2974                   21350772.1804
 11  8 16  2  8 30.0000000  0  8G10G25G26G12G05G04G29G02
 -34694026.40247 -26994515.80544  22723788.6024                   22723786.3324
 -11668620.67648  -8968405.42646  21750868.6884   21750868.9614   21150803.31346
  16518312.73042                  24644446.3054                   24644445.9144
 -32518975.73448 -25167742.69146  21079437.3054                   21079434.5204
 -30296020.13348 -23566380.50047  20322323.0314                   20322320.4454
 -54145060.33647 -42144096.97743  24553053.4064                   24553052.4884
   8330572.62546   6524257.03544  23334197.4844                   23334195.8714
 -50142101.11348 -39027673.81646  21340089.7344                   21340084.9384
 11  8 16  2  9  0.0000000  0  8G10G25G26G12G05G04G29G02
 -34691391.84447 -26992462.89544  22724289.3914                   22724288.0594
 -11784900.11348  -9059012.75846  21728741.2894   21728741.4574   20965890.38345
  16374224.79742                  24609257.6094                   24609258.7624
 -32568869.07848 -25206620.63346  21069942.9614                   21069940.5204
 -30387201.27748 -23637430.72347  20304971.8834                   20304969.4494
 -54156291.00447 -42152848.14143  24550915.3054                   24550914.8674
   8156844.17247   6388884.30544  23301137.2584                   23301136.6884
 -50198145.49248 -39071344.75046  21329424.6414                   21329420.1644
 11  8 16  2  9 30.0000000  0  8G10G25G26G12G05G04G29G02
 -34688451.15247 -26990171.46144  22724849.0704                   22724847.4964
 -11900600.99248  -9149169.26646  21706724.3834   21706724.3874   20780893.48446
  16230071.49243                  24574054.7274                   24574055.5594
 -32618228.50048 -25245082.52346  21060550.3134                   21060547.6954
 -30477803.51248 -23708029.84447  20287730.9144                   20287728.2504
 -54167573.72347 -42161639.87543  24548768.7584                   24548768.3634
   7983130.96147   6253523.44944  23268081.4694                   23268080.1884
 -50254073.57048 -39114925.05146  21318781.4304                   21318777.3134
 11  8 16  2 10  0.0000000  0  8G10G25G26G12G05G04G29G02
 -34685210.72347 -26987646.43744  22725465.6094                   22725463.9064
 -12015725.83648  -9238876.91846  21684816.5784   21684816.8134   20595812.57846
  16085852.74243                  24538834.8284                   24538835.2384
 -32667058.67248 -25283132.01646  21051258.2894                   21051255.6644
 -30567830.60248 -23778180.80147  20270599.3134                   20270597.1374
 -54178911.86347 -42170474.75043  24546611.0784                   24546610.6174
   7809431.32447   6118173.15644  23235026.8134                   23235025.8404
 -50309888.92648 -39158417.53146  21308160.3914                   21308155.7934
 11  8 16  2 10 30.0000000  0  8G10G25G26G12G05G04G29G02
 -34681669.43047 -26984886.97344  22726139.4224                   22726137.7074
 -12130270.18748  -9328132.23046  21663019.4694   21663019.8634   20410654.40246
  15941573.79343                  24503600.1644                   24503600.9064
 -32715357.69548 -25320767.63346  21042067.2584                   21042064.4414
 -30657279.53548 -23847881.25047  20253577.8834                   20253575.2074
 -54190301.77047 -42179349.99643  24544444.2344                   24544442.6214
   7635750.60247   5982837.61344  23201977.0394                   23201975.7934
 -50365588.40247 -39201819.71146  21297560.9454                   21297556.7274
 11  8 16  2 11  0.0000000  0  8G10G25G26G12G05G04G29G02
 -34677829.52747 -26981894.85544  22726870.4224                   22726868.4264
 -12244232.57848  -9416934.07446  21641333.3984   21641333.4384   20225422.77346
  15797237.52743                  24468351.7894                   24468351.3014
 -32763126.75848 -25357990.28146  21032977.1954                   21032974.2074
 -30746150.03548 -23917130.97347  20236666.4534                   20236663.6214
 -54201743.06647 -42188265.28943  24542266.9064                   24542265.4614
   7462090.87546   5847518.42245  23168930.4454                   23168929.1884
 -50421172.02348 -39245131.60946  21286983.8284                   21286979.5944
 11  8 16  2 11 30.0000000  0  8G10G25G26G12G05G04G29G02
 -34673695.88746 -26978673.82044  22727657.1334                   22727654.9884
 -12357614.39848  -9505283.51646  21619757.6564   21619757.6954   20040118.66046
  15652844.83243                  24433089.1804                   24433089.1414
 -32810369.54748 -25394802.84846  21023987.3834                   21023984.5594
 -30834444.87548 -23985932.12947  20219864.2274                   20219861.8444
 -54213237.87547 -42197222.27743  24540079.4924                   24540078.0664
   7288451.56347   5712215.15645  23135888.0004                   23135886.4734
 -50476642.26648 -39288355.16046  21276428.1484                   21276423.5434
 11  8 16  2 12  0.0000000  0  8G10G25G26G12G05G04G29G02
 -34669271.00446 -26975225.84844  22728498.4844                   22728497.1214
 -12470414.55148  -9593179.72346  21598292.1484   21598292.4104   19854745.41446
  15508398.23843                  24397814.0944                   24397813.6054
 -32857087.21148 -25431206.21946  21015097.2114                   21015094.4184
 -30922163.98848 -24054284.66047  20203171.5314                   20203169.2074
 -54224786.10247 -42206220.88743  24537882.2894                   24537880.2894
   7114834.27347   5576929.03144  23102849.3754                   23102848.0784
 -50531999.03147 -39331490.29746  21265894.2344                   21265890.0394
 11  8 16  2 12 30.0000000  0  8G10G25G26G12G05G04G29G02
 -34664554.39146 -26971550.56644  22729396.5944                   22729394.6644
 -12582629.24248  -9680619.71946  21576938.3594   21576938.8014   19669309.53546
  15363902.80943                  24362527.0704                   24362526.1054
 -32903278.53948 -25467199.46946  21006307.3914                   21006304.3444
 -31009304.96948 -24122186.70347  20186589.4384                   20186586.7154
 -54236384.85947 -42215258.85543  24535675.3204                   24535674.2384
   6941243.96147   5441663.91844  23069815.7974                   23069814.5984
 -50587239.50847 -39374534.80946  21255382.4144                   21255377.5634
 11  8 16  2 13  0.0000000  0  8G10G25G26G12G05G04G29G02
 -34659551.96146 -26967652.56244  22730348.5784                   22730346.7384
 -12694260.50848  -9767605.10246  21555696.0234   21555695.7464   19483811.40247
  15219358.85543                  24327227.5004                   24327227.1094
 -32948947.99248 -25502786.06246  20997616.6564                   20997614.0004
 -31095871.56248 -24189641.18047  20170116.2194                   20170113.5004
 -54248036.53146 -42224338.10943  24533456.6884                   24533456.3524
   6767679.36747   5306418.86345  23036788.0234                   23036786.3054
 -50642367.07048 -39417491.33646  21244891.4454                   21244887.1684
 11  8 16  2 13 30.0000000  0  8G10G25G26G12G05G04G29G02
 -34654267.37547 -26963534.72344  22731354.1334                   22731352.2194
 -12805308.79748  -9854136.20346  21534563.9304   21534564.0354   19298252.89147
  15074767.89844                  24291917.2974                   24291916.5554
 -32994098.00448 -25537967.89146  20989024.9694                   20989021.7934
 -31181865.37548 -24256649.31247  20153752.0474                   20153749.5664
 -54259742.66846 -42233459.75043  24531230.6254                   24531228.3404
   6594140.78147   5171194.05144  23003764.6644                   23003762.7584
 -50697383.20748 -39460361.03946  21234422.1804                   21234418.1684
 11  8 16  2 14  0.0000000  0  8G10G25G26G12G05G04G29G02
 -34648705.55147 -26959200.81644  22732412.5234                   22732410.6884
 -12915775.60548  -9940214.21946  21513543.2584   21513542.9884   19112635.36347
  14930130.96144                  24256596.1024                   24256595.1414
 -33038732.99648 -25572748.40646  20980530.9844                   20980528.2664
 -31267288.77348 -24323212.99247  20137496.4844                   20137494.0044
 -54271505.32846 -42242625.45743  24528992.1024                   24528990.3484
   6420627.82847   5035989.22744  22970745.8914                   22970744.7424
 -50752290.28548 -39503145.76246  21223973.7894                   21223969.5234
 11  8 16  2 14 30.0000000  0  7G10G25G26G12G05G29G02
 -33067446.69547 -25727051.06644  23033316.4064                   23033314.5394
 -11450233.78148  -8798233.55546  21792426.3284   21792426.6254   20502390.94947
  16013057.46544                  24521056.7664                   24521056.8524
 -31507430.06248 -24379525.34846  21271927.9224                   21271925.4384
 -29776717.08248 -23161728.53547  20421142.9144                   20421140.6414
   7822570.84847   6128412.43044  23237526.8134                   23237525.3674
 -49231663.92648 -38318242.09846  21513339.7734                   21513335.6414
 11  8 16  2 15  0.0000000  0  7G10G25G26G12G05G29G02
 -33061335.00847 -25722288.72344  23034479.0864                   23034477.2664
 -11559532.03148  -8883401.00446  21771627.4304   21771627.2814   20316668.65647
  15868338.89543                  24485715.0474                   24485715.0274
 -31551035.99248 -24413504.00046  21263630.5704                   21263627.9924
 -29860998.57848 -23227402.41047  20405104.9844                   20405102.2464
   7649117.74647   5993254.23445  23204519.2194                   23204518.3284
 -49286350.34448 -38360854.87946  21502933.3754                   21502928.8984
 11  8 16  2 15 30.0000000  0  7G10G25G26G12G05G29G02
 -33054948.13747 -25717311.93044  23035694.3754                   23035692.5904
 -11668240.89548  -8968109.19146  21750940.7894   21750940.6214   20130902.91847
  15723586.48843                  24450365.2504                   24450364.9064
 -31594125.69548 -24447080.39546  21255430.6024                   21255427.9924
 -29944706.02048 -23292628.97347  20389175.9224                   20389173.1524
   7475701.18847   5858124.52745  23171519.3524                   23171518.8404
 -49340922.66048 -38403378.75846  21492548.4694                   21492544.1024
 11  8 16  2 16  0.0000000  0  7G10G25G26G12G05G29G02
 -33048287.33647 -25712121.69544  23036961.9774                   23036960.4614
 -11776357.99648  -9052356.26246  21730366.5164   21730366.4264   19945098.94147
  15578804.23443                  24415007.1724                   24415007.2424
 -31636699.66048 -24480254.91846  21247329.2034                   21247326.5744
 -30027838.04348 -23357407.15247  20373356.1024                   20373353.8134
   7302324.77747   5723026.07444  23138527.3754                   23138525.4774
 -49395379.37148 -38445812.53546  21482185.5784                   21482181.2194
 11  8 16  2 16 30.0000000  0  7G10G25G26G12G05G29G02
 -33041357.19947 -25706721.59044  23038280.7894                   23038278.7234
 -11883885.06648  -9136143.55946  21709905.1954   21709905.0824   19759257.75046
  15433992.95743                  24379643.2344                   24379641.9574
 -31678761.49248 -24513030.37546  21239325.1254                   21239322.6564
 -30110397.62548 -23421739.27347  20357645.5164                   20357642.9224
   7128987.84447   5587958.39844  23105541.8524                   23105541.1994
 -49449723.03148 -38488158.23446  21471843.9694                   21471839.8054
 11  8 16  2 17  0.0000000  0  7G10G25G26G12G05G29G02
 -33034162.96147 -25701115.69144  23039649.6954                   23039647.7464
 -11990823.65248  -9219472.31246  21689555.4384   21689555.3054   19573380.61346
  15289153.69543                  24344271.6884                   24344271.0594
 -31720315.60248 -24545410.20746  21231417.5784                   21231415.0354
 -30192388.09448 -23485627.93447  20342043.6644                   20342040.7464
   6955689.89147   5452921.10244  23072564.8134                   23072563.4024
 -49503956.20348 -38530417.84046  21461523.9064                   21461519.7034
 11  8 16  2 17 30.0000000  0  7G10G25G26G12G05G29G02
 -33026704.19547 -25695303.65644  23041069.4144                   23041067.0554
 -12097170.40248  -9302339.89146  21669318.0164   21669318.1804   19387473.56646
  15144291.13343                  24308894.8364                   24308894.3444
 -31761360.53148 -24577393.28546  21223607.0864                   21223604.2894
 -30273807.13348 -23549071.31247  20326550.1564                   20326547.2304
   6782435.50847   5317917.77045  23039595.1174                   23039593.5204
 -49558076.13748 -38572589.20746  21451225.4144                   21451220.7774
 11  8 16  2 18  0.0000000  0  7G10G25G26G12G05G29G02
 -33018985.93046 -25689289.43744  23042537.8834                   23042535.6334
 -12202927.12148  -9384747.70346  21649193.4694   21649193.1914   19201537.73846
  14999406.15643                  24273512.5944                   24273511.4694
 -31801900.64848 -24608982.98046  21215892.5944                   21215889.2974
 -30354657.83648 -23612071.84847  20311164.5784                   20311161.5634
   6609224.42247   5182948.14145  23006633.9844                   23006632.9734
 -49612085.30947 -38614674.25846  21440947.7664                   21440943.3164
 11  8 16  2 18 30.0000000  0  7G10G25G26G12G05G29G02
 -33011012.46146 -25683076.33244  23044054.6094                   23044052.8444
 -12308094.91048  -9466696.60546  21629180.7344   21629180.3754   19015574.98046
  14854500.16443                  24238124.3444                   24238123.5944
 -31841939.37148 -24640182.00446  21208273.2274                   21208270.5044
 -30434942.38748 -23674631.21947  20295886.7194                   20295884.3634
   6436056.44947   5048012.13745  22973681.4694                   22973680.1994
 -49665985.66847 -38656674.52346  21430690.7584                   21430686.7234
 11  8 16  2 19  0.0000000  0  7G10G25G26G12G05G29G02
 -33002785.94146 -25676666.06243  23045620.1804                   23045618.6684
 -12412672.75448  -9548185.81646  21609280.4064   21609279.9804   18829589.01246
  14709576.12543                  24202732.4534                   24202732.5274
 -31881477.74648 -24670991.12946  21200749.1484                   21200746.9574
 -30514661.28148 -23736749.82047  20280716.9064                   20280714.2424
   6262933.81347   4913111.45345  22940737.4614                   22940735.8754
 -49719776.92248 -38698589.76646  21420454.7584                   21420449.9574
 11  8 16  2 19 30.0000000  0  7G10G25G26G12G05G29G02
 -32994312.67246 -25670063.51644  23047232.7664                   23047231.2664
 -12516663.75048  -9629217.74246  21589491.2194   21589491.3524   18643579.97346
  14564634.07843                  24167335.9144                   24167336.0274
 -31920521.09848 -24701414.52746  21193319.7894                   21193316.6644
 -30593818.65648 -23798430.86347  20265653.5634                   20265650.6804
   6089855.20747   4778245.07845  22907801.6484                   22907799.9654
 -49773462.45748 -38740422.64546  21410238.6484                   21410234.3284
 11  8 16  2 20  0.0000000  0  7G10G25G26G12G05G29G02
 -32985592.63746 -25663268.65244  23048891.8594                   23048890.1644
 -12620064.62148  -9709789.82846  21569814.7274   21569814.4694   18457553.82846
  14419678.69143                  24131936.2504                   24131936.5514
 -31959069.16448 -24731451.98846  21185984.2194                   21185981.6844
 -30672412.68048 -23859672.94547  20250697.8674                   20250694.8484
   5916824.90247   4643416.33645  22874874.6884                   22874873.1454
 -49827040.03948 -38782171.39146  21400043.0164                   21400038.9104
 11  8 16  2 20 30.0000000  0  7G10G25G26G12G05G29G02
 -32976628.63346 -25656283.71544  23050597.8054                   23050596.5234
 -12722875.65248  -9789902.30146  21550250.4224   21550250.2464   18271513.60546
  14274712.29343                  24096535.0554                   24096534.2344
 -31997124.15248 -24761105.23046  21178742.2974                   21178739.9064
 -30750444.73048 -23920477.10947  20235848.5704                   20235846.0354
   5743844.13747   4508626.19545  22841957.8754                   22841956.3794
 -49880510.35548 -38823836.56646  21389868.0864                   21389863.6604
 11  8 16  2 21  0.0000000  0  7G10G25G26G12G05G29G02
 -32967424.86746 -25649111.94144  23052349.5314                   23052347.1724
 -12825097.98048  -9869556.04746  21530798.0474   21530798.1454   18085461.00447
  14129736.27743                  24061129.9534                   24061129.1764
 -32034689.44148 -24790376.89846  21171593.9144                   21171591.3404
 -30827917.28948 -23980845.31247  20221105.8914                   20221103.4024
   5570913.10247   4373874.79745  22809050.0474                   22809048.7704
 -49933875.05148 -38865419.42246  21379713.0474                   21379708.7504
 11  8 16  2 21 30.0000000  0  7G10G25G26G12G05G29G02
 -32957985.38747 -25641756.52744  23054146.6564                   23054144.2234
 -12926732.47348  -9948751.73846  21511457.6254   21511458.0234   17899398.46147
  13984752.52343                  24025723.2974                   24025722.9654
 -32071768.16048 -24819269.40646  21164538.1254                   21164536.1134
 -30904832.44148 -24040779.18447  20206469.6804                   20206466.7934
   5398032.66847   4239162.84045  22776151.6564                   22776150.2894
 -49987135.68748 -38906921.19946  21369577.8984                   21369573.1884
 11  8 16  2 22  0.0000000  0  7G10G25G26G12G05G29G02
 -32948314.83247 -25634221.00444  23055986.3444                   23055984.4574
 -13027780.69148 -10027490.59446  21492228.8754   21492228.7894   17713327.48447
  13839762.22343                  23990314.9224                   23990314.2154
 -32108363.88348 -24847785.56646  21157574.4224                   21157571.8554
 -30981193.10248 -24100280.98047  20191938.5704                   20191936.0434
   5225202.65647   4104490.16045  22743262.9844                   22743261.6054
 -50040294.09048 -38948343.31646  21359462.2424                   21359457.8524
 11  8 16  2 22 30.0000000  0  7G10G25G26G12G05G29G02
 -32938414.71947 -25626506.62544  23057869.8594                   23057868.4844
 -13128241.27348 -10105771.55546  21473111.8674   21473111.6414   17527252.57047
  13694768.84843                  23954906.1564                   23954905.2034
 -32144478.00448 -24875926.44546  21150702.2504                   21150699.7664
 -31056999.02048 -24159350.50847  20177513.1954                   20177510.5514
   5052425.83647   3969858.93845  22710384.5554                   22710383.3554
 -50093349.18448 -38989684.93446  21349366.0314                   21349361.4144
 11  8 16  2 23  0.0000000  0  7G10G25G26G12G05G29G02
 -32928286.28147 -25618614.34044  23059797.7974                   23059795.5274
 -13228112.79748 -10183593.50446  21454106.8284   21454106.8014   17341178.37947
  13549776.04344                  23919497.1644                   23919496.8714
 -32180110.96148 -24903692.39546  21143921.4304                   21143918.6454
 -31132250.02348 -24217987.63347  20163193.1884                   20163190.6374
   4879705.60947   3835271.80945  22677517.1414                   22677515.7664
 -50146300.32048 -39030945.54746  21339289.7894                   21339285.2274
 11  8 16  2 23 30.0000000  0  7G10G25G26G12G05G29G02
 -31342513.32447 -24382947.07844  23361560.1254                   23361558.0084
 -11751972.34848  -9033354.18046  21735007.1254   21735006.8714   18730534.09846
  14632390.93843                  24183883.0474                   24183881.8164
 -30639844.80948 -23703485.00446  21437024.3984                   21437022.1214
 -29631525.18448 -23048591.64547  20448771.8594                   20448769.1884
   6282468.73847   4928334.06345  22944454.3204                   22944452.5044
 -48623726.35948 -37844524.25446  21629026.1254                   21629021.7504
 11  8 16  2 24  0.0000000  0  7G10G25G26G12G05G29G02
 -31331938.90247 -24374707.27744  23363571.4614                   23363570.3834
 -11850667.37548  -9110259.37946  21716226.0394   21716226.0514   18544469.57847
  14487405.67244                  24148476.3284                   24148474.8014
 -30674524.58248 -23730508.20746  21430424.8204                   21430422.5744
 -29705671.53948 -23106368.00047  20434662.5004                   20434659.3284
   6109864.57047   4793837.36745  22911608.7664                   22911607.1804
 -48676471.99648 -37885624.73446  21618988.8284                   21618984.3404
 11  8 16  2 24 30.0000000  0  7G10G25G26G12G05G29G02
 -31321146.07447 -24366297.30144  23365625.7504                   23365624.1174
 -11948774.58248  -9186706.53946  21697556.5634   21697556.5514   18358414.59046
  14342427.79744                  24113070.3054                   24113069.5594
 -30708731.49648 -23757162.96146  21423915.4614                   21423913.0514
 -29779268.13748 -23163715.98847  20420657.2194                   20420654.7114
   5937320.46147   4659387.49245  22878775.1564                   22878772.8014
 -48729115.59048 -37926645.70346  21608971.1484                   21608966.6174
 11  8 16  2 25  0.0000000  0  7G10G25G26G12G05G29G02
 -31310135.21147 -24357717.41044  23367721.1334                   23367719.2304
 -12046291.55148  -9262693.77746  21679000.0784   21678999.5944   18172374.64846
  14197461.67243                  24077668.4774                   24077668.2704
 -30742465.21948 -23783448.98046  21417496.3054                   21417493.6374
 -29852313.72748 -23220634.60247  20406757.1484                   20406754.2274
   5764840.78547   4524987.79745  22845953.2974                   22845951.0354
 -48781655.17648 -37967585.63346  21598973.0084                   21598968.3984
 11  8 16  2 25 30.0000000  0  7G10G25G26G12G05G29G02
 -31298911.51247 -24348971.64143  23369857.2664                   23369854.5984
 -12143220.68448  -9338222.95746  21660554.7274   21660554.7034   17986350.74646
  14052508.05943                  24042269.6094                   24042267.9734
 -30775730.46148 -23809369.95346  21411166.2974                   21411163.9534
 -29924811.63748 -23277126.46147  20392961.1254                   20392958.5594
   5592424.65647   4390637.63745  22813143.6254                   22813141.2424
 -48834093.76648 -38008446.84446  21588994.3594                   21588990.3754
 11  8 16  2 26  0.0000000  0  7G10G25G26G12G05G29G02
 -31287478.39847 -24340062.74243  23372032.6414                   23372030.5664
 -12239562.78148  -9413294.71546  21642221.6644   21642221.2934   17800345.48446
  13907568.97343                  24006873.3204                   24006873.2814
 -30808529.96148 -23834928.00446  21404924.7114                   21404922.2194
 -29996763.77048 -23333193.03547  20379269.2424                   20379266.7504
   5420073.34447   4256337.99645  22780345.8984                   22780343.7384
 -48886432.01248 -38049229.88746  21579034.7664                   21579030.2974
 11  8 16  2 26 30.0000000  0  7G10G25G26G12G05G29G02
 -31275836.82847 -24330991.39143  23374248.4774                   23374246.1094
 -12335316.21548  -9487907.77346  21624000.2814   21624000.2234   17614364.16446
  13762648.52043                  23971482.6564                   23971481.8914
 -30840864.63748 -23860123.87146  21398771.4384                   21398769.0664
 -30068169.78148 -23388834.07047  20365680.8754                   20365678.2194
   5247790.19947   4122091.46945  22747561.3524                   22747560.1484
 -48938668.31248 -38089933.47346  21569094.4224                   21569089.6214
 11  8 16  2 27  0.0000000  0  7G10G25G26G12G05G29G02
 -31263992.84447 -24321762.28943  23376502.0394                   23376499.9344
 -12430484.18448  -9562064.62146  21605890.5784   21605890.1454   17428407.05546
  13617746.94943                  23936095.6484                   23936094.8244
 -30872739.66048 -23884961.55146  21392705.6724                   21392703.3984
 -30139034.30548 -23444053.16047  20352195.8054                   20352193.3324
   5075573.84847   3987896.97745  22714789.4224                   22714787.3914
 -48990806.13348 -38130560.34046  21559173.0394                   21559168.4184
 11  8 16  2 27 30.0000000  0  7G10G25G26G12G05G29G02
 -31251947.08647 -24312375.96544  23378794.1724                   23378792.0124
 -12525064.98448  -9635763.94546  21587892.3524   21587892.3554   17242479.22346
  13472868.17643                  23900714.9694                   23900714.0314
 -30904155.63748 -23909441.54346  21386727.5474                   21386724.9844
 -30209356.68048 -23498849.79747  20338814.1414                   20338811.3594
   4903427.72747   3853757.21945  22682031.2034                   22682028.9694
 -49042844.03548 -38171109.33646  21549270.6954                   21549266.1024
 11  8 16  2 28  0.0000000  0  7G10G25G26G12G05G29G02
 -31239698.49247 -24302831.59444  23381125.5784                   23381122.8754
 -12619054.55148  -9709002.55946  21570006.8594   21570006.3554   17056588.42646
  13328018.27043                  23865341.6884                   23865340.4184
 -30935110.72748 -23933562.39146  21380836.8444                   21380834.4414
 -30279133.91848 -23553221.64847  20325535.5004                   20325533.0554
   4731358.48047   3719677.35945  22649287.6804                   22649286.0084
 -49094777.67248 -38211577.09046  21539388.0864                   21539383.1134
 11  8 16  2 28 30.0000000  0  7G10G25G26G12G05G29G02
 -31227256.72347 -24293136.70344  23383492.7584                   23383490.6844
 -12712460.47748  -9781786.38746  21552232.3204   21552232.2424   16870730.62946
  13183194.08643                  23829973.2664                   23829973.4924
 -30965614.45348 -23957331.52746  21375032.4224                   21375029.7734
 -30348374.85548 -23607175.60947  20312359.8134                   20312357.0744
   4559359.94147   3585652.59045  22616556.8524                   22616555.0704
 -49146615.06648 -38251969.85246  21529523.6254                   21529519.0274
 11  8 16  2 29  0.0000000  0  7G10G25G26G12G05G29G02
 -31214621.43047 -24283290.99644  23385897.2894                   23385894.9804
 -12805279.72348  -9854113.06646  21534569.2114   21534568.8554   16684912.59846
  13038400.87943                  23794613.7584                   23794612.7384
 -30995666.07848 -23980748.37946  21369313.5554                   21369311.4064
 -30417077.64548 -23660710.22747  20299285.9534                   20299283.2234
   4387437.13747   3451686.84045  22583841.0234                   22583839.4774
 -49198352.81648 -38292284.97746  21519678.1414                   21519673.7504
 11  8 16  2 29 30.0000000  0  7G10G25G26G12G05G29G02
 -31201795.71547 -24273296.94944  23388337.1254                   23388336.2734
 -12897512.71548  -9925982.92246  21517017.9924   21517017.9264   16499137.41446
  12893641.04343                  23759261.6644                   23759260.3014
 -31025267.77747 -24003814.66046  21363680.6644                   21363678.3524
 -30485243.96148 -23713826.82047  20286314.6094                   20286311.8444
   4215591.53147   3317781.24645  22551139.7584                   22551138.4614
 -49249991.59848 -38332522.96146  21509851.6414                   21509846.9804
 11  8 16  2 30  0.0000000  0  7G10G25G26G12G05G29G02
 -31188781.19147 -24263155.76644  23390813.6954                   23390812.8674
 -12989158.74248  -9997395.41046  21499578.3134   21499578.1214   16313409.60546
  12748918.12943                  23723918.7034                   23723916.7704
 -31054421.61348 -24026531.93046  21358132.7424                   21358130.3554
 -30552874.00448 -23766525.53947  20273444.6254                   20273442.0744
   4043826.61747   3183938.51245  22518454.5084                   22518452.4184
 -49301530.41048 -38372683.06646  21500044.2584                   21500039.2704
 11  8 16  2 30 30.0000000  0  7G10G25G26G12G05G29G02
 -31175581.80947 -24252870.53144  23393325.6174                   23393324.6334
 -13080219.22748 -10068351.62146  21482250.0864   21482250.0394   16127731.54346
  12604233.94143                  23688585.5704                   23688583.8984
 -31083130.85248 -24048902.77346  21352669.7194                   21352667.2274
 -30619970.48448 -23818808.48847  20260676.7664                   20260674.1024
   3872143.04347   3050159.16445  22485784.0394                   22485781.9264
 -49352970.78548 -38412766.46546  21490255.5164                   21490250.5164
 11  8 16  2 31  0.0000000  0  7G10G25G26G12G05G29G02
 -31162201.34047 -24242444.23443  23395871.1334                   23395869.7034
 -13170695.83248 -10138852.86746  21465033.0084   21465032.5004   15942105.37147
  12459590.22744                  23653262.5944                   23653260.8134
 -31111399.10248 -24070929.98446  21347290.5784                   21347287.7544
 -30686536.21948 -23870677.87547  20248009.6254                   20248006.9534
   3700541.14547   2916443.46545  22453128.8524                   22453127.0234
 -49404314.18448 -38452774.29346  21480484.4304                   21480480.7974
 11  8 16  2 31 30.0000000  0  7G10G25G26G12G05G29G02
 -31148643.21547 -24231879.45744  23398452.2894                   23398450.1684
 -13260589.28548 -10208899.71146  21447926.4534   21447926.5204   15756534.00847
  12314989.20744                  23617948.5864                   23617948.1414
 -31139229.20347 -24092615.78146  21341994.7274                   21341992.1294
 -30752572.92648 -23922135.02747  20235443.2114                   20235440.5394
   3529022.27047   2782792.44945  22420490.0004                   22420487.9924
 -49455561.18048 -38492706.99246  21470732.9694                   21470728.5984
 11  8 16  2 32  0.0000000  0  7G10G25G26G12G05G29G02
 -29559488.25047 -22993576.95343  23700858.1954                   23700857.1644
 -11774474.77348  -9050888.39546  21730724.6484   21730724.5594   17146449.40647
  13398040.21943                  23882441.0084                   23882439.2774
 -29591200.42647 -22886359.59846  21636574.5314                   21636572.5354
 -29242657.80148 -22745577.77747  20522770.7504                   20522767.9104
   4933016.53947   3876814.00845  22687661.0944                   22687659.2424
 -47931288.09448 -37304961.73046  21760792.3134                   21760787.8594
 11  8 16  2 32 30.0000000  0  7G10G25G26G12G05G29G02
 -29545574.26647 -22982734.89543  23703505.9844                   23703504.4804
 -11863194.75048  -9120020.83646  21713842.1334   21713841.9964   16961006.52047
  13253539.33243                  23847152.1334                   23847150.8914
 -29618153.53947 -22907362.03146  21631445.6724                   21631443.2274
 -29307632.79348 -22796207.62947  20510406.2814                   20510403.8054
   4761677.72347   3743303.30145  22655056.3054                   22655054.3984
 -47982334.38348 -37344738.03546  21751078.9144                   21751074.2114
 11  8 16  2 33  0.0000000  0  7G10G25G26G12G05G29G02
 -29531490.02747 -22971760.14843  23706185.9224                   23706184.4104
 -11951332.30948  -9188699.44546  21697070.2424   21697070.2664   16775629.53547
  13109089.82843                  23811876.2974                   23811874.9534
 -29644675.18448 -22928028.25446  21626398.8594                   21626396.1254
 -29372082.78148 -22846428.37947  20498141.7814                   20498138.8484
   4590427.93847   3609861.96545  22622468.7274                   22622466.6604
 -48033284.33648 -37384439.28546  21741383.2034                   21741378.6994
 11  8 16  2 33 30.0000000  0  7G10G25G26G12G05G29G02
 -29517236.37147 -22960653.42643  23708898.6334                   23708897.1684
 -12038885.96548  -9256923.07046  21680408.8834   21680408.7854   16590323.80146
  12964695.82444                  23776613.5474                   23776612.0084
 -29670766.30948 -22948359.01646  21621433.9694                   21621431.2814
 -29436007.59048 -22896239.90647  20485977.1954                   20485974.5314
   4419271.21948   3476493.14145  22589898.7114                   22589896.4494
 -48084135.96948 -37424063.92646  21731706.7504                   21731702.0784
 11  8 16  2 34  0.0000000  0  8G10G25G26G12G05G15G29G02
 -29502817.59447 -22949418.01643  23711641.9144                   23711640.5314
 -12125857.96148  -9324693.44946  21663859.1484   21663858.7304   16405091.06646
  12820358.73044                  23741364.9144                   23741363.6764
 -29696431.27747 -22968357.69946  21616549.9844                   21616547.1454
 -29499410.50848 -22945644.76247  20473911.9694                   20473909.1954
  27904073.88355  21779686.87153  24664739.5784                   24664739.8284
   4248207.72347   3343196.96545  22557345.7114                   22557344.2664
 -48134891.39148 -37463613.59046  21722048.0394                   21722043.4804
 11  8 16  2 34 30.0000000  0  8G10G25G26G12G05G15G29G02
 -29488241.53947 -22938060.04743  23714415.9454                   23714414.2504
 -12212253.80948  -9392014.87946  21647418.5474   21647417.7584   16219929.81346
  12676077.32044                  23706129.5784                   23706128.3134
 -29721677.39548 -22988030.00046  21611745.4844                   21611743.1454
 -29562297.97348 -22994647.96947  20461945.1484                   20461942.2774
  27720045.34046  21636288.18843  24629719.5944                   24629720.3914
   4077234.26247   3209970.94945  22524811.1414                   22524808.8444
 -48185555.65648 -37503092.22746  21712406.8364                   21712402.2274
 11  8 16  2 35  0.0000000  0  8G10G25G26G12G05G15G29G02
 -29473513.14547 -22926583.35543  23717219.4614                   23717216.3954
 -12298076.29748  -9458889.54346  21631086.7274   21631087.0474   16034841.37546
  12531852.65244                  23670907.9774                   23670907.1954
 -29746509.55148 -23007379.73446  21607020.7114                   21607017.6764
 -29624673.86348 -23043252.54347  20450075.3984                   20450072.7424
  27535893.17246  21492793.18443  24594676.8984                   24594676.3834
   3906350.39147   3076814.74245  22492292.7664                   22492290.9614
 -48236131.28948 -37542501.79746  21702782.8524                   21702778.0784
 11  8 16  2 35 30.0000000  0  8G10G25G26G12G05G15G29G02
 -29458633.58247 -22914988.87143  23720049.9774                   23720048.6884
 -12383324.45748  -9525316.67246  21614864.6334   21614864.2464   15849830.65646
  12387688.55144                  23635701.6334                   23635700.5824
 -29770928.74648 -23026407.68746  21602373.6254                   21602371.0664
 -29686538.11748 -23091458.43047  20438302.9774                   20438300.1884
  27351621.80946  21349205.23843  24559610.4844                   24559611.1054
   3735559.94947   2943731.34045  22459792.4454                   22459790.7894
 -48286616.61348 -37581841.00046  21693176.0634                   21693170.8594
 11  8 16  2 36  0.0000000  0  8G10G25G26G12G05G15G29G02
 -29443603.58647 -22903277.17243  23722910.3204                   23722908.2774
 -12467996.91848  -9591295.20746  21598752.1094   21598752.0904   15664903.21547
  12243589.35544                  23600511.2344                   23600510.3204
 -29794935.18748 -23045114.01246  21597805.3594                   21597802.6254
 -29747890.86348 -23139265.75447  20426627.6174                   20426624.9184
  27167235.72746  21205527.92244  24524523.6094                   24524522.9734
   3564866.37547   2810723.41045  22427310.6724                   22427308.5664
 -48337010.14148 -37621108.66446  21683586.1484                   21683581.8444
 11  8 16  2 36 30.0000000  0  8G10G25G26G12G05G15G29G02
 -29428422.55147 -22891447.78143  23725799.5944                   23725797.7114
 -12552091.22748  -9656823.23446  21582749.3754   21582749.2424   15480065.73047
  12099560.21544                  23565337.7584                   23565336.9924
 -29818528.82848 -23063498.67246  21593315.6564                   21593313.2504
 -29808730.18448 -23186672.99647  20415050.5234                   20415047.8754
  26982740.41046  21061765.51244  24489414.1564                   24489414.9414
   3394274.92247   2677795.07045  22394847.8914                   22394845.3594
 -48387308.64547 -37660302.28946  21674014.6954                   21674010.0554
 11  8 16  2 37  0.0000000  0  8G10G25G26G12G05G15G29G02
 -29413094.94947 -22879504.19543  23728716.1954                   23728713.9144
 -12635610.03948  -9721902.82846  21566856.2274   21566856.1764   15295319.71547
  11955602.39144                  23530181.2344                   23530180.9414
 -29841714.39148 -23081565.36346  21588903.7584                   21588900.9304
 -29869060.17248 -23233683.36747  20403570.0314                   20403567.2424
  26798136.49247  20917918.44944  24454285.8054                   24454286.0204
   3223785.43447   2544946.17245  22362405.1094                   22362402.6524
 -48437514.20747 -37699423.49246  21664460.9144                   21664456.2584
 11  8 16  2 37 30.0000000  0  8G10G25G26G12G05G15G29G02
 -29397622.14546 -22867447.46943  23731660.9534                   23731658.4024
 -12718552.67648  -9786533.44546  21551072.8444   21551072.5784   15110670.01647
  11811719.59044                  23495044.3444                   23495043.4024
 -29864492.81648 -23099314.78546  21584568.7424                   21584566.0124
 -29928881.00448 -23280296.98047  20392186.5554                   20392183.5474
  26613427.77347  20773989.72744  24419137.1024                   24419136.5434
   3053401.21547   2412179.30145  22329981.4844                   22329979.3634
 -48487625.65247 -37738471.36746  21654924.9774                   21654920.1134
 11  8 16  2 38  0.0000000  0  8G10G25G26G12G05G15G29G02
 -29382008.21546 -22855280.74643  23734631.1564                   23734629.4384
 -12800920.97748  -9850716.53946  21535398.6334   21535398.2894   14926119.18047
  11667913.81644                  23459925.7974                   23459924.1524
 -29886867.85948 -23116749.89846  21580311.2584                   21580309.0634
 -29988195.61748 -23326516.14547  20380899.3674                   20380896.8014
  26428615.83247  20629980.54744  24383968.2114                   24383968.5594
   2883123.23847   2279495.21145  22297579.1724                   22297576.6294
 -48537644.37147 -37777446.97346  21645406.9844                   21645401.9384
 11  8 16  2 38 30.0000000  0  8G10G25G26G12G05G15G29G02
 -29366254.08246 -22843004.84443  23737629.9064                   23737627.7464
 -12882714.26248  -9914451.54746  21519834.0474   21519833.7624   14741671.98047
  11524188.75044                  23424826.1094                   23424824.5234
 -29908840.80548 -23133871.69146  21576129.7424                   21576127.3244
 -30047004.11348 -23372340.93747  20369708.3984                   20369705.7704
  26243704.81347  20485894.18844  24348780.9534                   24348780.6414
   2712954.85247   2146896.53145  22265197.2504                   22265194.8444
 -48587568.96548 -37816349.23046  21635906.6024                   21635901.7704
 11  8 16  2 39  0.0000000  0  8G10G25G26G12G05G15G29G02
 -29350362.27747 -22830621.60243  23740653.7584                   23740652.2464
 -12963932.81648  -9977738.72746  21504378.4924   21504378.3284   14557332.47747
  11380547.64144                  23389747.6954                   23389745.5044
 -29930413.97748 -23150681.96946  21572024.6254                   21572021.9694
 -30105307.92648 -23417772.45347  20358613.1884                   20358610.2464
  26058697.45746  20341732.75044  24313574.7734                   24313574.9884
   2542898.40247   2014385.06645  22232836.4694                   22232834.4344
 -48637399.09047 -37855177.88746  21626424.0084                   21626418.8164
 11  8 16  2 39 30.0000000  0  8G10G25G26G12G05G15G29G02
 -29334333.63747 -22818131.78144  23743704.3594                   23743702.6764
 -13044576.02048 -10040577.58246  21489032.4924   21489032.4734   14373105.73847
  11236994.38744                  23354690.6954                   23354688.7424
 -29951588.45748 -23167181.56246  21567995.2504                   21567992.7464
 -30163107.26248 -23462810.88747  20347614.9144                   20347611.6644
  25873597.94946  20197499.51644  24278351.1334                   24278351.6884
   2372957.52347   1881963.66445  22200497.6094                   22200495.4574
 -48687133.24647 -37893931.76245  21616960.0004                   21616955.1094
 11  8 16  2 40  0.0000000  0  8G10G25G26G12G05G15G29G02
 -29318173.89547 -22805539.78543  23746779.0474                   23746777.1604
 -13124647.89848 -10102971.24646  21473795.1644   21473795.3444   14188991.91447
  11093529.12944                  23319653.9454                   23319652.8984
 -29972370.21548 -23183375.15246  21564040.8834                   21564037.7544
 -30220407.10248 -23507460.10247  20336710.7114                   20336708.0274
  25688405.85946  20053194.12943  24243110.5704                   24243110.2384
   2203130.81348   1749631.21545  22168180.5234                   22168178.4224
 -48736774.83648 -37932613.51645  21607513.5084                   21607508.4064
 11  8 16  2 40 30.0000000  0  8G10G25G26G12G05G15G29G02
 -29301883.25047 -22792845.76244  23749879.2344                   23749877.4064
 -13204146.71948 -10164918.36346  21458667.1804   21458667.1644   14004997.51247
  10950156.92244                  23284642.0164                   23284639.6844
 -29992759.13348 -23199262.62946  21560160.5554                   21560158.2704
 -30277206.93048 -23551719.69946  20325902.0004                   20325899.4024
  25503126.19946  19908820.50843  24207852.0864                   24207852.4574
   2033422.60547   1617391.09845  22135886.1724                   22135883.9804
 -48786321.41048 -37971221.21945  21598084.8834                   21598080.4104
 11  8 16  2 41  0.0000000  0  8G10G25G26G12G05G15G29G02
 -27710043.36347 -21552451.03943  24052795.7734                   24052793.9844
 -11707649.42648  -8998816.57046  21743441.3594   21743441.4804   15396553.40247
  12034486.23844                  23549445.3444                   23549444.5004
 -28437335.97748 -21987244.59446  21856147.8284                   21856145.2424
 -28758085.19148 -22367988.45347  20614981.4844                   20614978.5744
  26893189.07046  20991986.52743  24472372.4534                   24472372.7234
   3439262.05948   2712850.46545  22403408.9304                   22403406.3714
 -47260349.90648 -36782152.50445  21888467.7194                   21888463.2464
 11  8 16  2 41 30.0000000  0  8G10G25G26G12G05G15G29G02
 -27693500.78147 -21539560.69544  24055944.1334                   24055941.7704
 -11786007.18048  -9059874.54346  21728530.0864   21728530.1294   15212805.73447
  11891306.32044                  23514479.4774                   23514478.8874
 -28456950.05148 -22002528.29746  21852415.4454                   21852413.0314
 -28813892.53948 -22411474.69547  20604361.8134                   20604358.9804
  26707739.61746  20847480.56343  24437083.9844                   24437082.6524
   3269794.73047   2580798.05545  22371159.7274                   22371157.5164
 -47309709.03948 -36820614.15645  21879074.7734                   21879070.3404
 11  8 16  2 42  0.0000000  0  8G10G25G26G12G05G15G29G02
 -27676837.40247 -21526576.27343  24059114.8984                   24059112.7504
 -11863796.62548  -9120489.68746  21713727.5004   21713727.0124   15029186.12547
  11748226.15244                  23479537.8984                   23479536.5394
 -28476181.86348 -22017514.12946  21848755.3594                   21848753.0944
 -28869207.39148 -22454577.15646  20593835.7584                   20593832.5824
  26522208.69546  20702911.15243  24401777.8204                   24401777.2854
   3100450.19948   2448841.32445  22338934.1254                   22338932.3594
 -47358975.27347 -36859003.41445  21869699.9224                   21869695.2234
 11  8 16  2 42 30.0000000  0  8G10G25G26G12G05G15G29G02
 -27660055.68746 -21513499.62943  24062308.4064                   24062306.7074
 -11941018.82448  -9180662.81646  21699032.6884   21699032.7934   14845697.81347
  11605248.31344                  23444621.2504                   23444620.1484
 -28495033.92248 -22032204.04746  21845168.7274                   21845165.7114
 -28924031.59048 -22497297.29346  20583402.6414                   20583399.7114
  26336598.73446  20558280.10543  24366456.8834                   24366455.9694
   2931230.13347   2316981.59445  22306733.0164                   22306731.1484
 -47408148.98447 -36897320.58245  21860342.4304                   21860337.4224
 11  8 16  2 43  0.0000000  0  8G10G25G26G12G05G15G29G02
 -27643156.27046 -21500331.21143  24065524.5704                   24065522.2154
 -12017672.83648  -9240393.20746  21684445.4304   21684445.4694   14662346.37546
  11462377.11344                  23409731.1564                   23409729.0004
 -28513507.26248 -22046598.86746  21841653.0164                   21841650.9454
 -28978365.21948 -22539635.17647  20573063.7504                   20573060.6134
  26150914.05547  20413590.88743  24331122.3914                   24331122.0514
   2762138.50847   2185221.92245  22274555.8444                   22274553.7114
 -47457228.30947 -36935564.20745  21851002.9384                   21850997.9064
 11  8 16  2 43 30.0000000  0  8G10G25G26G12G05G15G29G02
 -27626142.02046 -21487073.33243  24068761.8444                   24068759.6524
 -12093760.18448  -9299682.03546  21669966.6484   21669966.7234   14479134.87947
  11319614.96544                  23374866.3054                   23374865.3164
 -28531605.04747 -22060701.04346  21838209.1174                   21838206.4414
 -29032210.68748 -22581592.67646  20562817.1804                   20562814.1884
  25965157.00047  20268845.23443  24295773.4534                   24295773.1604
   2593176.99647   2053563.65645  22242403.6804                   22242401.2704
 -47506213.65647 -36973734.59845  21841681.2974                   21841676.8204
 11  8 16  2 44  0.0000000  0  8G10G25G26G12G05G15G29G02
 -27609017.08246 -21473729.22743  24072020.5864                   24072018.6764
 -12169283.53948  -9358531.39546  21655595.2424   21655595.0274   14296065.41447
  11176963.52044                  23340029.7894                   23340028.4534
 -28549332.06248 -22074514.30546  21834835.9534                   21834833.1884
 -29085571.58248 -22623172.58647  20552663.1174                   20552660.0394
  25779328.70347  20124044.07843  24260411.8204                   24260410.8244
   2424345.73047   1922006.87145  22210276.2734                   22210273.8874
 -47555106.63347 -37011833.01245  21832377.0164                   21832372.3554
 11  8 16  2 44 30.0000000  0  8G10G25G26G12G05G15G29G02
 -27591782.78946 -21460299.93043  24075300.6644                   24075298.1374
 -12244242.21948  -9416940.73846  21641331.1254   21641330.7114   14113143.37947
  11034426.94144                  23305220.4144                   23305219.4654
 -28566688.85548 -22088039.09046  21831532.8594                   21831530.2074
 -29138447.99248 -22664374.96947  20542600.9384                   20542597.8484
  25593433.52047  19979190.83244  24225037.1254                   24225036.6644
   2255648.85247   1790554.80545  22178174.1024                   22178171.6334
 -47603905.75047 -37049858.28545  21823090.9144                   21823086.0274
 11  8 16  2 45  0.0000000  0  8G10G25G26G12G05G15G29G02
 -27574442.93746 -21446788.34443  24078599.8834                   24078597.4924
 -12318638.92648  -9474912.18746  21627173.8284   21627173.4494   13930370.57847
  10892006.65644                  23270439.7274                   23270439.4694
 -28583680.09848 -22101279.02046  21828299.4304                   21828296.8404
 -29190843.54348 -22705202.66447  20532630.1724                   20532627.2384
  25407472.37547  19834286.17644  24189650.0474                   24189648.6454
   2087086.78547   1659207.78145  22146097.5314                   22146095.3484
 -47652612.65247 -37087811.71945  21813822.2114                   21813817.5514
 11  8 16  2 45 30.0000000  0  8G10G25G26G12G05G15G29G02
 -27556998.04746 -21433194.93443  24081919.4534                   24081918.0084
 -12392472.60248  -9532444.91446  21613123.9304   21613123.7854   13747752.90247
  10749707.21544                  23235688.5784                   23235688.1334
 -28600306.30147 -22114234.50846  21825135.5864                   21825133.5434
 -29242757.96148 -22745655.44147  20522751.0554                   20522748.1134
  25221450.42247  19689334.13344  24154250.3444                   24154250.2624
   1918663.54747   1527968.93845  22114047.8834                   22114045.0474
 -47701224.90248 -37125691.39546  21804571.6954                   21804567.0514
 11  8 16  2 46  0.0000000  0  8G10G25G26G12G05G15G29G02
 -27539452.31246 -21419522.89843  24085257.9304                   24085256.6844
 -12465745.89848  -9589540.98846  21599180.1644   21599180.0204   13565292.33247
  10607530.23444                  23200967.5944                   23200966.2344
 -28616571.62148 -22126908.78146  21822040.9064                   21822038.2154
 -29294194.63348 -22785735.94546  20512963.0084                   20512959.8984
  25035368.62947  19544335.48844  24118840.2664                   24118839.6604
   1750379.39147   1396838.45746  22082024.3444                   22082021.7424
 -47749744.28147 -37163498.69146  21795338.9144                   21795334.3094
 11  8 16  2 46 30.0000000  0  8G10G25G26G12G05G15G29G02
 -27521806.98046 -21405773.31243  24088616.6174                   24088614.4924
 -12538459.14548  -9646200.65246  21585343.2194   21585343.2154   13382993.50847
  10465479.27744                  23166277.4304                   23166275.9224
 -28632478.06248 -22139303.41446  21819013.8674                   21819011.4414
 -29345154.76248 -22825445.12546  20503265.8444                   20503262.9534
  24849230.53147  19399292.95344  24083419.3914                   24083419.1764
   1582237.56347   1265818.89845  22050028.3284                   22050025.8524
 -47798169.90247 -37201232.93445  21786123.5084                   21786118.8164
 11  8 16  2 47  0.0000000  0  8G10G25G26G12G05G15G29G02
 -27504067.32846 -21391950.21143  24091991.5164                   24091990.2274
 -12610615.87948  -9702426.67646  21571612.3754   21571612.0514   13200857.60547
  10323555.26244                  23131618.6644                   23131616.5084
 -28648031.35248 -22151422.86346  21816054.1484                   21816051.3674
 -29395642.78548 -22864786.43446  20493658.0704                   20493655.0554
  24663036.48047  19254206.81644  24047987.9924                   24047987.5664
   1414237.89847   1134910.10945  22018058.8754                   22018056.5124
 -47846504.23847 -37238896.03545  21776925.8754                   21776921.5044
 11  8 16  2 47 30.0000000  0  8G10G25G26G12G05G15G29G02
 -27486234.25446 -21378054.29743  24095385.4064                   24095383.5594
 -12682215.93748  -9758218.92246  21557987.2114   21557986.9024   13018889.57847
  10181762.04344                  23096990.8834                   23096989.1724
 -28663232.79347 -22163268.15246  21813161.1254                   21813158.8014
 -29445659.47347 -22903760.46546  20484140.4924                   20484137.5434
  24476790.50047  19109080.23444  24012546.5394                   24012545.8714
   1246383.68047   1004114.65246  21986117.3914                   21986115.1844
 -47894745.79747 -37276486.85945  21767745.7424                   21767740.9614
 11  8 16  2 48  0.0000000  0  8G10G25G26G12G05G15G29G02
 -27468309.21547 -21364086.70743  24098796.7734                   24098794.1294
 -12753259.32848  -9813577.40246  21544468.2344   21544468.0784   12837094.12947
  10040103.30944                  23062395.4534                   23062395.1254
 -28678083.75047 -22174840.32846  21810335.1094                   21810332.7344
 -29495205.43048 -22942367.68746  20474712.1334                   20474709.2584
  24290496.78546  18963916.42244  23977095.1174                   23977094.8484
   1078678.19947    873435.10945  21954203.8524                   21954201.3524
 -47942893.52348 -37314004.55946  21758583.6724                   21758579.3484
 11  8 16  2 48 30.0000000  0  8G10G25G26G12G05G15G29G02
 -27450294.89146 -21350049.58243  24102224.7114                   24102222.7274
 -12823747.81248  -9868503.48846  21531054.6414   21531054.5514   12655474.78947
   9898581.81644                  23027834.4844                   23027833.7584
 -28692587.66047 -22186142.08646  21807575.3984                   21807572.8554
 -29544283.21948 -22980610.10946  20465372.7734                   20465369.6254
  24104157.24646  18818716.92644  23941636.0394                   23941634.9224
    911123.16447    742872.79346  21922319.0004                   21922316.2274
 -47990947.63748 -37351449.31645  21749438.9224                   21749434.6994
 11  8 16  2 49  0.0000000  0  8G10G25G26G12G05G15G29G02
 -27432194.39846 -21335945.29343  24105669.1564                   24105666.3014
 -12893683.14548  -9922998.53546  21517746.4534   21517746.4454   12474034.43447
   9757199.77744                  22993307.8594                   22993306.5004
 -28706747.91848 -22197176.05546  21804880.4224                   21804877.9734
 -29592895.61748 -23018489.89546  20456122.2194                   20456118.9414
  23917774.71546  18673483.90643  23906167.9534                   23906168.2624
    743720.19148    612428.96546  21890463.2114                   21890460.7774
 -48038908.75048 -37388821.60245  21740312.7894                   21740308.0824
 11  8 16  2 49 30.0000000  0  8G10G25G26G12G05G15G29G02
 -25838590.94946 -20094176.40643  24408921.9064                   24408919.1914
 -11387644.55148  -8749461.98046  21804335.9694   21804335.7274   13868202.57847
  10843564.63744                  23258609.3204                   23258607.9224
 -27145147.10248 -20980344.25846  22102043.4384                   22102040.8244
 -28065623.04348 -21828407.35946  20746752.4304                   20746749.4494
  25306777.44946  19755823.84844  24170487.3834                   24170486.7664
   2151896.76248   1709709.45346  22158430.4144                   22158428.1954
 -46511355.35247 -36198520.24645  22030996.6954                   22030991.7624
 11  8 16  2 50  0.0000000  0  8G10G25G26G12G05G15G29G02
 -25820324.68046 -20079942.89143  24412397.5474                   24412395.0594
 -11456476.76648  -8803097.47346  21791237.3984   21791237.5354   13687132.17247
  10702470.85944                  23224152.6024                   23224151.4344
 -27158627.91847 -20990848.80546  22099477.8834                   22099475.5984
 -28113309.62548 -21865565.72346  20737678.0944                   20737675.1454
  25120317.16846  19610530.21144  24135004.5784                   24135003.9104
   1984804.82447   1579507.98446  22126633.6174                   22126631.4614
 -46559129.60948 -36235746.92645  22021905.1334                   22021900.7734
 11  8 16  2 50 30.0000000  0  8G10G25G26G12G05G15G29G02
 -25801980.12146 -20065648.41042  24415888.3134                   24415885.9884
 -11524760.38348  -8856305.48846  21778243.6254   21778243.6644   13506251.12147
  10561524.65244                  23189732.4144                   23189731.0704
 -27171774.30547 -21001092.75046  22096976.0784                   22096973.5554
 -28160537.35548 -21902366.53546  20728691.0164                   20728687.8094
  24933821.32847  19465208.91844  24099515.8984                   24099514.7774
   1817870.77347   1449429.55146  22094867.4534                   22094864.8014
 -46606811.25448 -36272901.44545  22012832.0084                   22012827.1804
 11  8 16  2 51  0.0000000  0  8G10G25G26G12G05G15G29G02
 -25783555.79346 -20051291.79743  24419393.5784                   24419392.2384
 -11592492.85248  -8909084.03146  21765354.5944   21765354.8524   13325567.18847
  10420732.03944                  23155348.5554                   23155347.9924
 -27184585.25847 -21011075.31246  22094538.4064                   22094535.8954
 -28207304.58647 -21938808.52046  20719791.1094                   20719788.3954
  24747297.06347  19319865.44143  24064021.6484                   24064019.6524
   1651100.82447   1319478.99646  22063132.1484                   22063129.9064
 -46654396.35548 -36309980.73445  22003776.7584                   22003772.3634
 11  8 16  2 51 30.0000000  0  8G10G25G26G12G05G15G29G02
 -25765055.33246 -20036875.85242  24422914.8054                   24422913.2894
 -11659676.89148  -8961435.23446  21752569.9844   21752569.6804   13145082.60247
  10280094.75844                  23121003.9224                   23121002.4734
 -27197064.82847 -21020799.66446  22092163.7274                   22092161.5704
 -28253614.53548 -21974894.18446  20710978.7114                   20710976.0274
  24560745.21947  19174500.47744  24028521.7584                   24028520.3364
   1484495.68447   1189656.85546  22031428.0234                   22031425.5594
 -46701886.28148 -36346985.86345  21994739.3834                   21994734.6914
 11  8 16  2 52  0.0000000  0  8G10G25G26G12G05G15G29G02
 -25746480.78946 -20022402.22742  24426448.9454                   24426448.3714
 -11726313.30548  -9013359.70746  21739889.3914   21739889.2854   12964801.70747
  10139616.18444                  23086697.7034                   23086696.1414
 -27209215.26248 -21030267.53146  22089851.9144                   22089848.8984
 -28299468.78548 -22010624.75446  20702252.9694                   20702250.0984
  24374169.25447  19029116.70344  23993016.9694                   23993015.8244
   1318057.99647   1059965.19946  21999756.0864                   21999753.4614
 -46749280.06647 -36383916.08245  21985721.0944                   21985715.7504
 11  8 16  2 52 30.0000000  0  8G10G25G26G12G05G15G29G02
 -25727834.11746 -20007872.37142  24429998.6804                   24429996.0044
 -11792403.23848  -9064858.35946  21727312.9844   21727312.9614   12784728.49247
   9999299.44144                  23052430.8364                   23052429.2974
 -27221039.30547 -21039481.07445  22087601.4844                   22087598.7934
 -28344869.19948 -22046001.68446  20693613.7814                   20693610.2304
  24187572.61347  18883716.85544  23957509.5474                   23957508.1994
   1151790.82847    930406.41846  21968116.3754                   21968114.1524
 -46796577.47747 -36420771.19545  21976720.4144                   21976716.0664
 11  8 16  2 53  0.0000000  0  8G10G25G26G12G05G15G29G02
 -25709118.65646 -19993288.84442  24433558.8284                   24433557.8284
 -11857948.96548  -9115932.95346  21714840.0944   21714839.8244   12604865.82847
   9859146.76644                  23018204.1884                   23018202.7304
 -27232540.88347 -21048443.35546  22085412.9534                   22085410.5314
 -28389818.81648 -22081027.35546  20685060.1804                   20685057.2894
  24000956.99247  18738302.19144  23921997.6884                   23921996.0944
    985694.57048    800980.80546  21936509.2584                   21936507.0314
 -46843779.25447 -36457551.79345  21967738.0084                   21967733.4614
 11  8 16  2 53 30.0000000  0  9G10G25G26G12G05G15G29G21G02
 -25690337.91446 -19978654.42242  24437133.6334                   24437132.0554
 -11922953.29348  -9166585.68046  21702470.1024   21702469.7774   12425216.05547
   9719159.98444                  22984017.3914                   22984016.5664
 -27243724.18048 -21057157.60945  22083284.8204                   22083282.2154
 -28434320.76248 -22115704.19146  20676591.6094                   20676588.3484
  23814323.91446  18592873.93444  23886482.0474                   23886480.7114
    819770.31647    671689.23846  21904935.3914                   21904932.7464
  31292560.85956  24417437.14152  25180638.7504                   25180638.1024
 -46890886.71148 -36494258.91045  21958773.7504                   21958768.9414
 11  8 16  2 54  0.0000000  0  9G10G25G26G12G05G15G29G21G02
 -25671498.76646 -19963974.56243  24440718.3674                   24440716.3444
 -11987422.11748  -9216821.12946  21690202.1564   21690202.2974   12245778.54747
   9579338.60944                  22949871.9774                   22949870.3164
 -27254596.29747 -21065629.39846  22081216.2894                   22081213.2734
 -28478381.79748 -22150037.44946  20668206.7894                   20668203.9494
  23627672.28946  18447431.23044  23850963.4694                   23850961.5784
    654015.92647    542530.02346  21873393.0394                   21873390.7034
  31145457.14146  24302810.99642  25152645.1024                   25152645.5474
 -46937904.30948 -36530895.98845  21949827.0554                   21949821.9774
 11  8 16  2 54 30.0000000  0  9G10G25G26G12G05G15G29G21G02
 -25652602.96146 -19949250.57843  24444314.1954                   24444311.9024
 -12051356.29748  -9266639.97746  21678036.1954   21678035.5044   12066557.65647
   9439686.03944                  22915766.9774                   22915766.1294
 -27265159.52048 -21073860.47746  22079206.0004                   22079203.1564
 -28522003.54748 -22184028.41446  20659905.9774                   20659903.0514
  23441005.18446  18301976.47344  23815441.6024                   23815440.5044
    488434.75048    413505.76646  21841883.8754                   21841881.2664
  30998367.32446  24188195.67642  25124654.4844                   25124654.9104
 -46984830.79748 -36567462.08245  21940896.7894                   21940892.4414
 11  8 16  2 55  0.0000000  0  9G10G25G26G12G05G15G29G21G02
 -25633654.32846 -19934485.37543  24447920.1414                   24447917.7344
 -12114759.07448  -9316044.73446  21665970.6644   21665970.5634   11887555.16447
   9300203.63344                  22881704.0084                   22881703.0044
 -27275418.68048 -21081854.62945  22077253.8284                   22077251.1804
 -28565189.93748 -22217680.13746  20651687.8524                   20651684.8834
  23254324.04746  18156510.78144  23779917.2344                   23779916.3404
    323026.96948    284616.62146  21810407.5164                   21810405.1094
  30851289.01646  24073589.30942  25096666.9534                   25096666.5594
 -47031668.16447 -36603958.73045  21931984.2424                   21931979.2894
 11  8 16  2 55 30.0000000  0  9G10G25G26G12G05G15G29G21G02
 -25614656.49646 -19919681.87943  24451535.0314                   24451532.8484
 -12177633.00048  -9365037.40246  21654006.6954   21654005.9104   11708774.00447
   9160893.70744                  22847683.0164                   22847681.7814
 -27285377.66048 -21089614.87945  22075358.7194                   22075356.2894
 -28607943.88748 -22250994.89146  20643552.1334                   20643549.2664
  23067630.72746  18011035.59444  23744390.3754                   23744390.0234
    157793.67248    155863.44146  21778964.6254                   21778962.7894
  30704220.57046  23958990.63742  25068680.4614                   25068679.5514
 -47078417.21548 -36640386.55145  21923087.9924                   21923083.2624
 11  8 16  2 56  0.0000000  0  9G10G25G26G12G05G15G29G21G02
 -25595610.74246 -19904841.02043  24455159.0864                   24455156.5474
 -12239978.89148  -9413618.61746  21642142.4384   21642141.9344   11530218.67247
   9021759.74245                  22813705.4064                   22813704.2274
 -27295038.51647 -21097142.82045  22073520.2194                   22073517.2274
 -28650266.63348 -22283973.64846  20635498.3134                   20635495.5044
  22880928.72746  17865553.63744  23708862.3984                   23708861.1684
     -7262.28948     27248.45346  21747555.5314                   21747553.1804
  30557162.14146  23844399.75843  25040696.2734                   25040695.2234
 -47125076.76647 -36676744.63345  21914208.8834                   21914204.6524
 11  8 16  2 56 30.0000000  0  9G10G25G26G12G05G15G29G21G02
 -25576516.74646 -19889962.57043  24458792.7814                   24458790.5004
 -12301795.68448  -9461787.54346  21630378.7894   21630378.6914   11351895.37147
   8882806.57844                  22779771.3914                   22779769.8094
 -27304401.60547 -21104438.73845  22071738.3134                   22071736.2624
 -28692157.86348 -22316616.16046  20627526.8984                   20627523.8404
  22694223.71546  17720069.35244  23673333.1174                   23673332.5474
   -172135.43448   -101224.09046  21716181.2344                   21716178.5594
  30410116.19546  23729818.61743  25012714.2274                   25012713.0394
 -47171644.08648 -36713030.87145  21905347.8134                   21905342.7304
 11  8 16  2 57  0.0000000  0  9G10G25G26G12G05G15G29G21G02
 -25557375.93746 -19875047.66843  24462435.5004                   24462433.3524
 -12363084.16448  -9509544.80146  21618716.2344   21618715.7234   11173808.82847
   8744037.90244                  22745882.1724                   22745881.0904
 -27313468.74647 -21111504.05145  22070012.7194                   22070010.2074
 -28733619.26248 -22348923.73046  20619637.0164                   20619634.0904
  22507519.35546  17574585.55544  23637804.8284                   23637803.3714
   -336823.07448   -229552.09846  21684841.9924                   21684840.0274
  30263082.69946  23615247.16843  24984734.9384                   24984733.5234
 -47218118.34847 -36749244.57045  21896503.8204                   21896499.0164
 11  8 16  2 57 30.0000000  0  8G25G26G12G05G15G29G21G02
 -12423845.96148  -9556891.65646  21607153.4844   21607153.4104   10995962.80147
   8605456.65245                  22712039.0554                   22712038.1374
 -27322243.12547 -21118341.23845  22068343.5004                   22068340.8674
 -28774652.46148 -22380897.64846  20611828.5944                   20611825.3404
  22320818.77347  17429104.71944  23602276.5634                   23602275.5594
   -501322.73048   -357733.61346  21653538.7344                   21653536.7584
  30116061.42246  23500685.24243  24956757.1564                   24956755.9414
 -47264499.48448 -36785385.73045  21887677.5164                   21887673.2424
 11  8 16  2 58  0.0000000  0  8G25G26G12G05G15G29G21G02
 -12484082.66448  -9603829.33646  21595690.9534   21595690.4534   10818360.96147
   8467065.67644                  22678242.7344                   22678241.4454
 -27330727.78147 -21124952.66445  22066728.6564                   22066726.2034
 -28815260.00848 -22412539.88746  20604101.0554                   20604098.2344
  22134124.65246  17283628.89544  23566749.3204                   23566748.6134
   -665632.27048   -485766.98446  21622271.8054                   21622269.4964
  29969051.83646  23386132.42643  24928782.5314                   24928781.4804
 -47310787.09847 -36821454.00045  21878869.8834                   21878865.1054
 11  8 16  2 58 30.0000000  0  8G25G26G12G05G15G29G21G02
 -10968369.62548  -8422754.23846  21884121.5084   21884121.2194   12216437.20347
   9556475.79744                  22944287.7274                   22944286.2384
 -25763500.78547 -19903736.82845  22364962.2034                   22364959.7114
 -27280018.28548 -21216247.63346  20896248.0084                   20896244.8874
  23522870.75047  18365768.82044  23831018.5554                   23831017.5314
    745680.55547    613957.32046  21890835.7274                   21890833.4024
  31397482.62946  24499195.50443  25200603.7974                   25200602.0904
 -45781555.09847 -35629844.63745  22169872.6174                   22169868.3634
 11  8 16  2 59  0.0000000  0  8G25G26G12G05G15G29G21G02
 -11027552.71148  -8468870.91846  21872859.3204   21872859.0314   12039343.54747
   9418480.80544                  22910587.8834                   22910586.4454
 -25771406.06647 -19909896.78945  22363457.7114                   22363455.4454
 -27319772.41848 -21247224.87546  20888683.2814                   20888680.3524
  23336207.38347  18220316.93444  23795499.0474                   23795497.1764
    581766.75848    486232.30946  21859643.9924                   21859641.1994
  31250503.51246  24384666.45743  25172633.8284                   25172632.9304
 -45827646.82448 -35665760.26245  22161101.8594                   22161097.3014
 11  8 16  2 59 30.0000000  0  8G25G26G12G05G15G29G21G02
 -11086213.87948  -8514580.92646  21861696.3984   21861696.3094   11862507.16847
   9280686.28544                  22876937.9224                   22876935.0394
 -25779028.25847 -19915836.16845  22362007.1024                   22362004.9264
 -27359105.49648 -21277874.02046  20881198.1954                   20881195.1764
  23149561.41447  18074878.62144  23759981.1484                   23759979.4104
    418052.12148    358662.49246  21828490.1174                   21828487.5864
  31103536.20746  24270146.59842  25144667.4774                   25144665.5634
 -45873642.42647 -35701600.98845  22152349.4694                   22152344.6294
 11  8 16  3  0  0.0000000  0  8G25G26G12G05G15G29G21G02
 -11144354.61748  -8559885.39546  21850632.6414   21850632.4924   11685931.91047
   9143095.22744                  22843335.8054                   22843334.1254
 -25786370.40247 -19921557.33645  22360610.1414                   22360607.3794
 -27398019.38348 -21308196.52046  20873793.1884                   20873790.2814
  22962936.08646  17929456.38344  23724467.2664                   23724464.9344
    254538.78948    231249.53546  21797374.4614                   21797372.0204
  30956580.87546  24155636.08243  25116701.9454                   25116701.1884
 -45919541.34047 -35737366.37945  22143614.6094                   22143610.0664
 11  8 16  3  0 30.0000000  0  8G25G26G12G05G15G29G21G02
 -11201980.27748  -8604788.49246  21839666.6414   21839666.7034   11509618.49247
   9005708.19544                  22809784.3674                   22809783.3674
 -25793438.59447 -19927065.02745  22359265.2814                   22359262.5394
 -27436520.00048 -21338197.00446  20866466.6254                   20866464.0274
  22776330.69147  17784049.66444  23688957.5394                   23688955.0664
     91225.66048    103992.58246  21766297.0004                   21766295.2624
  30809633.14546  24041131.48043  25088739.1804                   25088737.8874
 -45965347.62148 -35773059.59045  22134898.2114                   22134893.3054
 11  8 16  3  1  0.0000000  0  8G25G26G12G05G15G29G21G02
 -11259094.43748  -8649293.03546  21828798.2424   21828798.0904   11333568.16447
   8868526.18044                  22776283.1804                   22776281.4534
 -25800237.87947 -19932363.17245  22357971.1724                   22357968.7304
 -27474611.51248 -21367878.70346  20859218.1724                   20859215.2034
  22589746.39847  17638659.41044  23653451.2194                   23653448.6684
    -71886.70348    -23107.93046  21735257.8284                   21735255.6804
  30662691.18746  23926631.40343  25060776.7734                   25060775.2734
 -46011062.23447 -35808681.36345  22126199.0634                   22126194.3914
 11  8 16  3  1 30.0000000  0  8G25G26G12G05G15G29G21G02
 -11315698.87548  -8693400.38346  21818026.9224   21818026.5704   11157785.19947
   8731552.49644                  22742832.6884                   22742830.8634
 -25806771.28147 -19937454.14545  22356727.7504                   22356725.4414
 -27512296.08248 -21397243.29346  20852046.9614                   20852044.0664
  22403186.35247  17493288.04744  23617950.0554                   23617948.2934
   -234796.03548   -150050.23846  21704257.0784                   21704254.6684
  30515754.04346  23812135.07443  25032815.3444                   25032814.1414
 -46056685.13748 -35844231.67645  22117517.3204                   22117512.6684
 11  8 16  3  2  0.0000000  0  8G25G26G12G05G15G29G21G02
 -11371793.26648  -8737110.30146  21807352.5944   21807352.5594   10982275.28947
   8594791.57444                  22709433.8054                   22709432.4304
 -25813039.57847 -19942338.53145  22355535.4454                   22355532.8634
 -27549573.54348 -21426290.66046  20844953.3834                   20844950.0784
  22216655.59846  17347939.48444  23582454.2584                   23582452.2504
   -397497.71148   -276830.74646  21673295.9844                   21673293.7584
  30368823.53146  23697643.87143  25004854.9694                   25004853.9804
 -46102213.84447 -35879708.60545  22108853.7274                   22108848.7344
 11  8 16  3  2 30.0000000  0  8G25G26G12G05G15G29G21G02
 -11427379.66048  -8780424.36746  21796774.3834   21796774.2704   10807041.92647
   8458246.15244                  22676088.8524                   22676086.9344
 -25819045.94947 -19947018.82445  22354391.9774                   22354389.8794
 -27586446.86348 -21455023.11746  20837936.4614                   20837933.5044
  22030156.92646  17202615.93444  23546964.1024                   23546963.1804
   -559989.79348   -403447.91846  21642374.6724                   21642372.5664
  30221898.88346  23583157.25843  24976897.5314                   24976894.9184
 -46147648.53147 -35915112.25445  22100207.5314                   22100202.2344
 11  8 16  3  3  0.0000000  0  8G25G26G12G05G15G29G21G02
 -11482458.50048  -8823342.94146  21786293.5634   21786293.2974   10632090.22347
   8321920.18445                  22642796.4534                   22642794.4924
 -25824791.82047 -19951496.13745  22353298.6954                   22353296.1844
 -27622916.52348 -21483441.02746  20830996.3674                   20830993.5084
  21843694.85547  17057320.89844  23511482.1954                   23511480.7074
   -722268.43048   -529898.78146  21611494.1334                   21611491.5634
  30074981.15646  23468676.04343  24948938.5554                   24948937.8014
 -46192987.28147 -35950441.14845  22091579.9534                   22091575.4614
 11  8 16  3  3 30.0000000  0  8G25G26G12G05G15G29G21G02
 -11537032.27748  -8865867.96946  21775908.6334   21775908.2304   10457423.53147
   8185816.32044                  22609558.5474                   22609556.2034
 -25830280.79347 -19955773.25445  22352254.2274                   22352251.5434
 -27658985.35948 -21511546.61346  20824133.0004                   20824130.1024
  21657271.70347  16912056.21944  23476006.9924                   23476005.5354
   -884332.12948   -656182.14546  21580654.4694                   21580651.9804
  29928069.00446  23354199.14543  24920981.8524                   24920980.9064
 -46238230.80947 -35985695.84045  22082970.0394                   22082965.5944
 11  8 16  3  4  0.0000000  0  8G25G26G12G05G15G29G21G02
 -11591100.31648  -8907998.90246  21765619.8594   21765618.9494   10283047.90247
   8049939.24245                  22576375.3984                   22576373.9304
 -25835513.41447 -19959850.62945  22351258.5234                   22351255.9964
 -27694653.17248 -21539339.70346  20817345.8284                   20817342.5554
  21470893.11747  16766826.23844  23440540.2584                   23440538.2304
  -1046175.71148   -782293.99646  21549856.6254                   21549853.9844
  29781164.66046  23239728.37543  24893027.1564                   24893025.8594
 -46283376.18047 -36020874.06245  22074379.8674                   22074374.5944
 11  8 16  3  4 30.0000000  0  8G25G26G12G05G15G29G21G02
 -11644665.79348  -8949738.24246  21755426.7274   21755426.4224   10108966.10547
   7914291.14545                  22543249.1254                   22543247.0314
 -25840493.61747 -19963731.32445  22350310.9774                   22350308.4184
 -27729923.51248 -21566823.08246  20810633.7424                   20810630.9734
  21284560.93447  16621632.41444  23405082.2894                   23405080.5354
  -1207798.04348   -908233.44146  21519101.0234                   21519098.3014
  29634266.53146  23125262.43843  24865072.8364                   24865071.6054
 -46328424.30547 -36055976.48045  22065807.0784                   22065802.1804
 11  8 16  3  5  0.0000000  0  8G25G26G12G05G15G29G21G02
 -11697733.36348  -8991089.58246  21745327.8444   21745327.7974
   9935178.98047   7778872.64845  22510178.4924                   22510176.4454
 -25845227.56247 -19967420.12945  22349410.1484                   22349407.4384
 -27764801.73448 -21594000.91446  20803996.5864                   20803993.5084
  21098275.42247  16476474.95344  23369632.9774                   23369631.2734
  -1369199.85248  -1034001.06246  21488386.8834                   21488384.6524
  29487371.05546  23010798.52043  24837119.4534                   24837118.5474
 -46373377.63748 -36091005.04745  22057252.8674                   22057247.4774
 11  8 16  3  5 30.0000000  0  8G25G26G12G05G15G29G21G02
 -11750303.07448  -9032052.99646  21735324.6564   21735323.9924
   9761692.16847   7643688.16845  22477164.7814                   22477163.2384
 -25849716.18047 -19970917.75445  22348555.9614                   22348553.2974
 -27799288.03548 -21620873.34446  20797434.0704                   20797431.3834
  20912041.49647  16331357.72344  23334194.2974                   23334192.4104
  -1530376.51648  -1159593.24246  21457716.0784                   21457713.4884
  29340479.84446  22896337.91443  24809167.6724                   24809166.1054
 -46418234.11748 -36125958.15645  22048716.7034                   22048712.3324
 11  8 16  3  6  0.0000000  0  8G25G26G12G05G15G29G21G02
 -11802376.50848  -9072629.69146  21725415.1804   21725414.9884
   9588509.87947   7508740.97745  22444210.0704                   22444207.3164
 -25853962.12147 -19974226.28145  22347747.5704                   22347745.4144
 -27833383.89548 -21647441.54346  20790945.8284                   20790942.3714
  20725862.72347  16186283.45344  23298765.7584                   23298763.5704
  -1691325.37948  -1285007.91846  21427088.7194                   21427086.3674
  29193593.05546  22781880.81343  24781215.9224                   24781214.1374
 -46462992.97348 -36160835.18445  22040199.7504                   22040194.5274
 11  8 16  3  6 30.0000000  0  8G25G26G12G05G15G29G21G02
 -11853959.28948  -9112824.06646  21715599.3134   21715599.3874
   9415632.02347   7374030.99245  22411311.6174                   22411310.2424
 -25857971.65647 -19977350.60245  22346984.5314                   22346982.3444
 -27867095.69148 -21673710.46946  20784530.7894                   20784527.7114
  20539738.28147  16041251.50044  23263347.5314                   23263345.4184
  -1852047.75848  -1410246.10546  21396504.2894                   21396501.2034
  29046706.30946  22667423.70343  24753263.5314                   24753262.0634
 -46507657.17648 -36195638.45745  22031700.2734                   22031695.5124
 11  8 16  3  7  0.0000000  0  8G25G26G12G05G15G29G21G02
 -10329628.73448  -7925034.02346  22005669.5084   22005669.6844
  10818491.39547   8467168.21145  22678266.8444                   22678264.9534
 -24286324.44947 -18752690.46545  22646059.1644                   22646057.0634
 -26325001.53148 -20472078.65646  21077981.5554                   21077978.5274
  21929100.54747  17123871.54344  23527733.4534                   23527732.2624
   -437113.02048   -307699.53146  21665757.0004                   21665754.2664
  30475246.96946  23780572.37143  25025105.7344                   25025104.4694
 -44976802.65248 -35002764.79745  22323012.2344                   22323007.8874
 11  8 16  3  7 30.0000000  0  8G25G26G12G05G15G29G21G02
 -10380233.17248  -7964466.05946  21996039.8524   21996040.0554
  10646237.01247   8332944.07845  22645488.0004                   22645486.2624
 -24289867.20747 -18755451.07045  22645385.3594                   22645382.7114
 -26357948.77048 -20497751.81246  21071711.8134                   21071709.3094
  21743097.16846  16978933.96944  23492337.6414                   23492336.3634
   -597372.06248   -432576.69146  21635261.0704                   21635258.5204
  30328362.11346  23666116.74643  24997155.5314                   24997153.2194
 -45021274.77748 -35037418.40645  22314549.1024                   22314544.4924
 11  8 16  3  8  0.0000000  0  8G25G26G12G05G15G29G21G02
 -10430351.17248  -8003519.03146  21986503.0394   21986502.4924
  10474300.40247   8198967.53545  22612769.2814                   22612767.4804
 -24293181.19947 -18758033.41445  22644754.6484                   22644752.4384
 -26390517.05548 -20523129.69946  21065514.4384                   21065511.2624
  21557159.48047  16834047.54744  23456956.2424                   23456953.2234
   -757395.74248   -557270.43446  21604808.8674                   21604806.7424
  30181477.75846  23551661.51643  24969203.0314                   24969202.0044
 -45065649.74648 -35071996.28945  22306104.9694                   22306100.0904
 11  8 16  3  8 30.0000000  0  8G25G26G12G05G15G29G21G02
 -10479987.59848  -8042196.76646  21977057.3364   21977057.1844
  10302682.44147   8065239.30545  22580111.6334                   22580110.0784
 -24296271.89847 -18760441.77045  22644166.5164                   22644164.2624
 -26422711.09448 -20548215.95746  21059388.0314                   21059385.0314
  21371287.47747  16689212.28144  23421585.6644                   23421582.4654
   -917184.40248   -681781.05946  21574402.4614                   21574399.6994
  30034590.69546  23437204.16443  24941251.0314                   24941250.3324
 -45109930.19148 -35106500.53545  22297679.0004                   22297673.9884
 11  8 16  3  9  0.0000000  0  8G25G26G12G05G15G29G21G02
 -10529145.31648  -8080501.48046  21967702.6484   21967702.5514
  10131385.81647   7931761.45345  22547514.6254                   22547512.8754
 -24299142.95747 -18762678.97345  22643619.8054                   22643617.7114
 -26454534.61748 -20573013.50846  21053332.0704                   21053329.5354
  21185483.76247  16544430.23844  23386227.4774                   23386225.7894
  -1076736.43048   -806107.29346  21544040.8204                   21544038.3444
  29887699.86346  23322743.90243  24913299.1884                   24913297.5314
 -45154116.50848 -35140931.44145  22289270.0234                   22289266.0554
 11  8 16  3  9 30.0000000  0  8G25G26G12G05G15G29G21G02
 -10577825.50848  -8118434.10546  21958439.1094   21958439.6994
   9960415.39847   7798537.80945  22514980.3054                   22514978.6954
 -24301796.79747 -18764746.91445  22643115.5704                   22643112.8914
 -26485988.37148 -20597522.91046  21047346.7274                   21047343.6414
  20999751.84447  16399704.19144  23350884.2194                   23350882.3554
  -1236048.15648   -930246.27046  21513724.7504                   21513722.5784
  29740805.39546  23208280.77743  24885346.1334                   24885344.4654
 -45198207.47748 -35175288.03145  22280880.6804                   22280875.5554
 11  8 16  3 10  0.0000000  0  8G25G26G12G05G15G29G21G02
 -10626030.99248  -8155996.81646  21949266.1174   21949266.1804
   9789774.11347   7665570.61745  22482508.3914                   22482506.3634
 -24304236.95747 -18766648.35545  22642650.6724                   22642648.5274
 -26517075.71948 -20621746.80946  21041431.1644                   21041427.9924
  20814094.62547  16255036.32044  23315554.9454                   23315552.8674
  -1395118.31648  -1054197.01246  21483455.0634                   21483452.4104
  29593906.39546  23093814.10543  24857392.6644                   24857390.6484
 -45242203.71148 -35209570.81645  22272508.2584                   22272503.5044
 11  8 16  3 10 30.0000000  0  8G25G26G12G05G15G29G21G02
 -10673762.84848  -8193190.46146  21940183.0704   21940182.7034
   9619466.91047   7532863.72345  22450100.0944                   22450097.8834
 -24306465.40247 -18768384.81645  22642226.7974                   22642224.2934
 -26547797.93448 -20645686.19946  21035584.5634                   21035581.7544
  20628516.16447  16110429.80544  23280240.4454                   23280238.1844
  -1553943.34048  -1177956.74646  21453231.4924                   21453228.9024
  29447003.52046  22979344.48443  24829437.3134                   24829435.9534
 -45286103.65247 -35243778.55945  22264154.2114                   22264149.7274
 11  8 16  3 11  0.0000000  0  8G25G26G12G05G15G29G21G02
 -10721023.55548  -8230016.98846  21931189.5554   21931189.6994
   9449497.05947   7400419.72745  22417755.7114                   22417753.8874
 -24308485.23447 -18769958.73445  22641842.8674                   22641839.9964
 -26578157.69548 -20669343.15246  21029807.6644                   21029804.3634
  20443019.20747  15965886.81344  23244941.2664                   23244939.2424
  -1712520.91048  -1301523.65646  21423055.0554                   21423052.8554
  29300095.77346  22864871.00843  24801482.0554                   24801480.3204
 -45329907.34848 -35277911.31245  22255818.4384                   22255813.7304
 11  8 16  3 11 30.0000000  0  8G25G26G12G05G15G29G21G02
 -10767814.20748  -8266477.22346  21922285.7974   21922285.6024
   9279869.13347   7268242.15645  22385476.7974                   22385474.7424
 -24310298.50447 -18771371.68745  22641497.4774                   22641494.7814
 -26608156.27348 -20692718.66046  21024099.0554                   21024095.7274
  20257607.82047  15821410.48444  23209658.3444                   23209656.8874
  -1870847.89148  -1424895.29746  21392926.3984                   21392923.9494
  29153183.95746  22750394.35943  24773525.7504                   24773523.3674
 -45373613.11348 -35311967.75845  22247501.5474                   22247496.9184
 11  8 16  3 12  0.0000000  0  8G25G26G12G05G15G29G21G02
 -10814138.98048  -8302574.45746  21913470.2034   21913470.3134
   9110585.08647   7136332.55545  22353263.1484                   22353261.1644
 -24311910.26247 -18772627.62545  22641190.7424                   22641188.3014
 -26637797.85548 -20715815.99246  21018458.4064                   21018455.2234
  20072283.25047  15677001.81645  23174392.7034                   23174390.7384
  -2028923.98448  -1548071.43746  21362845.5084                   21362842.9144
  29006265.56346  22635912.61343  24745567.3914                   24745565.6884
 -45417223.03148 -35345949.50445  22239202.5084                   22239198.2034
 11  8 16  3 12 30.0000000  0  8G25G26G12G05G15G29G21G02
 -10859998.42648  -8338309.08646  21904743.5704   21904743.5394
   8941650.26647   7004695.06645  22321115.6254                   22321113.6914
 -24313321.73447 -18773727.48845  22640922.3364                   22640919.4384
 -26667083.27348 -20738635.79746  21012885.5234                   21012882.3754
  19887050.34447  15532664.57845  23139143.6954                   23139142.0314
  -2186744.66848  -1671048.57846  21332812.9924                   21332810.5274
  28859341.77746  22521426.66843  24717608.8364                   24717606.9144
 -45460734.87147 -35379854.83245  22230922.2424                   22230918.1954
 11  8 16  3 13  0.0000000  0  8G25G26G12G05G15G29G21G02
 -10905395.42248  -8373683.36746  21896104.9694   21896104.7894
   8773067.77047   6873332.11345  22289035.7424                   22289033.4384
 -24314536.65247 -18774674.18745  22640691.0234                   22640688.7894
 -26696015.46148 -20761180.35946  21007380.1724                   21007377.0594
  19701911.39147  15388400.53945  23103912.4224                   23103911.0124
  -2344308.27748  -1793825.38346  21302829.7894                   21302827.0234
  28712411.74246  22406935.84443  24689648.9064                   24689647.0314
 -45504149.03147 -35413684.03945  22222661.1334                   22222656.9224
 11  8 16  3 13 30.0000000  0  8G25G26G12G05G15G29G21G02
 -10950332.12148  -8408698.96146  21887553.6254   21887553.5784
   8604841.16447   6742246.48445  22257022.9694                   22257020.6724
 -24315558.11347 -18775470.15245  22640496.6804                   22640494.4534
 -26724596.87948 -20783451.58646  21001941.1804                   21001938.1564
  19516869.32447  15244211.98845  23068700.5234                   23068698.0664
  -2501612.38348  -1916399.97346  21272895.8054                   21272893.6024
  28565474.96546  22292439.77743  24661687.5944                   24661685.6764
 -45547464.88748 -35447436.65645  22214418.8054                   22214413.4774
 11  8 16  3 14  0.0000000  0  8G25G26G12G05G15G29G21G02
 -10994809.94948  -8443357.01646  21879089.6804   21879089.6604
   8436975.00447   6611441.71945  22225079.3674                   22225077.3554
 -24316388.08647 -18776116.91445  22640338.1644                   22640336.6414
 -26752828.90248 -20805450.55946  20996568.7274                   20996565.4654
  19331928.66847  15100102.45745  23033507.7814                   23033505.2934
  -2658653.80948  -2038769.88346  21243011.6954                   21243009.1724
  28418531.59046  22177938.56343  24633725.0634                   24633723.2304
 -45590681.08648 -35481111.60945  22206195.0704                   22206190.0234
 11  8 16  3 14 30.0000000  0  8G25G26G12G05G15G29G21G02
 -11038831.70748  -8477659.67646  21870712.4774   21870712.7384
   8269472.68847   6480920.46145  22193204.8204                   22193202.2384
 -24317029.92247 -18776617.07445  22640216.7974                   22640214.1254
 -26780714.36748 -20827179.48846  20991262.4384                   20991259.2624
  19147092.02347  14956073.97744  22998333.7504                   22998332.0124
  -2815430.52348  -2160933.53546  21213178.1724                   21213175.6844
  28271581.15646  22063431.84843  24605761.4304                   24605759.5314
 -45633798.38348 -35514709.49645  22197990.0004                   22197984.6484
 11  8 16  3 15  0.0000000  0  8G25G26G12G05G15G29G21G02
 -11082401.39848  -8511610.09446  21862421.8364   21862421.9384
   8102335.88347   6350684.02745  22161399.6094                   22161397.6914
 -24317488.68047 -18776974.55545  22640129.5944                   22640126.2664
 -26808257.36748 -20848641.55946  20986021.1804                   20986018.2034
  18962360.72347  14812127.57845  22963181.0234                   22963179.0554
  -2971941.84848  -2282890.38746  21183394.9534                   21183392.1524
  28124621.13346  21948917.65243  24577795.5704                   24577793.7344
 -45676817.82448 -35548231.14145  22189803.6334                   22189798.6254
 11  8 16  3 15 30.0000000  0  8G25G26G12G05G15G29G21G02
 -11125521.94548  -8545210.52046  21854216.0234   21854215.9064
   7935567.73447   6220734.87145  22129664.0784                   22129662.0744
 -24317767.89147 -18777192.14145  22640075.6094                   22640073.7974
 -26835461.01248 -20869839.21146  20980844.6024                   20980841.0124
  18777737.10247  14668265.07444  22928047.8284                   22928046.0594
  -3128186.10948  -2404639.12946  21153662.6564                   21153659.9844
  27977650.57046  21834395.22343  24549828.0474                   24549826.1024
 -45719739.48847 -35581676.58645  22181636.0394                   22181630.9964
 11  8 16  3 16  0.0000000  0  8G25G26G12G05G15G29G21G02
  -9592772.30948  -7350860.14846  22145888.6414   22145888.7584
   9344599.41447   7318681.66445  22397794.0164                   22397791.9694
 -22742448.41047 -17549670.48845  22939849.2894                   22939847.0394
 -25286904.84448 -19663172.05146  21275524.8754                   21275521.8954
  20168652.39247  15752095.24944  23192730.4144                   23192728.2624
  -1708733.62948  -1298572.23446  21423775.4694                   21423772.5864
  29406095.98046  22947469.67643  24821651.6644                   24821649.9614
 -44187139.66448 -34387442.95745  22473279.8754                   22473275.1174
 11  8 16  3 16 30.0000000  0  8G25G26G12G05G15G29G21G02
  -9634997.41048  -7383762.82446  22137853.6254   22137853.3834
   9178583.69547   7189318.80545  22366202.4844                   22366200.5434
 -22742373.07047 -17549611.80945  22939863.8674                   22939861.0864
 -25313432.66048 -19683843.07846  21270477.0084                   21270473.9384
  19984257.88347  15608411.27044  23157641.0554                   23157639.1484
  -1864432.07848  -1419895.68046  21394147.1724                   21394144.3714
  29259107.26246  22832933.10243  24793681.0474                   24793679.2274
 -44229860.64548 -34420732.04745  22465150.5394                   22465145.2504
 11  8 16  3 17  0.0000000  0  8G25G26G12G05G15G29G21G02
  -9676779.71148  -7416320.46546  22129902.7894   22129902.8204
   9012948.28547   7060252.27345  22334682.6254                   22334681.0314
 -22742126.49247 -17549419.69545  22939910.8524                   22939908.8094
 -25339627.49248 -19704254.63346  21265492.0634                   21265488.7034
  19799981.26247  15464819.15644  23122574.8524                   23122571.9494
  -2019855.44948  -1541004.77746  21364570.6484                   21364567.5594
  29112107.40246  22718387.86743  24765708.1484                   24765705.9104
 -44272482.32847 -34453943.73045  22457039.4224                   22457034.7274
 11  8 16  3 17 30.0000000  0  8G25G26G12G05G15G29G21G02
  -9718120.32848  -7448533.94946  22122035.8754   22122035.7344
   8847698.12147   6931485.95345  22303236.3984                   22303235.3284
 -22741710.56647 -17549095.61745  22939990.2504                   22939987.4574
 -25365490.54348 -19724407.66446  21260570.4774                   21260567.4384
  19615827.14147  15321322.49645  23087531.4774                   23087528.4184
  -2174999.96548  -1661896.58246  21335047.8444                   21335045.3674
  28965097.30146  22603834.61743  24737732.2974                   24737730.7464
 -44315002.89847 -34487076.64545  22448948.6484                   22448943.5784
 11  8 16  3 18  0.0000000  0  8G25G26G12G05G15G29G21G02
  -9759022.73848  -7480405.94546  22114251.9614   22114252.3914
   8682835.68447   6803021.74245  22271863.9774                   22271862.5554
 -22741129.23047 -17548642.64845  22940100.3364                   22940098.3594
 -25391024.81648 -19744304.49246  21255711.2584                   21255708.2034
  19431797.34447  15177922.70345  23052511.8204                   23052508.6644
  -2329864.39848  -1782570.14546  21305578.3834                   21305575.3834
  28818075.52346  22489272.32443  24709755.2734                   24709753.1524
 -44357423.23447 -34520131.44545  22440876.2034                   22440871.2624
 11  8 16  3 18 30.0000000  0  9G18G25G26G12G05G15G29G21G02
  35971134.77056  28064021.87152  24725225.2194                   24725224.0044
  -9799486.28948  -7511935.98446  22106552.3444   22106552.0944
   8518367.64547   6674864.86745  22240567.7344                   22240565.7234
 -22740382.07447 -17548060.46945  22940242.7194                   22940240.2234
 -25416230.08648 -19763944.96946  21250914.9304                   21250911.6564
  19247898.23047  15034624.72745  23017516.6724                   23017514.3594
  -2484443.00448  -1903020.98446  21276163.0474                   21276160.1174
  28671044.74646  22374702.94543  24681776.3204                   24681773.5004
 -44399739.39847 -34553105.09845  22432823.4924                   22432818.8914
 11  8 16  3 19  0.0000000  0  9G18G25G26G12G05G15G29G21G02
  35791569.77046  27924101.22742  24691055.4534                   24691054.4344
  -9839517.25448  -7543128.95746  22098934.8134   22098934.6484
   8354293.69947   6547015.06645  22209345.2114                   22209343.1134
 -22739476.39147 -17547354.75045  22940415.6644                   22940412.8554
 -25441112.65648 -19783333.98046  21246180.2274                   21246176.9494
  19064128.98847  14891427.98045  22982546.0314                   22982544.0314
  -2638737.52048  -2023250.45746  21246801.4774                   21246798.5314
  28524000.59046  22260123.16843  24653794.3134                   24653791.6294
 -44441955.04747 -34586000.41445  22424790.3204                   22424785.4184
 11  8 16  3 19 30.0000000  0  9G18G25G26G12G05G15G29G21G02
  35612163.60546  27784304.34842  24656914.9144                   24656913.8054
  -9879122.71548  -7573990.35946  22091397.9694   22091397.8014
   8190612.97347   6419471.68445  22178197.3444                   22178196.0234
 -22738419.91447 -17546531.55145  22940616.3204                   22940613.9104
 -25465679.61748 -19802477.07046  21241505.1954                   21241502.1174
  18880488.43847  14748331.50445  22947600.5944                   22947598.4224
  -2792750.00848  -2143260.17646  21217493.9694                   21217491.4494
  28376938.03146  22145529.06643  24625809.1174                   24625807.1954
 -44484074.67247 -34618820.91045  22416775.2114                   22416770.3794
 11  8 16  3 20  0.0000000  0  9G18G25G26G12G05G15G29G21G02
  35432919.11746  27644633.43843  24622805.7814                   24622804.0354
  -9918303.33648  -7604520.72746  22083942.3594   22083942.1764
   8027330.69547   6292238.76245  22147126.3054                   22147124.0944
 -22737213.53547 -17545591.55545  22940845.8674                   22940843.6724
 -25489931.32848 -19821374.51646  21236890.5004                   21236886.8874
  18696981.47347  14605339.10945  22912680.4774                   22912678.0904
  -2946476.06248  -2263046.69146  21188240.8364                   21188238.3284
  28229858.27746  22030921.55143  24597821.0704                   24597819.1174
 -44526096.10947 -34651564.89545  22408778.8284                   22408774.1954
 11  8 16  3 20 30.0000000  0  9G18G25G26G12G05G15G29G21G02
  35253838.97346  27505090.65643  24588728.6564                   24588726.7974
  -9957060.63348  -7634721.23046  22076567.1024   22076567.1334
   7864451.37547   6165319.83645  22116131.5554                   22116129.0554
 -22735859.55147 -17544536.51645  22941103.3134                   22941101.1334
 -25513869.20748 -19840027.40246  21232335.0944                   21232331.7664
  18513612.02047  14462453.88345  22877786.3834                   22877783.8834
  -3099912.57048  -2382607.57846  21159043.0164                   21159039.9264
  28082762.13346  21916301.22343  24569828.6414                   24569827.3134
 -44568018.06647 -34684231.37545  22400800.9064                   22400796.9734
 11  8 16  3 21  0.0000000  0  9G18G25G26G12G05G15G29G21G02
  35074925.43846  27365677.66043  24554681.2734                   24554680.5474
  -9995395.94548  -7664592.91046  22069272.0234   22069271.9614
   7701979.80548   6038718.64145  22085214.1094                   22085211.8204
 -22734359.66047 -17543367.79345  22941389.0704                   22941386.2384
 -25537494.52748 -19858436.75046  21227839.2114                   21227835.9144
  18330384.38347  14319679.15245  22842918.9534                   22842916.9654
  -3253056.16848  -2501940.23846  21129900.4064                   21129897.8324
  27935650.16446  21801668.60242  24541834.8674                   24541833.1214
 -44609838.56647 -34716818.78545  22392843.0084                   22392838.6484
 11  8 16  3 21 30.0000000  0  9G18G25G26G12G05G15G29G21G02
  34896180.15646  27226395.81343  24520667.2114                   24520665.7114
 -10033311.35548  -7694137.37946  22062056.7584   22062056.7974
   7539919.88747   5912438.21145  22054374.8754                   22054372.6374
 -22732716.50047 -17542087.43745  22941701.5704                   22941699.4104
 -25560809.32048 -19876604.11746  21223402.5164                   21223399.4774
  18147301.91447  14177017.53945  22808079.8054                   22808077.8674
  -3405903.82448  -2621042.28146  21100814.5784                   21100811.9304
  27788522.37146  21687023.63743  24513838.0944                   24513834.8094
 -44651556.98047 -34749326.65645  22384904.4614                   22384899.9104
 11  8 16  3 22  0.0000000  0  9G18G25G26G12G05G15G29G21G02
  34717607.56646  27087248.44542  24486685.8054                   24486684.4654
 -10070806.54348  -7723354.40646  22054922.1024   22054921.7154
   7378278.13747   5786483.62945  22023615.3594                   22023613.5234
 -22730930.10947 -17540695.46545  22942041.4454                   22942039.0594
 -25583813.17648 -19894529.21146  21219024.9304                   21219021.9454
  17964370.80547  14034473.87545  22773268.9224                   22773267.2504
  -3558449.91848  -2739909.34446  21071785.6724                   21071782.9694
  27641381.64546  21572368.60942  24485836.7274                   24485834.9574
 -44693170.09847 -34781752.46945  22376985.7114                   22376981.0554
 11  8 16  3 22 30.0000000  0  9G18G25G26G12G05G15G29G21G02
  34539206.30946  26948234.62943  24452738.0704                   24452735.7664
 -10107886.38748  -7752247.79346  22047865.7814   22047865.8014
   7217055.58248   5660855.69945  21992936.0314                   21992933.4304
 -22729005.99247 -17539196.18445  22942408.0944                   22942405.4414
 -25606510.87948 -19912215.73046  21214705.6414                   21214702.9964
  17781592.21547  13892049.04745  22738487.6254                   22738485.5514
  -3710694.77048  -2858541.68046  21042814.5394                   21042811.9264
  27494225.00846  21457701.16842  24457833.8754                   24457831.3094
 -44734679.87547 -34814097.77045  22369086.4304                   22369082.2464
 11  8 16  3 23  0.0000000  0  9G18G25G26G12G05G15G29G21G02
  34360979.57846  26809356.83643  24418822.1484                   24418820.4144
 -10144552.01648  -7780818.42645  22040888.4534   22040887.9804
   7056257.32048   5535558.37145  21962336.9844                   21962333.7934
 -22726945.69947 -17537590.77744  22942799.8284                   22942797.5784
 -25628903.34448 -19929664.41046  21210444.8054                   21210441.8204
  17598970.63347  13749746.55145  22703735.8284                   22703733.8164
  -3862634.65248  -2976936.37546  21013901.5314                   21013898.8284
  27347053.18446  21343021.89543  24429828.5634                   24429825.9654
 -44776084.47747 -34846361.10945  22361207.7114                   22361203.1484
 11  8 16  3 23 30.0000000  0  9G18G25G26G12G05G15G29G21G02
  34182929.50446  26670616.64543  24384939.6564                   24384938.1334
 -10180804.94148  -7809067.46146  22033989.8914   22033989.6254
   6895887.78148   5410595.12145  21931819.4304                   21931816.9924
 -22724751.19147 -17535880.79344  22943216.8204                   22943214.8754
 -25650991.93448 -19946876.30146  21206241.5784                   21206238.1764
  17416510.02347  13607569.51645  22669014.7734                   22669012.2734
  -4014265.76648  -3095090.47746  20985047.1484                   20985044.2734
  27199866.92246  21228331.37143  24401819.2664                   24401817.6134
 -44817382.22347 -34878541.18745  22353348.5864                   22353343.8954
 11  8 16  3 24  0.0000000  0  9G18G25G26G12G05G15G29G21G02
  34005055.36746  26532013.55943  24351091.7504                   24351089.8554
 -10216649.95748  -7836998.64146  22027169.1564   22027168.8284
   6735948.24647   5285966.93045  21901384.1024                   21901381.5514
 -22722427.83647 -17534070.41844  22943658.9304                   22943656.9384
 -25672781.37148 -19963855.07846  21202094.8524                   21202091.9064
  17234211.46147  13465518.72345  22634323.9224                   22634322.1914
  -4165588.05148  -3213003.93446  20956251.5784                   20956248.8134
  27052663.86746  21113627.79743  24373808.0474                   24373805.1724
 -44858575.16447 -34910639.59045  22345509.6414                   22345505.8404
 11  8 16  3 24 30.0000000  0  9G18G25G26G12G05G15G29G21G02
  35402780.99646  27621150.56343  24617070.3754                   24617067.5634
  -8676671.53948  -6637015.46545  22320217.0084   22320216.5744
   8151864.54747   6389278.36345  22170824.1564                   22170821.6024
 -21144561.60547 -16304564.27744  23243917.5004                   23243914.9064
 -24118856.37148 -18753004.43746  21497797.3674                   21497794.2034
  18627501.23847  14551199.11345  22899458.2734                   22899455.7464
  -2741177.20348  -2103073.38746  21227307.9224                   21227304.7894
  28480865.41446  22226512.21143  24645585.5864                   24645582.8164
 -43324244.71547 -33715057.44145  22637483.2974                   22637478.7624
 11  8 16  3 25  0.0000000  0  9G18G25G26G12G05G15G29G21G02
  35225256.82846  27482820.19143  24583287.3834                   24583286.2704
  -8711714.04748  -6664321.31645  22313548.7344   22313548.2934
   7992790.13347   6265324.30945  22140553.1174                   22140550.6414
 -21141994.70347 -16302564.12944  23244405.6884                   23244403.5554
 -24140060.15248 -18769526.85946  21493762.2194                   21493759.1604
  18445530.75847  14409403.96145  22864830.3524                   22864828.1054
  -2891879.91048  -2220504.05146  21198630.2894                   21198627.2074
  28333621.83646  22111777.03943  24617565.7734                   24617563.3364
 -43365232.48447 -33746995.96945  22629683.9844                   22629678.9384
 11  8 16  3 25 30.0000000  0  9G18G25G26G12G05G15G29G21G02
  35047914.92646  27344631.85243  24549540.7664                   24549539.3284
  -8746353.64548  -6691313.21145  22306957.1334   22306956.4184
   7834159.05547   6141715.69545  22110366.5164                   22110363.7704
 -21139304.83647 -16300468.14845  23244918.0554                   23244915.4774
 -24160969.16448 -18785819.59446  21489783.5234                   21489779.9654
  18263734.71947  14267744.74245  22830235.8984                   22830233.7154
  -3042263.67648  -2337686.19546  21170013.0864                   21170010.3134
  28186363.00346  21997030.00543  24589543.5004                   24589540.7624
 -43406111.07447 -33778849.40645  22621905.0704                   22621900.3094
 11  8 16  3 26  0.0000000  0  9G18G25G26G12G05G15G29G21G02
  34870752.43446  27206583.31343  24515828.4224                   24515826.3324
  -8780597.29348  -6717996.57846  22300441.0634   22300440.3054
   7675970.31347   6018451.77745  22080263.9844                   22080261.9654
 -21136499.50447 -16298282.21545  23245451.7584                   23245449.4454
 -24181589.72348 -18801887.55946  21485859.3984                   21485856.1174
  18082112.01247  14126220.58645  22795674.4614                   22795671.8164
  -3192330.39148  -2454621.28146  21141456.5394                   21141453.2304
  28039084.57846  21882267.66843  24561517.2734                   24561514.7234
 -43446884.74247 -33810621.12145  22614146.0554                   22614141.4534
 11  8 16  3 26 30.0000000  0  9G18G25G26G12G05G15G29G21G02
  34693772.33646  27068676.87143  24482149.7194                   24482148.0394
  -8814446.05548  -6744372.23446  22293999.5004   22293999.3204
   7518229.05147   5895536.52745  22050247.2974                   22050244.7464
 -21133580.05547 -16296007.34845  23246007.2734                   23246004.8134
 -24201923.06248 -18817731.71546  21481989.9534                   21481987.2304
  17900667.28547  13984835.11745  22761146.4144                   22761144.1954
  -3342076.27748  -2571306.37946  21112960.1024                   21112957.1764
  27891787.32847  21767490.67244  24533487.4924                   24533484.7034
 -43487551.28547 -33842309.35245  22606407.5314                   22606402.9304
 11  8 16  3 27  0.0000000  0  9G18G25G26G12G05G15G29G21G02
  34516975.57046  26930913.26243  24448505.9694                   24448504.3164
  -8847902.60547  -6770442.26645  22287632.7344   22287633.1054
   7360938.55147   5772972.53145  22020315.7664                   22020313.2974
 -21130549.57447 -16293645.96545  23246584.4694                   23246581.6484
 -24221971.60948 -18833353.96946  21478174.8524                   21478171.8674
  17719403.74247  13843590.82445  22726653.1094                   22726650.7544
  -3491498.72348  -2687739.43746  21084526.0314                   21084523.1094
  27744470.74246  21652698.61343  24505453.7114                   24505451.5514
 -43528110.16447 -33873913.68745  22598689.5164                   22598684.1374
 11  8 16  3 27 30.0000000  0  9G18G25G26G12G05G15G29G21G02
  34340363.28946  26793293.43043  24414897.7814                   24414895.5864
  -8880969.75447  -6796208.88745  22281340.5634   22281340.1374
   7204102.16047   5650762.38745  21990470.6094                   21990468.4024
 -21127411.19547 -16291200.50445  23247181.2584                   23247178.8244
 -24241737.99648 -18848756.34046  21474413.5314                   21474410.3674
  17538324.32047  13702490.02045  22692194.8984                   22692192.3834
  -3640595.61348  -2803918.81646  21056154.2034                   21056151.1914
  27597134.68846  21537891.38744  24477416.8284                   24477413.9454
 -43568561.61747 -33905434.30545  22590991.6334                   22590986.9144
 11  8 16  3 28  0.0000000  0  9G18G25G26G12G05G15G29G21G02
  34163935.57846  26655817.43843  24381324.2894                   24381323.1454
  -8913651.48447  -6821675.17245  22275121.1884   22275120.9494
   7047722.17247   5528907.88345  21960712.5634                   21960710.1414
 -21124169.04747 -16288674.19145  23247798.5784                   23247795.8134
 -24261225.99248 -18863941.80146  21470705.0314                   21470701.8404
  17357431.11347  13561534.32045  22657772.2504                   22657769.6024
  -3789365.88748  -2919843.69146  21027843.8754                   21027841.2504
  27449777.41846  21423067.63343  24449375.3754                   24449372.8244
 -43608906.08247 -33936871.57045  22583314.5394                   22583310.0594
 11  8 16  3 28 30.0000000  0  9G18G25G26G12G05G15G29G21G02
  33987692.85946  26518485.53543  24347787.1024                   24347784.4964
  -8945951.10547  -6846843.71945  22268974.8834   22268975.0394
   6891801.02347   5407410.91445  21931041.7114                   21931039.2734
 -21120827.03947 -16286070.06245  23248434.4534                   23248432.0234
 -24280438.01648 -18878912.20346  21467049.2504                   21467046.0124
  17176726.65647  13420725.69145  22623385.1804                   22623382.6524
  -3937807.57047  -3035512.52746  20999596.3754                   20999593.5634
  27302398.04346  21308226.65244  24421330.0394                   24421327.6334
 -43649143.91047 -33968225.73845  22575657.3054                   22575652.4654
 11  8 16  3 29  0.0000000  0  9G18G25G26G12G05G15G29G21G02
  33811639.23446  26381300.99643  24314284.3134                   24314282.6844
  -8977868.71147  -6871714.56645  22262901.1174   22262900.4844
   6736344.86348   5286276.27345  21901459.6644                   21901457.1564
 -21117385.24647 -16283388.18745  23249089.5554                   23249087.1604
 -24299374.18048 -18893667.64846  21463445.6804                   21463442.3714
  16996216.60947  13280068.55945  22589035.0314                   22589032.9804
  -4085915.79348  -3150921.50846  20971412.2114                   20971409.5004
  27154998.47346  21193369.91844  24393280.9924                   24393277.8204
 -43689271.84047 -33999494.26245  22568020.8444                   22568016.4964
 11  8 16  3 29 30.0000000  0  9G18G25G26G12G05G15G29G21G02
  33635773.98846  26244263.26243  24280818.6024                   24280816.5634
  -9009408.92647  -6896291.37545  22256899.2584   22256899.6134
   6581355.16848   5165505.10945  21871965.8054                   21871963.5314
 -21113848.57447 -16280632.38745  23249762.0314                   23249760.3444
 -24318039.13748 -18908211.77346  21459893.8364                   21459890.8484
  16815902.37947  13139564.02745  22554722.6024                   22554720.1024
  -4233690.02348  -3266070.25446  20943291.9064                   20943289.1804
  27007576.66846  21078495.87544  24365227.2734                   24365225.1914
 -43729291.49647 -34030678.42645  22560405.2734                   22560400.9804
 11  8 16  3 30  0.0000000  0  9G18G25G26G12G05G15G29G21G02
  33460097.16446  26107372.35943  24247387.8754                   24247385.9144
  -9040575.34447  -6920576.89845  22250968.4694   22250968.0514
   6426834.39547   5045099.33245  21842561.3524                   21842559.0634
 -21110220.73847 -16277805.53545  23250452.9304                   23250450.8674
 -24336435.87548 -18922546.89546  21456393.3594                   21456390.0474
  16635786.03547  12999213.67245  22520447.8204                   22520445.2544
  -4381128.83648  -3380957.62546  20915235.0084                   20915232.1524
  26860131.46146  20963603.59444  24337169.3914                   24337167.4264
 -43769203.39147 -34061778.62545  22552811.0164                   22552805.7194
 11  8 16  3 30 30.0000000  0  9G18G25G26G12G05G15G29G21G02
  33284612.09046  25970630.82443  24213994.0314                   24213992.5744
  -9071368.66047  -6944571.69145  22245108.9694   22245108.4924
   6272788.03547   4925063.22745  21813247.2344                   21813245.0044
 -21106503.11347 -16274908.73044  23251160.0704                   23251158.3404
 -24354564.61348 -18936673.18446  21452943.1024                   21452939.8714
  16455873.09047  12859021.82845  22486211.0634                   22486208.7504
  -4528227.61748  -3495580.03946  20887243.0234                   20887240.2814
  26712664.51646  20848694.37143  24309106.6094                   24309104.8714
 -43809005.05547 -34092792.91045  22545236.8674                   22545232.4184
 11  8 16  3 31  0.0000000  0  9G18G25G26G12G05G15G29G21G02
  33109322.30946  25834041.43443  24180638.1724                   24180635.7234
  -9101789.60947  -6968276.35245  22239319.8134   22239319.8914
   6119221.18847   4805400.77345  21784024.5084                   21784022.0314
 -21102696.37547 -16271942.46144  23251884.4924                   23251882.3164
 -24372425.93748 -18950591.09446  21449544.2894                   21449541.3324
  16276168.53947  12718992.35945  22452014.1724                   22452012.3954
  -4674982.16448  -3609934.21546  20859316.7114                   20859313.7814
  26565177.46946  20733769.49243  24281041.3674                   24281038.4224
 -43848693.97347 -34123719.36345  22537684.2974                   22537679.3984
 11  8 16  3 31 30.0000000  0  9G18G25G26G12G05G15G29G21G02
  32934224.84446  25697601.94943  24147317.4064                   24147315.4574
  -9131844.80547  -6991695.99245  22233600.5554   22233600.1684
   5966133.69147   4686111.83245  21754892.9454                   21754890.6374
 -21098807.49647 -16268912.20344  23252624.6174                   23252622.9494
 -24390026.27348 -18964305.64846  21446195.0634                   21446192.1994
  16096671.59047  12579124.66045  22417857.1804                   22417854.8594
  -4821393.75048  -3724021.14546  20831455.1804                   20831452.9964
  26417666.21146  20618825.73043  24252970.7034                   24252968.7304
 -43888273.34847 -34154560.44545  22530152.7734                   22530148.0984
 11  8 16  3 32  0.0000000  0  9G18G25G26G12G05G15G29G21G02
  32759321.93046  25561314.06643  24114034.3834                   24114032.9064
  -9161535.90247  -7014831.92245  22227950.4384   22227950.3674
   5813529.50847   4567199.50845  21725853.4304                   21725850.9184
 -21094837.93746 -16265819.09444  23253379.8834                   23253378.0164
 -24407366.30948 -18977817.35946  21442895.2114                   21442892.4844
  15917386.79347  12439422.26245  22383740.1884                   22383738.0474
  -4967458.95348  -3837838.17246  20803659.8984                   20803657.1954
  26270131.35946  20503863.58243  24224895.6334                   24224893.0744
 -43927741.68447 -34185315.00845  22522642.2114                   22522637.4924
 11  8 16  3 32 30.0000000  0  9G18G25G26G12G05G15G29G21G02
  32584613.91846  25425178.05943  24080789.0394                   24080787.1804
  -9190866.76247  -7037687.14545  22222368.9224   22222368.4574
   5661410.97747   4448665.61345  21696906.6254                   21696903.7464
 -21090791.92247 -16262666.38744  23254149.9144                   23254147.5044
 -24424449.82048 -18991129.18746  21439644.5234                   21439641.7234
  15738316.30547  12299886.85545  22349664.6254                   22349661.8094
  -5113176.58648  -3951384.35946  20775931.2814                   20775928.3094
  26122571.55546  20388882.00043  24196815.5314                   24196813.5434
 -43967099.89547 -34215983.75445  22515152.5554                   22515147.3324
 11  8 16  3 33  0.0000000  0  9G18G25G26G12G05G15G29G21G02
  32410101.93846  25289194.75443  24047579.8134                   24047577.8554
  -9219839.88747  -7060263.60946  22216855.5394   22216855.3094
   5509781.70347   4330512.95345  21668051.9614                   21668049.3714
 -21086671.94147 -16259456.03944  23254933.7584                   23254931.7194
 -24441278.96948 -19004242.81646  21436441.8284                   21436439.2584
  15559463.17247  12160520.82845  22315629.9064                   22315627.1564
  -5258543.84048  -4064657.52746  20748268.5164                   20748265.3364
  25974986.81346  20273880.96543  24168731.8364                   24168728.9804
 -44006346.77047 -34246565.73845  22507684.3134                   22507679.5904
 11  8 16  3 33 30.0000000  0  9G18G25G26G12G05G15G29G21G02
  33811213.70746  26380970.24643  24314202.8984                   24314200.4574
  -7673036.60247  -5854962.35946  22511202.5004   22511202.2854
   6934070.46547   5440348.37945  21939085.2584                   21939082.4224
 -19507060.93447 -15028590.31644  23555524.5164                   23555521.6764
 -22882434.88348 -17789559.10546  21733080.2034                   21733077.3714
  16956257.51247  13248932.04345  22581430.7814                   22581428.2304
  -3828133.02748  -2950051.68046  21020466.4844                   21020464.1334
  27402802.43846  21386464.62143  24440435.8984                   24440432.8444
 -42470060.27047 -33049459.39545  22800029.8594                   22800025.2344
 11  8 16  3 34  0.0000000  0  9G18G25G26G12G05G15G29G21G02
  33637098.57046  26245296.21543  24281069.2424                   24281067.5594
  -7701301.65647  -5876987.08645  22505823.9144   22505823.4884
   6783430.25447   5322966.41045  21910419.6414                   21910417.2074
 -19502801.44147 -15025271.25844  23556334.3594                   23556332.0394
 -22898761.42248 -17802281.08246  21729973.6174                   21729970.2274
  16777850.19947  13109913.41045  22547480.7734                   22547478.4224
  -3972791.66048  -3062772.68046  20992939.2504                   20992936.3094
  27255168.07046  21271424.93443  24412341.4614                   24412338.4574
 -42509082.39147 -33079866.25845  22792604.1484                   22792599.3134
 11  8 16  3 34 30.0000000  0  9G18G25G26G12G05G15G29G21G02
  33463184.34446  26109778.71143  24247974.5084                   24247973.0704
  -7729216.20747  -5898738.68045  22500511.4384   22500511.7974
   6633290.29347   5205974.25845  21881848.2584                   21881846.1454
 -19498475.96947 -15021900.77344  23557157.9454                   23557155.4104
 -22914839.35248 -17814809.34046  21726913.9844                   21726910.6134
  16599671.13747  12971072.61745  22513574.8834                   22513572.2424
  -4117091.16448  -3175213.82446  20965479.7114                   20965476.9774
  27107509.51646  21156366.38743  24384243.5164                   24384240.5314
 -42547991.13747 -33110184.78545  22785199.9064                   22785195.7504
 11  8 16  3 35  0.0000000  0  9G18G25G26G12G05G15G29G21G02
  33289471.14146  25974417.87543  24214918.3594                   24214916.4184
  -7756783.86347  -5920220.00045  22495265.7504   22495266.2854
   6483652.77747   5089373.62545  21853373.1174                   21853371.0434
 -19494087.97347 -15018481.57044  23557992.4064                   23557990.2344
 -22930672.07448 -17827146.52346  21723900.7424                   21723897.4024
  16421722.56647  12832411.44545  22479712.3204                   22479709.4494
  -4261030.88748  -3287374.62946  20938088.7424                   20938086.2154
  26959824.99646  21041287.58643  24356140.1334                   24356136.8164
 -42586786.43447 -33140414.87945  22777817.3594                   22777813.1804
 11  8 16  3 35 30.0000000  0  9G18G25G26G12G05G15G29G21G02
  33115957.41446  25839212.45343  24181900.0394                   24181898.0784
  -7784010.27048  -5941435.38345  22490085.0634   22490084.8164
   6334518.23447   4973164.91045  21824993.8284                   21824991.6254
 -19489643.40647 -15015018.28944  23558838.0864                   23558836.1844
 -22946264.65248 -17839296.58646  21720933.8984                   21720930.3444
  16244005.52047  12693930.66445  22445893.3524                   22445890.6294
  -4404610.84448  -3399255.08646  20910766.3984                   20910763.4344
  26812111.56346  20926186.30143  24328030.5004                   24328027.4414
 -42625470.82447 -33170558.57845  22770456.4924                   22770451.4804
 11  8 16  3 36  0.0000000  0  9G18G25G26G12G05G15G29G21G02
  32942647.01646  25704165.46143  24148919.9224                   24148917.7584
  -7810895.60947  -5962384.99645  22484968.2114   22484968.9224
   6185892.29747   4857352.50845  21796711.3284                   21796709.1024
 -19485142.29747 -15011510.95744  23559695.2974                   23559693.2194
 -22961616.64848 -17851259.18446  21718012.5864                   21718009.6804
  16066525.49247  12555634.57445  22412120.3834                   22412117.6844
  -4547826.28148  -3510851.51646  20883513.3834                   20883510.6914
  26664371.73046  20811064.39143  24299916.3984                   24299913.8634
 -42664041.07447 -33200613.32445  22763116.5944                   22763111.6524
 11  8 16  3 36 30.0000000  0  9G18G25G26G12G05G15G29G21G02
  32769540.73846  25569277.52343  24115978.8364                   24115975.9844
  -7837442.93047  -5983071.22745  22479916.9224   22479917.2814
   6037778.02047   4741938.81345  21768525.9694                   21768523.9454
 -19480587.91447 -15007962.10544  23560561.7114                   23560559.5434
 -22976730.88748 -17863036.50046  21715136.0084                   21715133.0904
  15889285.28547  12417525.37145  22378392.7194                   22378390.0234
  -4690674.81648  -3622162.04746  20856330.4614                   20856327.6214
  26516605.06646  20695921.59043  24271797.5084                   24271794.8484
 -42702496.82847 -33230578.86345  22755797.9774                   22755793.4654
 11  8 16  3 37  0.0000000  0  9G18G25G26G12G05G15G29G21G02
  32596640.60546  25434550.23443  24083076.6724                   24083073.9574
  -7863653.96147  -6003495.40645  22474929.0394   22474929.0664
   5890179.74247   4626927.19945  21740438.8364                   21740436.5394
 -19475982.26247 -15004373.30944  23561438.3914                   23561436.3324
 -22991608.48048 -17874629.42646  21712305.1724                   21712302.1214
  15712289.15647  12279606.34445  22344711.2114                   22344708.4534
  -4833152.99248  -3733184.00446  20829217.5004                   20829214.6804
  26368812.28946  20580758.44143  24243673.6884                   24243670.5744
 -42740836.55547 -33260453.98445  22748502.9224                   22748497.7734
 11  8 16  3 37 30.0000000  0  9G18G25G26G12G05G15G29G21G02
  32423948.38346  25299984.96543  24050214.4844                   24050212.2154
  -7889531.08647  -6023659.41045  22470005.0164   22470005.2464
   5743100.93447   4512320.35545  21712450.7814                   21712448.1214
 -19471327.35546 -15000746.12944  23562323.6564                   23562322.0984
 -23006251.29348 -17886039.40646  21709518.8914                   21709515.7704
  15535540.96547  12141880.50845  22311077.4144                   22311074.5234
  -4975257.95348  -3843915.11746  20802175.9144                   20802173.3404
  26220993.78546  20465575.24243  24215544.8364                   24215542.0354
 -42779059.07847 -33290237.77045  22741229.4454                   22741224.2274
 11  8 16  3 38  0.0000000  0  9G18G25G26G12G05G15G29G21G02
  32251463.75846  25165581.41843  24017391.9614                   24017389.5164
  -7915078.51647  -6043566.48845  22465143.1174   22465143.2194
   5596543.46147   4398119.73845  21684561.8364                   21684559.5204
 -19466627.58246 -14997083.99244  23563218.0394                   23563216.4384
 -23020662.95748 -17897269.27346  21706776.3524                   21706773.1724
  15359042.09847  12004348.96545  22277490.2344                   22277487.9534
  -5116988.91048  -3954354.80946  20775205.7274                   20775202.9024
  26073148.09446  20350370.86743  24187410.8134                   24187407.3554
 -42817166.09847 -33319931.55544  22733977.8054                   22733972.9494
 11  8 16  3 38 30.0000000  0  9G18G25G26G12G05G15G29G21G02
  32079186.14547  25031339.20743  23984608.6484                   23984605.8794
  -7940300.80947  -6063220.22345  22460344.0554   22460343.4964
   5450508.62947   4284326.39545  21656772.7584                   21656769.6764
 -19461887.46946 -14993390.42244  23564120.4454                   23564118.5314
 -23034847.57048 -17908322.21546  21704076.7734                   21704073.8954
  15182794.48847  11867013.18845  22243952.0084                   22243948.9024
  -5258344.97348  -4064502.37546  20748306.5474                   20748303.5044
  25925272.67246  20235143.31343  24159270.8204                   24159267.5634
 -42855157.79347 -33349535.49245  22726747.7734                   22726743.3634
 11  8 16  3 39  0.0000000  0  9G18G25G26G12G05G15G29G21G02
  31907118.74246  24897260.75043  23951865.3134                   23951863.2664
  -7965198.64847  -6082621.15245  22455606.2424   22455605.5864
   5305001.84047   4170944.51245  21629083.5944                   21629081.2814
 -19457107.77347 -14989666.02944  23565029.8754                   23565027.9804
 -23048805.23848 -17919198.30946  21701420.9534                   21701417.9924
  15006803.53147  11729877.41845  22210461.5474                   22210458.9494
  -5399321.70348  -4174354.36346  20721479.4384                   20721476.3484
  25777370.14146  20119894.65243  24131126.1484                   24131122.3054
 -42893031.64847 -33379047.59045  22719540.8984                   22719536.1524
 11  8 16  3 39 30.0000000  0  9G18G25G26G12G05G15G29G21G02
  31735261.75046  24763346.30543  23919161.1724                   23919159.3484
  -7989776.02047  -6101772.34845  22450928.8834   22450928.9884
   5160024.98447   4057975.56345  21601494.9694                   21601492.5354
 -19452292.40646 -14985913.81244  23565946.3364                   23565944.1724
 -23062539.24648 -17929900.12546  21698807.5234                   21698804.2274
  14831071.15647  11592943.14145  22177021.0944                   22177018.3984
  -5539917.82048  -4283909.76646  20694724.7344                   20694722.0554
  25629438.53546  20004623.32043  24102975.5234                   24102972.2304
 -42930788.72347 -33408468.70745  22712355.7274                   22712350.7304
 11  8 16  3 40  0.0000000  0  9G18G25G26G12G05G15G29G21G02
  31563614.88346  24629595.55943  23886498.7584                   23886495.7584
  -8014036.84047  -6120676.88745  22446312.5164   22446312.2774
   5015580.06347   3945421.09845  21574008.1724                   21574006.5164
 -19447445.37546 -14982136.94144  23566868.6644                   23566866.7304
 -23076053.23448 -17940430.50446  21696236.0164                   21696233.2704
  14655599.73847  11456212.21145  22143629.5554                   22143627.3954
  -5680131.95748  -4393167.53146  20668042.7114                   20668040.1684
  25481476.78946  19889328.53543  24074819.2974                   24074816.0394
 -42968429.38347 -33437799.09044  22705193.0314                   22705188.3404
 11  8 16  3 40 30.0000000  0  9G18G25G26G12G05G15G29G21G02
  31392180.26246  24496010.18443  23853875.6884                   23853873.0664
  -8037983.13347  -6139336.33645  22441755.6024   22441755.8794
   4871671.03947   3833284.21145  21546623.0634                   21546620.6684
 -19442568.64147 -14978336.93444  23567796.3364                   23567794.5554
 -23089348.30548 -17950790.28546  21693705.8674                   21693702.6844
  14480392.86347  11319687.40645  22110289.1884                   22110286.4024
  -5819961.19148  -4502125.36346  20641434.0864                   20641431.3634
  25333485.89547  19774011.02743  24046657.4774                   24046654.2344
 -43005951.89147 -33467037.42244  22698052.4144                   22698048.2894
